<?xml version="1.0" encoding="UTF-8" standalone="no" ?>
<gpx xmlns="http://www.topografix.com/GPX/1/1" xmlns:xsi="http://www.w3.org/2001/XMLSchema-instance" xsi:schemaLocation="http://www.topografix.com/GPX/1/1 http://www.topografix.com/GPX/1/1/gpx.xsd" version="1.1" creator="VisuGPX - https://www.visugpx.com">
  <metadata>
    <name>St Jean Saverne - Mont St Michel</name>
    <desc><![CDATA[Départ de Saverne
- Ottersthal
- Eckartswiller
- St Jean Saverne
- Chapelle St Michel]]></desc>
  </metadata>
  <trk>
    <name><![CDATA[ADi2010/09/18_09:27]]></name>
    <trkseg>
      <trkpt lat="48.74165" lon="7.35899">
        <ele>199.159302</ele>
        <time>2010-09-18T07:40:54Z</time>
      </trkpt>
      <trkpt lat="48.74168" lon="7.35887">
        <ele>198.842896</ele>
        <time>2010-09-18T07:40:56Z</time>
      </trkpt>
      <trkpt lat="48.74169" lon="7.3588">
        <ele>198.655396</ele>
        <time>2010-09-18T07:40:57Z</time>
      </trkpt>
      <trkpt lat="48.74171" lon="7.35873">
        <ele>198.483521</ele>
        <time>2010-09-18T07:40:58Z</time>
      </trkpt>
      <trkpt lat="48.74173" lon="7.35866">
        <ele>198.385864</ele>
        <time>2010-09-18T07:40:59Z</time>
      </trkpt>
      <trkpt lat="48.74175" lon="7.35859">
        <ele>198.128052</ele>
        <time>2010-09-18T07:41:00Z</time>
      </trkpt>
      <trkpt lat="48.74178" lon="7.35851">
        <ele>197.846802</ele>
        <time>2010-09-18T07:41:01Z</time>
      </trkpt>
      <trkpt lat="48.7418" lon="7.35844">
        <ele>197.393677</ele>
        <time>2010-09-18T07:41:02Z</time>
      </trkpt>
      <trkpt lat="48.74183" lon="7.35836">
        <ele>197.026489</ele>
        <time>2010-09-18T07:41:03Z</time>
      </trkpt>
      <trkpt lat="48.74185" lon="7.35828">
        <ele>196.620239</ele>
        <time>2010-09-18T07:41:04Z</time>
      </trkpt>
      <trkpt lat="48.74188" lon="7.35819">
        <ele>196.147583</ele>
        <time>2010-09-18T07:41:05Z</time>
      </trkpt>
      <trkpt lat="48.74191" lon="7.35811">
        <ele>195.721802</ele>
        <time>2010-09-18T07:41:06Z</time>
      </trkpt>
      <trkpt lat="48.74194" lon="7.35802">
        <ele>195.557739</ele>
        <time>2010-09-18T07:41:07Z</time>
      </trkpt>
      <trkpt lat="48.74197" lon="7.35794">
        <ele>195.178833</ele>
        <time>2010-09-18T07:41:08Z</time>
      </trkpt>
      <trkpt lat="48.742" lon="7.35784">
        <ele>195.006958</ele>
        <time>2010-09-18T07:41:09Z</time>
      </trkpt>
      <trkpt lat="48.74204" lon="7.35774">
        <ele>194.717896</ele>
        <time>2010-09-18T07:41:10Z</time>
      </trkpt>
      <trkpt lat="48.74209" lon="7.35765">
        <ele>194.069458</ele>
        <time>2010-09-18T07:41:11Z</time>
      </trkpt>
      <trkpt lat="48.74214" lon="7.35756">
        <ele>193.780396</ele>
        <time>2010-09-18T07:41:12Z</time>
      </trkpt>
      <trkpt lat="48.7422" lon="7.35747">
        <ele>193.342896</ele>
        <time>2010-09-18T07:41:13Z</time>
      </trkpt>
      <trkpt lat="48.74226" lon="7.3574">
        <ele>192.889771</ele>
        <time>2010-09-18T07:41:14Z</time>
      </trkpt>
      <trkpt lat="48.74233" lon="7.35733">
        <ele>192.659302</ele>
        <time>2010-09-18T07:41:15Z</time>
      </trkpt>
      <trkpt lat="48.7424" lon="7.35727">
        <ele>192.354614</ele>
        <time>2010-09-18T07:41:16Z</time>
      </trkpt>
      <trkpt lat="48.74247" lon="7.35721">
        <ele>192.006958</ele>
        <time>2010-09-18T07:41:17Z</time>
      </trkpt>
      <trkpt lat="48.74255" lon="7.35717">
        <ele>191.381958</ele>
        <time>2010-09-18T07:41:18Z</time>
      </trkpt>
      <trkpt lat="48.74263" lon="7.35712">
        <ele>191.065552</ele>
        <time>2010-09-18T07:41:19Z</time>
      </trkpt>
      <trkpt lat="48.74271" lon="7.35708">
        <ele>190.788208</ele>
        <time>2010-09-18T07:41:20Z</time>
      </trkpt>
      <trkpt lat="48.74279" lon="7.35705">
        <ele>190.628052</ele>
        <time>2010-09-18T07:41:21Z</time>
      </trkpt>
      <trkpt lat="48.74288" lon="7.35703">
        <ele>190.725708</ele>
        <time>2010-09-18T07:41:22Z</time>
      </trkpt>
      <trkpt lat="48.74296" lon="7.35702">
        <ele>190.885864</ele>
        <time>2010-09-18T07:41:23Z</time>
      </trkpt>
      <trkpt lat="48.74305" lon="7.35701">
        <ele>191.073364</ele>
        <time>2010-09-18T07:41:24Z</time>
      </trkpt>
      <trkpt lat="48.74313" lon="7.35701">
        <ele>191.299927</ele>
        <time>2010-09-18T07:41:25Z</time>
      </trkpt>
      <trkpt lat="48.74322" lon="7.357">
        <ele>191.702271</ele>
        <time>2010-09-18T07:41:26Z</time>
      </trkpt>
      <trkpt lat="48.7433" lon="7.35699">
        <ele>191.960083</ele>
        <time>2010-09-18T07:41:27Z</time>
      </trkpt>
      <trkpt lat="48.74338" lon="7.35698">
        <ele>192.280396</ele>
        <time>2010-09-18T07:41:28Z</time>
      </trkpt>
      <trkpt lat="48.74345" lon="7.35696">
        <ele>192.663208</ele>
        <time>2010-09-18T07:41:29Z</time>
      </trkpt>
      <trkpt lat="48.74353" lon="7.35694">
        <ele>192.889771</ele>
        <time>2010-09-18T07:41:30Z</time>
      </trkpt>
      <trkpt lat="48.7436" lon="7.3569">
        <ele>193.167114</ele>
        <time>2010-09-18T07:41:31Z</time>
      </trkpt>
      <trkpt lat="48.74367" lon="7.35686">
        <ele>193.405396</ele>
        <time>2010-09-18T07:41:32Z</time>
      </trkpt>
      <trkpt lat="48.74373" lon="7.35681">
        <ele>193.370239</ele>
        <time>2010-09-18T07:41:33Z</time>
      </trkpt>
      <trkpt lat="48.74379" lon="7.35676">
        <ele>193.499146</ele>
        <time>2010-09-18T07:41:34Z</time>
      </trkpt>
      <trkpt lat="48.74386" lon="7.35671">
        <ele>193.565552</ele>
        <time>2010-09-18T07:41:35Z</time>
      </trkpt>
      <trkpt lat="48.74391" lon="7.35665">
        <ele>193.870239</ele>
        <time>2010-09-18T07:41:36Z</time>
      </trkpt>
      <trkpt lat="48.74397" lon="7.35659">
        <ele>193.870239</ele>
        <time>2010-09-18T07:41:37Z</time>
      </trkpt>
      <trkpt lat="48.74403" lon="7.35653">
        <ele>193.819458</ele>
        <time>2010-09-18T07:41:38Z</time>
      </trkpt>
      <trkpt lat="48.74409" lon="7.35647">
        <ele>193.710083</ele>
        <time>2010-09-18T07:41:39Z</time>
      </trkpt>
      <trkpt lat="48.74415" lon="7.35642">
        <ele>193.651489</ele>
        <time>2010-09-18T07:41:40Z</time>
      </trkpt>
      <trkpt lat="48.74421" lon="7.35636">
        <ele>193.655396</ele>
        <time>2010-09-18T07:41:41Z</time>
      </trkpt>
      <trkpt lat="48.74427" lon="7.35631">
        <ele>193.866333</ele>
        <time>2010-09-18T07:41:42Z</time>
      </trkpt>
      <trkpt lat="48.74433" lon="7.35626">
        <ele>193.756958</ele>
        <time>2010-09-18T07:41:43Z</time>
      </trkpt>
      <trkpt lat="48.74439" lon="7.35621">
        <ele>193.725708</ele>
        <time>2010-09-18T07:41:44Z</time>
      </trkpt>
      <trkpt lat="48.74445" lon="7.35616">
        <ele>193.780396</ele>
        <time>2010-09-18T07:41:45Z</time>
      </trkpt>
      <trkpt lat="48.74451" lon="7.35613">
        <ele>193.815552</ele>
        <time>2010-09-18T07:41:46Z</time>
      </trkpt>
      <trkpt lat="48.74457" lon="7.3561">
        <ele>193.878052</ele>
        <time>2010-09-18T07:41:47Z</time>
      </trkpt>
      <trkpt lat="48.74463" lon="7.35606">
        <ele>194.049927</ele>
        <time>2010-09-18T07:41:48Z</time>
      </trkpt>
      <trkpt lat="48.74469" lon="7.35603">
        <ele>194.323364</ele>
        <time>2010-09-18T07:41:49Z</time>
      </trkpt>
      <trkpt lat="48.74475" lon="7.356">
        <ele>194.327271</ele>
        <time>2010-09-18T07:41:50Z</time>
      </trkpt>
      <trkpt lat="48.74482" lon="7.35597">
        <ele>194.280396</ele>
        <time>2010-09-18T07:41:51Z</time>
      </trkpt>
      <trkpt lat="48.74488" lon="7.35594">
        <ele>194.202271</ele>
        <time>2010-09-18T07:41:52Z</time>
      </trkpt>
      <trkpt lat="48.74494" lon="7.35591">
        <ele>194.284302</ele>
        <time>2010-09-18T07:41:53Z</time>
      </trkpt>
      <trkpt lat="48.745" lon="7.35589">
        <ele>194.475708</ele>
        <time>2010-09-18T07:41:54Z</time>
      </trkpt>
      <trkpt lat="48.74506" lon="7.35586">
        <ele>194.671021</ele>
        <time>2010-09-18T07:41:55Z</time>
      </trkpt>
      <trkpt lat="48.74512" lon="7.35583">
        <ele>194.612427</ele>
        <time>2010-09-18T07:41:56Z</time>
      </trkpt>
      <trkpt lat="48.74517" lon="7.3558">
        <ele>194.819458</ele>
        <time>2010-09-18T07:41:57Z</time>
      </trkpt>
      <trkpt lat="48.74522" lon="7.35577">
        <ele>195.253052</ele>
        <time>2010-09-18T07:41:58Z</time>
      </trkpt>
      <trkpt lat="48.74527" lon="7.35575">
        <ele>195.608521</ele>
        <time>2010-09-18T07:41:59Z</time>
      </trkpt>
      <trkpt lat="48.74532" lon="7.35573">
        <ele>195.788208</ele>
        <time>2010-09-18T07:42:00Z</time>
      </trkpt>
      <trkpt lat="48.74537" lon="7.35571">
        <ele>196.034302</ele>
        <time>2010-09-18T07:42:01Z</time>
      </trkpt>
      <trkpt lat="48.74541" lon="7.35569">
        <ele>196.210083</ele>
        <time>2010-09-18T07:42:02Z</time>
      </trkpt>
      <trkpt lat="48.74549" lon="7.35564">
        <ele>196.401489</ele>
        <time>2010-09-18T07:42:04Z</time>
      </trkpt>
      <trkpt lat="48.74558" lon="7.35561">
        <ele>196.831177</ele>
        <time>2010-09-18T07:42:06Z</time>
      </trkpt>
      <trkpt lat="48.74562" lon="7.35559">
        <ele>197.022583</ele>
        <time>2010-09-18T07:42:07Z</time>
      </trkpt>
      <trkpt lat="48.74571" lon="7.35556">
        <ele>197.612427</ele>
        <time>2010-09-18T07:42:09Z</time>
      </trkpt>
      <trkpt lat="48.74579" lon="7.35553">
        <ele>198.081177</ele>
        <time>2010-09-18T07:42:11Z</time>
      </trkpt>
      <trkpt lat="48.74584" lon="7.35552">
        <ele>198.413208</ele>
        <time>2010-09-18T07:42:12Z</time>
      </trkpt>
      <trkpt lat="48.74588" lon="7.3555">
        <ele>198.671021</ele>
        <time>2010-09-18T07:42:13Z</time>
      </trkpt>
      <trkpt lat="48.74593" lon="7.35548">
        <ele>198.870239</ele>
        <time>2010-09-18T07:42:14Z</time>
      </trkpt>
      <trkpt lat="48.74598" lon="7.35547">
        <ele>199.147583</ele>
        <time>2010-09-18T07:42:15Z</time>
      </trkpt>
      <trkpt lat="48.74603" lon="7.35545">
        <ele>199.401489</ele>
        <time>2010-09-18T07:42:16Z</time>
      </trkpt>
      <trkpt lat="48.74607" lon="7.35544">
        <ele>199.897583</ele>
        <time>2010-09-18T07:42:17Z</time>
      </trkpt>
      <trkpt lat="48.74612" lon="7.35541">
        <ele>200.147583</ele>
        <time>2010-09-18T07:42:18Z</time>
      </trkpt>
      <trkpt lat="48.74616" lon="7.35538">
        <ele>200.452271</ele>
        <time>2010-09-18T07:42:19Z</time>
      </trkpt>
      <trkpt lat="48.74623" lon="7.35532">
        <ele>201.026489</ele>
        <time>2010-09-18T07:42:21Z</time>
      </trkpt>
      <trkpt lat="48.74629" lon="7.35521">
        <ele>201.674927</ele>
        <time>2010-09-18T07:42:23Z</time>
      </trkpt>
      <trkpt lat="48.74631" lon="7.35515">
        <ele>202.034302</ele>
        <time>2010-09-18T07:42:24Z</time>
      </trkpt>
      <trkpt lat="48.74633" lon="7.35503">
        <ele>202.370239</ele>
        <time>2010-09-18T07:42:26Z</time>
      </trkpt>
      <trkpt lat="48.74635" lon="7.3549">
        <ele>203.010864</ele>
        <time>2010-09-18T07:42:28Z</time>
      </trkpt>
      <trkpt lat="48.74636" lon="7.35477">
        <ele>203.510864</ele>
        <time>2010-09-18T07:42:30Z</time>
      </trkpt>
      <trkpt lat="48.74637" lon="7.35465">
        <ele>203.979614</ele>
        <time>2010-09-18T07:42:32Z</time>
      </trkpt>
      <trkpt lat="48.74638" lon="7.35459">
        <ele>204.292114</ele>
        <time>2010-09-18T07:42:33Z</time>
      </trkpt>
      <trkpt lat="48.7464" lon="7.35445">
        <ele>204.483521</ele>
        <time>2010-09-18T07:42:35Z</time>
      </trkpt>
      <trkpt lat="48.74641" lon="7.35438">
        <ele>204.471802</ele>
        <time>2010-09-18T07:42:36Z</time>
      </trkpt>
      <trkpt lat="48.74643" lon="7.35432">
        <ele>204.764771</ele>
        <time>2010-09-18T07:42:37Z</time>
      </trkpt>
      <trkpt lat="48.74646" lon="7.35426">
        <ele>205.022583</ele>
        <time>2010-09-18T07:42:38Z</time>
      </trkpt>
      <trkpt lat="48.74649" lon="7.3542">
        <ele>205.139771</ele>
        <time>2010-09-18T07:42:39Z</time>
      </trkpt>
      <trkpt lat="48.74653" lon="7.35415">
        <ele>205.221802</ele>
        <time>2010-09-18T07:42:40Z</time>
      </trkpt>
      <trkpt lat="48.74656" lon="7.35411">
        <ele>205.331177</ele>
        <time>2010-09-18T07:42:41Z</time>
      </trkpt>
      <trkpt lat="48.74662" lon="7.35401">
        <ele>205.889771</ele>
        <time>2010-09-18T07:42:43Z</time>
      </trkpt>
      <trkpt lat="48.74666" lon="7.35397">
        <ele>206.053833</ele>
        <time>2010-09-18T07:42:44Z</time>
      </trkpt>
      <trkpt lat="48.74672" lon="7.35388">
        <ele>206.221802</ele>
        <time>2010-09-18T07:42:46Z</time>
      </trkpt>
      <trkpt lat="48.74678" lon="7.35378">
        <ele>206.631958</ele>
        <time>2010-09-18T07:42:48Z</time>
      </trkpt>
      <trkpt lat="48.74685" lon="7.35369">
        <ele>207.167114</ele>
        <time>2010-09-18T07:42:50Z</time>
      </trkpt>
      <trkpt lat="48.74692" lon="7.35359">
        <ele>207.768677</ele>
        <time>2010-09-18T07:42:52Z</time>
      </trkpt>
      <trkpt lat="48.74695" lon="7.35354">
        <ele>208.026489</ele>
        <time>2010-09-18T07:42:53Z</time>
      </trkpt>
      <trkpt lat="48.74702" lon="7.35346">
        <ele>208.440552</ele>
        <time>2010-09-18T07:42:55Z</time>
      </trkpt>
      <trkpt lat="48.74707" lon="7.35337">
        <ele>209.006958</ele>
        <time>2010-09-18T07:42:57Z</time>
      </trkpt>
      <trkpt lat="48.74712" lon="7.35329">
        <ele>209.612427</ele>
        <time>2010-09-18T07:42:59Z</time>
      </trkpt>
      <trkpt lat="48.74717" lon="7.3532">
        <ele>210.362427</ele>
        <time>2010-09-18T07:43:01Z</time>
      </trkpt>
      <trkpt lat="48.74719" lon="7.35309">
        <ele>210.792114</ele>
        <time>2010-09-18T07:43:03Z</time>
      </trkpt>
      <trkpt lat="48.7472" lon="7.35297">
        <ele>211.362427</ele>
        <time>2010-09-18T07:43:05Z</time>
      </trkpt>
      <trkpt lat="48.7472" lon="7.35286">
        <ele>211.756958</ele>
        <time>2010-09-18T07:43:07Z</time>
      </trkpt>
      <trkpt lat="48.74721" lon="7.35275">
        <ele>211.975708</ele>
        <time>2010-09-18T07:43:09Z</time>
      </trkpt>
      <trkpt lat="48.74721" lon="7.35265">
        <ele>212.366333</ele>
        <time>2010-09-18T07:43:11Z</time>
      </trkpt>
      <trkpt lat="48.74721" lon="7.35255">
        <ele>212.811646</ele>
        <time>2010-09-18T07:43:13Z</time>
      </trkpt>
      <trkpt lat="48.74722" lon="7.35245">
        <ele>213.229614</ele>
        <time>2010-09-18T07:43:15Z</time>
      </trkpt>
      <trkpt lat="48.74722" lon="7.35237">
        <ele>213.635864</ele>
        <time>2010-09-18T07:43:17Z</time>
      </trkpt>
      <trkpt lat="48.74723" lon="7.35229">
        <ele>214.229614</ele>
        <time>2010-09-18T07:43:19Z</time>
      </trkpt>
      <trkpt lat="48.74723" lon="7.35218">
        <ele>214.772583</ele>
        <time>2010-09-18T07:43:22Z</time>
      </trkpt>
      <trkpt lat="48.74724" lon="7.35211">
        <ele>214.432739</ele>
        <time>2010-09-18T07:43:24Z</time>
      </trkpt>
      <trkpt lat="48.74725" lon="7.35202">
        <ele>214.604614</ele>
        <time>2010-09-18T07:43:26Z</time>
      </trkpt>
      <trkpt lat="48.74726" lon="7.35194">
        <ele>214.835083</ele>
        <time>2010-09-18T07:43:28Z</time>
      </trkpt>
      <trkpt lat="48.74727" lon="7.35186">
        <ele>215.756958</ele>
        <time>2010-09-18T07:43:30Z</time>
      </trkpt>
      <trkpt lat="48.74728" lon="7.35178">
        <ele>216.354614</ele>
        <time>2010-09-18T07:43:32Z</time>
      </trkpt>
      <trkpt lat="48.74728" lon="7.35171">
        <ele>216.667114</ele>
        <time>2010-09-18T07:43:34Z</time>
      </trkpt>
      <trkpt lat="48.74729" lon="7.35163">
        <ele>217.151489</ele>
        <time>2010-09-18T07:43:36Z</time>
      </trkpt>
      <trkpt lat="48.7473" lon="7.35156">
        <ele>217.401489</ele>
        <time>2010-09-18T07:43:38Z</time>
      </trkpt>
      <trkpt lat="48.74731" lon="7.35149">
        <ele>217.760864</ele>
        <time>2010-09-18T07:43:40Z</time>
      </trkpt>
      <trkpt lat="48.74732" lon="7.35142">
        <ele>218.171021</ele>
        <time>2010-09-18T07:43:42Z</time>
      </trkpt>
      <trkpt lat="48.74733" lon="7.35135">
        <ele>218.702271</ele>
        <time>2010-09-18T07:43:44Z</time>
      </trkpt>
      <trkpt lat="48.74734" lon="7.35128">
        <ele>219.557739</ele>
        <time>2010-09-18T07:43:46Z</time>
      </trkpt>
      <trkpt lat="48.74735" lon="7.35121">
        <ele>219.991333</ele>
        <time>2010-09-18T07:43:48Z</time>
      </trkpt>
      <trkpt lat="48.74737" lon="7.35114">
        <ele>220.452271</ele>
        <time>2010-09-18T07:43:50Z</time>
      </trkpt>
      <trkpt lat="48.74739" lon="7.35107">
        <ele>221.018677</ele>
        <time>2010-09-18T07:43:52Z</time>
      </trkpt>
      <trkpt lat="48.74742" lon="7.35101">
        <ele>221.495239</ele>
        <time>2010-09-18T07:43:54Z</time>
      </trkpt>
      <trkpt lat="48.74746" lon="7.35095">
        <ele>221.717896</ele>
        <time>2010-09-18T07:43:56Z</time>
      </trkpt>
      <trkpt lat="48.74751" lon="7.3509">
        <ele>222.159302</ele>
        <time>2010-09-18T07:43:58Z</time>
      </trkpt>
      <trkpt lat="48.74756" lon="7.35086">
        <ele>222.421021</ele>
        <time>2010-09-18T07:44:00Z</time>
      </trkpt>
      <trkpt lat="48.74761" lon="7.35084">
        <ele>222.768677</ele>
        <time>2010-09-18T07:44:02Z</time>
      </trkpt>
      <trkpt lat="48.74767" lon="7.35083">
        <ele>222.819458</ele>
        <time>2010-09-18T07:44:04Z</time>
      </trkpt>
      <trkpt lat="48.74772" lon="7.35083">
        <ele>222.585083</ele>
        <time>2010-09-18T07:44:06Z</time>
      </trkpt>
      <trkpt lat="48.74777" lon="7.35082">
        <ele>222.960083</ele>
        <time>2010-09-18T07:44:08Z</time>
      </trkpt>
      <trkpt lat="48.74783" lon="7.35082">
        <ele>223.112427</ele>
        <time>2010-09-18T07:44:10Z</time>
      </trkpt>
      <trkpt lat="48.74788" lon="7.35081">
        <ele>223.319458</ele>
        <time>2010-09-18T07:44:12Z</time>
      </trkpt>
      <trkpt lat="48.74793" lon="7.35081">
        <ele>223.526489</ele>
        <time>2010-09-18T07:44:14Z</time>
      </trkpt>
      <trkpt lat="48.74798" lon="7.3508">
        <ele>223.960083</ele>
        <time>2010-09-18T07:44:16Z</time>
      </trkpt>
      <trkpt lat="48.74802" lon="7.3508">
        <ele>224.174927</ele>
        <time>2010-09-18T07:44:18Z</time>
      </trkpt>
      <trkpt lat="48.74808" lon="7.3508">
        <ele>224.358521</ele>
        <time>2010-09-18T07:44:20Z</time>
      </trkpt>
      <trkpt lat="48.74812" lon="7.3508">
        <ele>224.874146</ele>
        <time>2010-09-18T07:44:22Z</time>
      </trkpt>
      <trkpt lat="48.74819" lon="7.35079">
        <ele>225.858521</ele>
        <time>2010-09-18T07:44:25Z</time>
      </trkpt>
      <trkpt lat="48.74824" lon="7.35078">
        <ele>226.124146</ele>
        <time>2010-09-18T07:44:27Z</time>
      </trkpt>
      <trkpt lat="48.74829" lon="7.35077">
        <ele>226.483521</ele>
        <time>2010-09-18T07:44:29Z</time>
      </trkpt>
      <trkpt lat="48.74834" lon="7.35076">
        <ele>226.788208</ele>
        <time>2010-09-18T07:44:31Z</time>
      </trkpt>
      <trkpt lat="48.74839" lon="7.35075">
        <ele>227.217896</ele>
        <time>2010-09-18T07:44:33Z</time>
      </trkpt>
      <trkpt lat="48.74845" lon="7.35074">
        <ele>227.651489</ele>
        <time>2010-09-18T07:44:35Z</time>
      </trkpt>
      <trkpt lat="48.74851" lon="7.35073">
        <ele>228.245239</ele>
        <time>2010-09-18T07:44:37Z</time>
      </trkpt>
      <trkpt lat="48.74857" lon="7.3507">
        <ele>228.686646</ele>
        <time>2010-09-18T07:44:39Z</time>
      </trkpt>
      <trkpt lat="48.74862" lon="7.35068">
        <ele>229.030396</ele>
        <time>2010-09-18T07:44:41Z</time>
      </trkpt>
      <trkpt lat="48.74867" lon="7.35066">
        <ele>229.296021</ele>
        <time>2010-09-18T07:44:43Z</time>
      </trkpt>
      <trkpt lat="48.74873" lon="7.35064">
        <ele>229.753052</ele>
        <time>2010-09-18T07:44:45Z</time>
      </trkpt>
      <trkpt lat="48.74879" lon="7.35063">
        <ele>229.850708</ele>
        <time>2010-09-18T07:44:47Z</time>
      </trkpt>
      <trkpt lat="48.74886" lon="7.35062">
        <ele>230.256958</ele>
        <time>2010-09-18T07:44:49Z</time>
      </trkpt>
      <trkpt lat="48.74891" lon="7.3506">
        <ele>230.663208</ele>
        <time>2010-09-18T07:44:51Z</time>
      </trkpt>
      <trkpt lat="48.74897" lon="7.35059">
        <ele>230.659302</ele>
        <time>2010-09-18T07:44:53Z</time>
      </trkpt>
      <trkpt lat="48.74902" lon="7.35057">
        <ele>231.038208</ele>
        <time>2010-09-18T07:44:55Z</time>
      </trkpt>
      <trkpt lat="48.74908" lon="7.3506">
        <ele>231.018677</ele>
        <time>2010-09-18T07:44:57Z</time>
      </trkpt>
      <trkpt lat="48.74913" lon="7.3507">
        <ele>230.444458</ele>
        <time>2010-09-18T07:44:59Z</time>
      </trkpt>
      <trkpt lat="48.74915" lon="7.35077">
        <ele>230.374146</ele>
        <time>2010-09-18T07:45:00Z</time>
      </trkpt>
      <trkpt lat="48.74917" lon="7.35085">
        <ele>229.960083</ele>
        <time>2010-09-18T07:45:01Z</time>
      </trkpt>
      <trkpt lat="48.74919" lon="7.35092">
        <ele>229.924927</ele>
        <time>2010-09-18T07:45:02Z</time>
      </trkpt>
      <trkpt lat="48.74921" lon="7.351">
        <ele>229.799927</ele>
        <time>2010-09-18T07:45:03Z</time>
      </trkpt>
      <trkpt lat="48.74925" lon="7.35107">
        <ele>229.569458</ele>
        <time>2010-09-18T07:45:04Z</time>
      </trkpt>
      <trkpt lat="48.74928" lon="7.35114">
        <ele>228.932739</ele>
        <time>2010-09-18T07:45:05Z</time>
      </trkpt>
      <trkpt lat="48.74932" lon="7.3512">
        <ele>228.620239</ele>
        <time>2010-09-18T07:45:06Z</time>
      </trkpt>
      <trkpt lat="48.74937" lon="7.35123">
        <ele>228.491333</ele>
        <time>2010-09-18T07:45:07Z</time>
      </trkpt>
      <trkpt lat="48.74943" lon="7.35124">
        <ele>228.299927</ele>
        <time>2010-09-18T07:45:08Z</time>
      </trkpt>
      <trkpt lat="48.74949" lon="7.35122">
        <ele>228.358521</ele>
        <time>2010-09-18T07:45:09Z</time>
      </trkpt>
      <trkpt lat="48.74953" lon="7.35118">
        <ele>228.495239</ele>
        <time>2010-09-18T07:45:10Z</time>
      </trkpt>
      <trkpt lat="48.74956" lon="7.35113">
        <ele>228.608521</ele>
        <time>2010-09-18T07:45:11Z</time>
      </trkpt>
      <trkpt lat="48.7496" lon="7.35109">
        <ele>228.659302</ele>
        <time>2010-09-18T07:45:12Z</time>
      </trkpt>
      <trkpt lat="48.74963" lon="7.35105">
        <ele>228.725708</ele>
        <time>2010-09-18T07:45:13Z</time>
      </trkpt>
      <trkpt lat="48.74966" lon="7.351">
        <ele>228.999146</ele>
        <time>2010-09-18T07:45:14Z</time>
      </trkpt>
      <trkpt lat="48.7497" lon="7.35095">
        <ele>229.362427</ele>
        <time>2010-09-18T07:45:15Z</time>
      </trkpt>
      <trkpt lat="48.74976" lon="7.35085">
        <ele>229.921021</ele>
        <time>2010-09-18T07:45:17Z</time>
      </trkpt>
      <trkpt lat="48.7498" lon="7.3508">
        <ele>230.346802</ele>
        <time>2010-09-18T07:45:18Z</time>
      </trkpt>
      <trkpt lat="48.74983" lon="7.35075">
        <ele>230.776489</ele>
        <time>2010-09-18T07:45:19Z</time>
      </trkpt>
      <trkpt lat="48.74989" lon="7.35065">
        <ele>231.229614</ele>
        <time>2010-09-18T07:45:21Z</time>
      </trkpt>
      <trkpt lat="48.74994" lon="7.35056">
        <ele>232.014771</ele>
        <time>2010-09-18T07:45:23Z</time>
      </trkpt>
      <trkpt lat="48.74999" lon="7.35047">
        <ele>232.788208</ele>
        <time>2010-09-18T07:45:25Z</time>
      </trkpt>
      <trkpt lat="48.75005" lon="7.35039">
        <ele>233.311646</ele>
        <time>2010-09-18T07:45:27Z</time>
      </trkpt>
      <trkpt lat="48.75011" lon="7.35031">
        <ele>233.503052</ele>
        <time>2010-09-18T07:45:29Z</time>
      </trkpt>
      <trkpt lat="48.75017" lon="7.35023">
        <ele>234.053833</ele>
        <time>2010-09-18T07:45:31Z</time>
      </trkpt>
      <trkpt lat="48.75024" lon="7.35016">
        <ele>234.202271</ele>
        <time>2010-09-18T07:45:33Z</time>
      </trkpt>
      <trkpt lat="48.75031" lon="7.3501">
        <ele>234.467896</ele>
        <time>2010-09-18T07:45:35Z</time>
      </trkpt>
      <trkpt lat="48.75038" lon="7.35005">
        <ele>234.760864</ele>
        <time>2010-09-18T07:45:37Z</time>
      </trkpt>
      <trkpt lat="48.75045" lon="7.35001">
        <ele>234.921021</ele>
        <time>2010-09-18T07:45:39Z</time>
      </trkpt>
      <trkpt lat="48.75052" lon="7.34996">
        <ele>235.229614</ele>
        <time>2010-09-18T07:45:41Z</time>
      </trkpt>
      <trkpt lat="48.75059" lon="7.34992">
        <ele>235.561646</ele>
        <time>2010-09-18T07:45:43Z</time>
      </trkpt>
      <trkpt lat="48.75065" lon="7.34988">
        <ele>237.268677</ele>
        <time>2010-09-18T07:45:45Z</time>
      </trkpt>
      <trkpt lat="48.75071" lon="7.34983">
        <ele>237.960083</ele>
        <time>2010-09-18T07:45:47Z</time>
      </trkpt>
      <trkpt lat="48.75077" lon="7.34978">
        <ele>238.620239</ele>
        <time>2010-09-18T07:45:49Z</time>
      </trkpt>
      <trkpt lat="48.75083" lon="7.34974">
        <ele>239.085083</ele>
        <time>2010-09-18T07:45:51Z</time>
      </trkpt>
      <trkpt lat="48.7509" lon="7.34971">
        <ele>239.296021</ele>
        <time>2010-09-18T07:45:53Z</time>
      </trkpt>
      <trkpt lat="48.75096" lon="7.34969">
        <ele>239.581177</ele>
        <time>2010-09-18T07:45:55Z</time>
      </trkpt>
      <trkpt lat="48.75102" lon="7.34968">
        <ele>240.085083</ele>
        <time>2010-09-18T07:45:57Z</time>
      </trkpt>
      <trkpt lat="48.75108" lon="7.34967">
        <ele>240.460083</ele>
        <time>2010-09-18T07:45:59Z</time>
      </trkpt>
      <trkpt lat="48.75115" lon="7.34967">
        <ele>240.874146</ele>
        <time>2010-09-18T07:46:01Z</time>
      </trkpt>
      <trkpt lat="48.75121" lon="7.34967">
        <ele>241.538208</ele>
        <time>2010-09-18T07:46:03Z</time>
      </trkpt>
      <trkpt lat="48.75128" lon="7.34969">
        <ele>241.952271</ele>
        <time>2010-09-18T07:46:05Z</time>
      </trkpt>
      <trkpt lat="48.75134" lon="7.34971">
        <ele>242.713989</ele>
        <time>2010-09-18T07:46:07Z</time>
      </trkpt>
      <trkpt lat="48.7514" lon="7.34972">
        <ele>243.401489</ele>
        <time>2010-09-18T07:46:09Z</time>
      </trkpt>
      <trkpt lat="48.75147" lon="7.34973">
        <ele>244.245239</ele>
        <time>2010-09-18T07:46:11Z</time>
      </trkpt>
      <trkpt lat="48.75152" lon="7.34974">
        <ele>245.112427</ele>
        <time>2010-09-18T07:46:13Z</time>
      </trkpt>
      <trkpt lat="48.75156" lon="7.34975">
        <ele>245.924927</ele>
        <time>2010-09-18T07:46:15Z</time>
      </trkpt>
      <trkpt lat="48.75161" lon="7.34974">
        <ele>246.772583</ele>
        <time>2010-09-18T07:46:17Z</time>
      </trkpt>
      <trkpt lat="48.75167" lon="7.34974">
        <ele>247.530396</ele>
        <time>2010-09-18T07:46:19Z</time>
      </trkpt>
      <trkpt lat="48.75171" lon="7.34973">
        <ele>248.565552</ele>
        <time>2010-09-18T07:46:21Z</time>
      </trkpt>
      <trkpt lat="48.75178" lon="7.34972">
        <ele>250.237427</ele>
        <time>2010-09-18T07:46:24Z</time>
      </trkpt>
      <trkpt lat="48.75182" lon="7.34969">
        <ele>250.381958</ele>
        <time>2010-09-18T07:46:26Z</time>
      </trkpt>
      <trkpt lat="48.75186" lon="7.34966">
        <ele>250.987427</ele>
        <time>2010-09-18T07:46:28Z</time>
      </trkpt>
      <trkpt lat="48.7519" lon="7.34963">
        <ele>250.577271</ele>
        <time>2010-09-18T07:46:30Z</time>
      </trkpt>
      <trkpt lat="48.75196" lon="7.34959">
        <ele>251.487427</ele>
        <time>2010-09-18T07:46:33Z</time>
      </trkpt>
      <trkpt lat="48.75201" lon="7.34955">
        <ele>252.237427</ele>
        <time>2010-09-18T07:46:36Z</time>
      </trkpt>
      <trkpt lat="48.75206" lon="7.34952">
        <ele>252.350708</ele>
        <time>2010-09-18T07:46:38Z</time>
      </trkpt>
      <trkpt lat="48.75212" lon="7.34947">
        <ele>252.104614</ele>
        <time>2010-09-18T07:46:41Z</time>
      </trkpt>
      <trkpt lat="48.75216" lon="7.34943">
        <ele>252.389771</ele>
        <time>2010-09-18T07:46:43Z</time>
      </trkpt>
      <trkpt lat="48.7522" lon="7.3494">
        <ele>251.729614</ele>
        <time>2010-09-18T07:46:45Z</time>
      </trkpt>
      <trkpt lat="48.75225" lon="7.34936">
        <ele>251.358521</ele>
        <time>2010-09-18T07:46:47Z</time>
      </trkpt>
      <trkpt lat="48.75229" lon="7.34933">
        <ele>251.389771</ele>
        <time>2010-09-18T07:46:49Z</time>
      </trkpt>
      <trkpt lat="48.75233" lon="7.34929">
        <ele>252.210083</ele>
        <time>2010-09-18T07:46:51Z</time>
      </trkpt>
      <trkpt lat="48.75238" lon="7.34925">
        <ele>252.784302</ele>
        <time>2010-09-18T07:46:53Z</time>
      </trkpt>
      <trkpt lat="48.75242" lon="7.34921">
        <ele>252.878052</ele>
        <time>2010-09-18T07:46:55Z</time>
      </trkpt>
      <trkpt lat="48.75247" lon="7.34915">
        <ele>253.249146</ele>
        <time>2010-09-18T07:46:58Z</time>
      </trkpt>
      <trkpt lat="48.75252" lon="7.34912">
        <ele>253.475708</ele>
        <time>2010-09-18T07:47:00Z</time>
      </trkpt>
      <trkpt lat="48.75257" lon="7.34909">
        <ele>253.479614</ele>
        <time>2010-09-18T07:47:02Z</time>
      </trkpt>
      <trkpt lat="48.75263" lon="7.34906">
        <ele>253.393677</ele>
        <time>2010-09-18T07:47:04Z</time>
      </trkpt>
      <trkpt lat="48.75267" lon="7.34903">
        <ele>253.249146</ele>
        <time>2010-09-18T07:47:06Z</time>
      </trkpt>
      <trkpt lat="48.75274" lon="7.34901">
        <ele>253.167114</ele>
        <time>2010-09-18T07:47:08Z</time>
      </trkpt>
      <trkpt lat="48.7528" lon="7.34898">
        <ele>252.690552</ele>
        <time>2010-09-18T07:47:10Z</time>
      </trkpt>
      <trkpt lat="48.75287" lon="7.34894">
        <ele>252.479614</ele>
        <time>2010-09-18T07:47:12Z</time>
      </trkpt>
      <trkpt lat="48.75294" lon="7.34888">
        <ele>252.190552</ele>
        <time>2010-09-18T07:47:14Z</time>
      </trkpt>
      <trkpt lat="48.75301" lon="7.34882">
        <ele>251.956177</ele>
        <time>2010-09-18T07:47:16Z</time>
      </trkpt>
      <trkpt lat="48.75306" lon="7.34879">
        <ele>251.452271</ele>
        <time>2010-09-18T07:47:17Z</time>
      </trkpt>
      <trkpt lat="48.7531" lon="7.34876">
        <ele>251.241333</ele>
        <time>2010-09-18T07:47:18Z</time>
      </trkpt>
      <trkpt lat="48.75314" lon="7.34874">
        <ele>250.827271</ele>
        <time>2010-09-18T07:47:19Z</time>
      </trkpt>
      <trkpt lat="48.75319" lon="7.3487">
        <ele>250.581177</ele>
        <time>2010-09-18T07:47:20Z</time>
      </trkpt>
      <trkpt lat="48.75324" lon="7.34867">
        <ele>250.139771</ele>
        <time>2010-09-18T07:47:21Z</time>
      </trkpt>
      <trkpt lat="48.75328" lon="7.34863">
        <ele>249.885864</ele>
        <time>2010-09-18T07:47:22Z</time>
      </trkpt>
      <trkpt lat="48.75333" lon="7.34859">
        <ele>249.542114</ele>
        <time>2010-09-18T07:47:23Z</time>
      </trkpt>
      <trkpt lat="48.75338" lon="7.34854">
        <ele>249.112427</ele>
        <time>2010-09-18T07:47:24Z</time>
      </trkpt>
      <trkpt lat="48.75343" lon="7.3485">
        <ele>248.725708</ele>
        <time>2010-09-18T07:47:25Z</time>
      </trkpt>
      <trkpt lat="48.75347" lon="7.34845">
        <ele>248.167114</ele>
        <time>2010-09-18T07:47:26Z</time>
      </trkpt>
      <trkpt lat="48.75351" lon="7.34842">
        <ele>247.948364</ele>
        <time>2010-09-18T07:47:27Z</time>
      </trkpt>
      <trkpt lat="48.75355" lon="7.34838">
        <ele>247.612427</ele>
        <time>2010-09-18T07:47:28Z</time>
      </trkpt>
      <trkpt lat="48.7536" lon="7.34834">
        <ele>247.186646</ele>
        <time>2010-09-18T07:47:29Z</time>
      </trkpt>
      <trkpt lat="48.75364" lon="7.3483">
        <ele>246.983521</ele>
        <time>2010-09-18T07:47:30Z</time>
      </trkpt>
      <trkpt lat="48.75369" lon="7.34826">
        <ele>246.581177</ele>
        <time>2010-09-18T07:47:31Z</time>
      </trkpt>
      <trkpt lat="48.75374" lon="7.34822">
        <ele>246.307739</ele>
        <time>2010-09-18T07:47:32Z</time>
      </trkpt>
      <trkpt lat="48.75378" lon="7.34819">
        <ele>245.991333</ele>
        <time>2010-09-18T07:47:33Z</time>
      </trkpt>
      <trkpt lat="48.75384" lon="7.34817">
        <ele>245.815552</ele>
        <time>2010-09-18T07:47:34Z</time>
      </trkpt>
      <trkpt lat="48.75389" lon="7.34815">
        <ele>245.557739</ele>
        <time>2010-09-18T07:47:35Z</time>
      </trkpt>
      <trkpt lat="48.75394" lon="7.34814">
        <ele>245.069458</ele>
        <time>2010-09-18T07:47:36Z</time>
      </trkpt>
      <trkpt lat="48.754" lon="7.34812">
        <ele>244.729614</ele>
        <time>2010-09-18T07:47:37Z</time>
      </trkpt>
      <trkpt lat="48.75406" lon="7.34809">
        <ele>244.264771</ele>
        <time>2010-09-18T07:47:38Z</time>
      </trkpt>
      <trkpt lat="48.75412" lon="7.34807">
        <ele>244.440552</ele>
        <time>2010-09-18T07:47:39Z</time>
      </trkpt>
      <trkpt lat="48.75417" lon="7.34803">
        <ele>244.315552</ele>
        <time>2010-09-18T07:47:40Z</time>
      </trkpt>
      <trkpt lat="48.75421" lon="7.34798">
        <ele>244.221802</ele>
        <time>2010-09-18T07:47:41Z</time>
      </trkpt>
      <trkpt lat="48.75425" lon="7.34794">
        <ele>244.213989</ele>
        <time>2010-09-18T07:47:42Z</time>
      </trkpt>
      <trkpt lat="48.7543" lon="7.34789">
        <ele>244.088989</ele>
        <time>2010-09-18T07:47:43Z</time>
      </trkpt>
      <trkpt lat="48.75433" lon="7.34783">
        <ele>244.073364</ele>
        <time>2010-09-18T07:47:44Z</time>
      </trkpt>
      <trkpt lat="48.75437" lon="7.34778">
        <ele>244.042114</ele>
        <time>2010-09-18T07:47:45Z</time>
      </trkpt>
      <trkpt lat="48.7544" lon="7.34773">
        <ele>244.026489</ele>
        <time>2010-09-18T07:47:46Z</time>
      </trkpt>
      <trkpt lat="48.75444" lon="7.34769">
        <ele>243.971802</ele>
        <time>2010-09-18T07:47:47Z</time>
      </trkpt>
      <trkpt lat="48.75448" lon="7.34764">
        <ele>244.096802</ele>
        <time>2010-09-18T07:47:48Z</time>
      </trkpt>
      <trkpt lat="48.75451" lon="7.34759">
        <ele>244.167114</ele>
        <time>2010-09-18T07:47:49Z</time>
      </trkpt>
      <trkpt lat="48.75455" lon="7.34754">
        <ele>244.288208</ele>
        <time>2010-09-18T07:47:50Z</time>
      </trkpt>
      <trkpt lat="48.75458" lon="7.34749">
        <ele>244.280396</ele>
        <time>2010-09-18T07:47:51Z</time>
      </trkpt>
      <trkpt lat="48.75465" lon="7.3474">
        <ele>244.768677</ele>
        <time>2010-09-18T07:47:53Z</time>
      </trkpt>
      <trkpt lat="48.75471" lon="7.34733">
        <ele>245.596802</ele>
        <time>2010-09-18T07:47:55Z</time>
      </trkpt>
      <trkpt lat="48.75477" lon="7.34726">
        <ele>245.881958</ele>
        <time>2010-09-18T07:47:57Z</time>
      </trkpt>
      <trkpt lat="48.75483" lon="7.3472">
        <ele>245.796021</ele>
        <time>2010-09-18T07:47:59Z</time>
      </trkpt>
      <trkpt lat="48.75487" lon="7.34715">
        <ele>245.889771</ele>
        <time>2010-09-18T07:48:01Z</time>
      </trkpt>
      <trkpt lat="48.75491" lon="7.34709">
        <ele>246.276489</ele>
        <time>2010-09-18T07:48:03Z</time>
      </trkpt>
      <trkpt lat="48.75491" lon="7.34699">
        <ele>246.737427</ele>
        <time>2010-09-18T07:48:06Z</time>
      </trkpt>
      <trkpt lat="48.75489" lon="7.34692">
        <ele>247.151489</ele>
        <time>2010-09-18T07:48:08Z</time>
      </trkpt>
      <trkpt lat="48.75487" lon="7.34683">
        <ele>247.385864</ele>
        <time>2010-09-18T07:48:10Z</time>
      </trkpt>
      <trkpt lat="48.75485" lon="7.34675">
        <ele>247.557739</ele>
        <time>2010-09-18T07:48:12Z</time>
      </trkpt>
      <trkpt lat="48.75482" lon="7.34666">
        <ele>247.936646</ele>
        <time>2010-09-18T07:48:14Z</time>
      </trkpt>
      <trkpt lat="48.75481" lon="7.34657">
        <ele>248.354614</ele>
        <time>2010-09-18T07:48:16Z</time>
      </trkpt>
      <trkpt lat="48.75479" lon="7.34647">
        <ele>248.772583</ele>
        <time>2010-09-18T07:48:18Z</time>
      </trkpt>
      <trkpt lat="48.75477" lon="7.34637">
        <ele>248.952271</ele>
        <time>2010-09-18T07:48:20Z</time>
      </trkpt>
      <trkpt lat="48.75475" lon="7.34627">
        <ele>249.108521</ele>
        <time>2010-09-18T07:48:22Z</time>
      </trkpt>
      <trkpt lat="48.75472" lon="7.34617">
        <ele>249.655396</ele>
        <time>2010-09-18T07:48:24Z</time>
      </trkpt>
      <trkpt lat="48.75471" lon="7.34606">
        <ele>249.811646</ele>
        <time>2010-09-18T07:48:26Z</time>
      </trkpt>
      <trkpt lat="48.7547" lon="7.34595">
        <ele>250.284302</ele>
        <time>2010-09-18T07:48:28Z</time>
      </trkpt>
      <trkpt lat="48.75468" lon="7.34584">
        <ele>250.635864</ele>
        <time>2010-09-18T07:48:30Z</time>
      </trkpt>
      <trkpt lat="48.75465" lon="7.34574">
        <ele>251.385864</ele>
        <time>2010-09-18T07:48:32Z</time>
      </trkpt>
      <trkpt lat="48.75462" lon="7.34564">
        <ele>252.432739</ele>
        <time>2010-09-18T07:48:34Z</time>
      </trkpt>
      <trkpt lat="48.7546" lon="7.34554">
        <ele>252.991333</ele>
        <time>2010-09-18T07:48:36Z</time>
      </trkpt>
      <trkpt lat="48.75457" lon="7.34546">
        <ele>253.518677</ele>
        <time>2010-09-18T07:48:38Z</time>
      </trkpt>
      <trkpt lat="48.75455" lon="7.34538">
        <ele>253.803833</ele>
        <time>2010-09-18T07:48:40Z</time>
      </trkpt>
      <trkpt lat="48.75453" lon="7.34529">
        <ele>254.299927</ele>
        <time>2010-09-18T07:48:42Z</time>
      </trkpt>
      <trkpt lat="48.75451" lon="7.3452">
        <ele>254.932739</ele>
        <time>2010-09-18T07:48:44Z</time>
      </trkpt>
      <trkpt lat="48.75451" lon="7.3451">
        <ele>255.272583</ele>
        <time>2010-09-18T07:48:46Z</time>
      </trkpt>
      <trkpt lat="48.75449" lon="7.345">
        <ele>255.592896</ele>
        <time>2010-09-18T07:48:48Z</time>
      </trkpt>
      <trkpt lat="48.75448" lon="7.3449">
        <ele>256.076416</ele>
        <time>2010-09-18T07:48:50Z</time>
      </trkpt>
      <trkpt lat="48.75448" lon="7.34481">
        <ele>256.498291</ele>
        <time>2010-09-18T07:48:52Z</time>
      </trkpt>
      <trkpt lat="48.75446" lon="7.34471">
        <ele>256.779541</ele>
        <time>2010-09-18T07:48:54Z</time>
      </trkpt>
      <trkpt lat="48.75445" lon="7.3446">
        <ele>256.888916</ele>
        <time>2010-09-18T07:48:56Z</time>
      </trkpt>
      <trkpt lat="48.75444" lon="7.3445">
        <ele>257.045166</ele>
        <time>2010-09-18T07:48:58Z</time>
      </trkpt>
      <trkpt lat="48.75443" lon="7.3444">
        <ele>257.302979</ele>
        <time>2010-09-18T07:49:00Z</time>
      </trkpt>
      <trkpt lat="48.75441" lon="7.34431">
        <ele>257.607666</ele>
        <time>2010-09-18T07:49:02Z</time>
      </trkpt>
      <trkpt lat="48.75438" lon="7.34422">
        <ele>257.615479</ele>
        <time>2010-09-18T07:49:04Z</time>
      </trkpt>
      <trkpt lat="48.75435" lon="7.34415">
        <ele>257.857666</ele>
        <time>2010-09-18T07:49:06Z</time>
      </trkpt>
      <trkpt lat="48.75431" lon="7.34408">
        <ele>257.927979</ele>
        <time>2010-09-18T07:49:08Z</time>
      </trkpt>
      <trkpt lat="48.75427" lon="7.34401">
        <ele>258.256104</ele>
        <time>2010-09-18T07:49:10Z</time>
      </trkpt>
      <trkpt lat="48.75422" lon="7.34395">
        <ele>258.834229</ele>
        <time>2010-09-18T07:49:12Z</time>
      </trkpt>
      <trkpt lat="48.75417" lon="7.3439">
        <ele>259.357666</ele>
        <time>2010-09-18T07:49:14Z</time>
      </trkpt>
      <trkpt lat="48.75413" lon="7.34385">
        <ele>260.037354</ele>
        <time>2010-09-18T07:49:16Z</time>
      </trkpt>
      <trkpt lat="48.7541" lon="7.3438">
        <ele>260.365479</ele>
        <time>2010-09-18T07:49:18Z</time>
      </trkpt>
      <trkpt lat="48.75406" lon="7.34375">
        <ele>260.896729</ele>
        <time>2010-09-18T07:49:20Z</time>
      </trkpt>
      <trkpt lat="48.75403" lon="7.3437">
        <ele>261.084229</ele>
        <time>2010-09-18T07:49:22Z</time>
      </trkpt>
      <trkpt lat="48.75399" lon="7.34365">
        <ele>261.388916</ele>
        <time>2010-09-18T07:49:24Z</time>
      </trkpt>
      <trkpt lat="48.75395" lon="7.3436">
        <ele>262.099854</ele>
        <time>2010-09-18T07:49:26Z</time>
      </trkpt>
      <trkpt lat="48.7539" lon="7.34357">
        <ele>262.779541</ele>
        <time>2010-09-18T07:49:28Z</time>
      </trkpt>
      <trkpt lat="48.75386" lon="7.34354">
        <ele>263.537354</ele>
        <time>2010-09-18T07:49:30Z</time>
      </trkpt>
      <trkpt lat="48.75382" lon="7.34351">
        <ele>264.217041</ele>
        <time>2010-09-18T07:49:32Z</time>
      </trkpt>
      <trkpt lat="48.75377" lon="7.3435">
        <ele>264.748291</ele>
        <time>2010-09-18T07:49:34Z</time>
      </trkpt>
      <trkpt lat="48.75372" lon="7.34353">
        <ele>264.888916</ele>
        <time>2010-09-18T07:49:37Z</time>
      </trkpt>
      <trkpt lat="48.75368" lon="7.34357">
        <ele>265.185791</ele>
        <time>2010-09-18T07:49:41Z</time>
      </trkpt>
      <trkpt lat="48.75363" lon="7.3436">
        <ele>265.373291</ele>
        <time>2010-09-18T07:49:45Z</time>
      </trkpt>
      <trkpt lat="48.75361" lon="7.34359">
        <ele>261.318604</ele>
        <time>2010-09-18T07:52:28Z</time>
      </trkpt>
      <trkpt lat="48.75365" lon="7.34364">
        <ele>262.427979</ele>
        <time>2010-09-18T07:53:41Z</time>
      </trkpt>
      <trkpt lat="48.75369" lon="7.34371">
        <ele>262.677979</ele>
        <time>2010-09-18T07:53:43Z</time>
      </trkpt>
      <trkpt lat="48.75372" lon="7.34381">
        <ele>262.506104</ele>
        <time>2010-09-18T07:53:45Z</time>
      </trkpt>
      <trkpt lat="48.75374" lon="7.34393">
        <ele>262.631104</ele>
        <time>2010-09-18T07:53:47Z</time>
      </trkpt>
      <trkpt lat="48.75376" lon="7.34406">
        <ele>263.560791</ele>
        <time>2010-09-18T07:53:49Z</time>
      </trkpt>
      <trkpt lat="48.75377" lon="7.34412">
        <ele>263.482666</ele>
        <time>2010-09-18T07:53:50Z</time>
      </trkpt>
      <trkpt lat="48.75379" lon="7.3442">
        <ele>263.435791</ele>
        <time>2010-09-18T07:53:51Z</time>
      </trkpt>
      <trkpt lat="48.75382" lon="7.34427">
        <ele>263.529541</ele>
        <time>2010-09-18T07:53:52Z</time>
      </trkpt>
      <trkpt lat="48.75383" lon="7.34435">
        <ele>263.537354</ele>
        <time>2010-09-18T07:53:53Z</time>
      </trkpt>
      <trkpt lat="48.75385" lon="7.34441">
        <ele>263.904541</ele>
        <time>2010-09-18T07:53:54Z</time>
      </trkpt>
      <trkpt lat="48.75386" lon="7.34448">
        <ele>264.310791</ele>
        <time>2010-09-18T07:53:55Z</time>
      </trkpt>
      <trkpt lat="48.75388" lon="7.34455">
        <ele>264.670166</ele>
        <time>2010-09-18T07:53:56Z</time>
      </trkpt>
      <trkpt lat="48.75388" lon="7.34462">
        <ele>265.154541</ele>
        <time>2010-09-18T07:53:57Z</time>
      </trkpt>
      <trkpt lat="48.7539" lon="7.34469">
        <ele>265.029541</ele>
        <time>2010-09-18T07:53:58Z</time>
      </trkpt>
      <trkpt lat="48.75395" lon="7.34481">
        <ele>263.131104</ele>
        <time>2010-09-18T07:54:00Z</time>
      </trkpt>
      <trkpt lat="48.75398" lon="7.34488">
        <ele>262.256104</ele>
        <time>2010-09-18T07:54:01Z</time>
      </trkpt>
      <trkpt lat="48.75399" lon="7.34495">
        <ele>261.849854</ele>
        <time>2010-09-18T07:54:02Z</time>
      </trkpt>
      <trkpt lat="48.75403" lon="7.34504">
        <ele>260.802979</ele>
        <time>2010-09-18T07:54:04Z</time>
      </trkpt>
      <trkpt lat="48.75407" lon="7.34511">
        <ele>260.084229</ele>
        <time>2010-09-18T07:54:18Z</time>
      </trkpt>
      <trkpt lat="48.75411" lon="7.34518">
        <ele>259.373291</ele>
        <time>2010-09-18T07:54:20Z</time>
      </trkpt>
      <trkpt lat="48.75415" lon="7.34529">
        <ele>258.388916</ele>
        <time>2010-09-18T07:54:22Z</time>
      </trkpt>
      <trkpt lat="48.75417" lon="7.34535">
        <ele>257.834229</ele>
        <time>2010-09-18T07:54:23Z</time>
      </trkpt>
      <trkpt lat="48.75422" lon="7.34547">
        <ele>257.013916</ele>
        <time>2010-09-18T07:54:25Z</time>
      </trkpt>
      <trkpt lat="48.75424" lon="7.34554">
        <ele>256.420166</ele>
        <time>2010-09-18T07:54:26Z</time>
      </trkpt>
      <trkpt lat="48.75427" lon="7.34565">
        <ele>255.659302</ele>
        <time>2010-09-18T07:54:28Z</time>
      </trkpt>
      <trkpt lat="48.75429" lon="7.34577">
        <ele>255.780396</ele>
        <time>2010-09-18T07:54:30Z</time>
      </trkpt>
      <trkpt lat="48.75431" lon="7.34584">
        <ele>255.428833</ele>
        <time>2010-09-18T07:54:31Z</time>
      </trkpt>
      <trkpt lat="48.75433" lon="7.34591">
        <ele>255.296021</ele>
        <time>2010-09-18T07:54:32Z</time>
      </trkpt>
      <trkpt lat="48.75436" lon="7.34597">
        <ele>255.104614</ele>
        <time>2010-09-18T07:54:33Z</time>
      </trkpt>
      <trkpt lat="48.7544" lon="7.34604">
        <ele>254.796021</ele>
        <time>2010-09-18T07:54:34Z</time>
      </trkpt>
      <trkpt lat="48.75443" lon="7.34611">
        <ele>254.499146</ele>
        <time>2010-09-18T07:54:35Z</time>
      </trkpt>
      <trkpt lat="48.75446" lon="7.34618">
        <ele>254.374146</ele>
        <time>2010-09-18T07:54:36Z</time>
      </trkpt>
      <trkpt lat="48.75449" lon="7.34625">
        <ele>254.421021</ele>
        <time>2010-09-18T07:54:37Z</time>
      </trkpt>
      <trkpt lat="48.75453" lon="7.34632">
        <ele>254.143677</ele>
        <time>2010-09-18T07:54:38Z</time>
      </trkpt>
      <trkpt lat="48.75457" lon="7.34638">
        <ele>253.889771</ele>
        <time>2010-09-18T07:54:39Z</time>
      </trkpt>
      <trkpt lat="48.7546" lon="7.34645">
        <ele>253.893677</ele>
        <time>2010-09-18T07:54:40Z</time>
      </trkpt>
      <trkpt lat="48.75464" lon="7.34651">
        <ele>253.784302</ele>
        <time>2010-09-18T07:54:41Z</time>
      </trkpt>
      <trkpt lat="48.75468" lon="7.34658">
        <ele>253.596802</ele>
        <time>2010-09-18T07:54:42Z</time>
      </trkpt>
      <trkpt lat="48.75472" lon="7.34666">
        <ele>253.409302</ele>
        <time>2010-09-18T07:54:43Z</time>
      </trkpt>
      <trkpt lat="48.75475" lon="7.34673">
        <ele>253.401489</ele>
        <time>2010-09-18T07:54:44Z</time>
      </trkpt>
      <trkpt lat="48.75478" lon="7.34681">
        <ele>253.448364</ele>
        <time>2010-09-18T07:54:45Z</time>
      </trkpt>
      <trkpt lat="48.75481" lon="7.34689">
        <ele>252.663208</ele>
        <time>2010-09-18T07:54:46Z</time>
      </trkpt>
      <trkpt lat="48.75484" lon="7.34697">
        <ele>252.401489</ele>
        <time>2010-09-18T07:54:47Z</time>
      </trkpt>
      <trkpt lat="48.75485" lon="7.34704">
        <ele>252.475708</ele>
        <time>2010-09-18T07:54:48Z</time>
      </trkpt>
      <trkpt lat="48.75487" lon="7.34711">
        <ele>252.319458</ele>
        <time>2010-09-18T07:54:49Z</time>
      </trkpt>
      <trkpt lat="48.75489" lon="7.34717">
        <ele>252.303833</ele>
        <time>2010-09-18T07:54:50Z</time>
      </trkpt>
      <trkpt lat="48.75492" lon="7.34723">
        <ele>252.124146</ele>
        <time>2010-09-18T07:54:51Z</time>
      </trkpt>
      <trkpt lat="48.75495" lon="7.34729">
        <ele>251.909302</ele>
        <time>2010-09-18T07:54:52Z</time>
      </trkpt>
      <trkpt lat="48.75498" lon="7.34734">
        <ele>251.612427</ele>
        <time>2010-09-18T07:54:53Z</time>
      </trkpt>
      <trkpt lat="48.75502" lon="7.3474">
        <ele>251.432739</ele>
        <time>2010-09-18T07:54:54Z</time>
      </trkpt>
      <trkpt lat="48.75505" lon="7.34746">
        <ele>251.409302</ele>
        <time>2010-09-18T07:54:55Z</time>
      </trkpt>
      <trkpt lat="48.75509" lon="7.34752">
        <ele>251.245239</ele>
        <time>2010-09-18T07:54:56Z</time>
      </trkpt>
      <trkpt lat="48.75513" lon="7.34758">
        <ele>251.272583</ele>
        <time>2010-09-18T07:54:57Z</time>
      </trkpt>
      <trkpt lat="48.75517" lon="7.34764">
        <ele>251.096802</ele>
        <time>2010-09-18T07:54:58Z</time>
      </trkpt>
      <trkpt lat="48.75521" lon="7.3477">
        <ele>251.202271</ele>
        <time>2010-09-18T07:54:59Z</time>
      </trkpt>
      <trkpt lat="48.75525" lon="7.34775">
        <ele>251.213989</ele>
        <time>2010-09-18T07:55:00Z</time>
      </trkpt>
      <trkpt lat="48.75529" lon="7.34782">
        <ele>251.206177</ele>
        <time>2010-09-18T07:55:01Z</time>
      </trkpt>
      <trkpt lat="48.75533" lon="7.34788">
        <ele>251.405396</ele>
        <time>2010-09-18T07:55:02Z</time>
      </trkpt>
      <trkpt lat="48.75537" lon="7.34794">
        <ele>251.471802</ele>
        <time>2010-09-18T07:55:03Z</time>
      </trkpt>
      <trkpt lat="48.75542" lon="7.348">
        <ele>251.452271</ele>
        <time>2010-09-18T07:55:04Z</time>
      </trkpt>
      <trkpt lat="48.75546" lon="7.34806">
        <ele>251.354614</ele>
        <time>2010-09-18T07:55:05Z</time>
      </trkpt>
      <trkpt lat="48.75551" lon="7.34813">
        <ele>251.342896</ele>
        <time>2010-09-18T07:55:06Z</time>
      </trkpt>
      <trkpt lat="48.75555" lon="7.34819">
        <ele>251.370239</ele>
        <time>2010-09-18T07:55:07Z</time>
      </trkpt>
      <trkpt lat="48.7556" lon="7.34826">
        <ele>250.956177</ele>
        <time>2010-09-18T07:55:08Z</time>
      </trkpt>
      <trkpt lat="48.75564" lon="7.34833">
        <ele>250.963989</ele>
        <time>2010-09-18T07:55:09Z</time>
      </trkpt>
      <trkpt lat="48.75567" lon="7.34841">
        <ele>250.854614</ele>
        <time>2010-09-18T07:55:10Z</time>
      </trkpt>
      <trkpt lat="48.75571" lon="7.34849">
        <ele>250.686646</ele>
        <time>2010-09-18T07:55:11Z</time>
      </trkpt>
      <trkpt lat="48.75575" lon="7.34857">
        <ele>249.780396</ele>
        <time>2010-09-18T07:55:12Z</time>
      </trkpt>
      <trkpt lat="48.75578" lon="7.34866">
        <ele>249.546021</ele>
        <time>2010-09-18T07:55:13Z</time>
      </trkpt>
      <trkpt lat="48.75581" lon="7.34875">
        <ele>248.620239</ele>
        <time>2010-09-18T07:55:14Z</time>
      </trkpt>
      <trkpt lat="48.75584" lon="7.34884">
        <ele>248.452271</ele>
        <time>2010-09-18T07:55:15Z</time>
      </trkpt>
      <trkpt lat="48.75587" lon="7.34893">
        <ele>248.155396</ele>
        <time>2010-09-18T07:55:16Z</time>
      </trkpt>
      <trkpt lat="48.75589" lon="7.34903">
        <ele>247.960083</ele>
        <time>2010-09-18T07:55:17Z</time>
      </trkpt>
      <trkpt lat="48.75592" lon="7.34911">
        <ele>247.799927</ele>
        <time>2010-09-18T07:55:18Z</time>
      </trkpt>
      <trkpt lat="48.75594" lon="7.34921">
        <ele>247.628052</ele>
        <time>2010-09-18T07:55:19Z</time>
      </trkpt>
      <trkpt lat="48.75596" lon="7.3493">
        <ele>247.448364</ele>
        <time>2010-09-18T07:55:20Z</time>
      </trkpt>
      <trkpt lat="48.75598" lon="7.34939">
        <ele>247.065552</ele>
        <time>2010-09-18T07:55:21Z</time>
      </trkpt>
      <trkpt lat="48.756" lon="7.34948">
        <ele>246.768677</ele>
        <time>2010-09-18T07:55:22Z</time>
      </trkpt>
      <trkpt lat="48.75602" lon="7.34957">
        <ele>246.588989</ele>
        <time>2010-09-18T07:55:23Z</time>
      </trkpt>
      <trkpt lat="48.75605" lon="7.34966">
        <ele>246.409302</ele>
        <time>2010-09-18T07:55:24Z</time>
      </trkpt>
      <trkpt lat="48.75607" lon="7.34975">
        <ele>246.241333</ele>
        <time>2010-09-18T07:55:25Z</time>
      </trkpt>
      <trkpt lat="48.75609" lon="7.34984">
        <ele>245.963989</ele>
        <time>2010-09-18T07:55:26Z</time>
      </trkpt>
      <trkpt lat="48.75611" lon="7.34994">
        <ele>245.530396</ele>
        <time>2010-09-18T07:55:27Z</time>
      </trkpt>
      <trkpt lat="48.75612" lon="7.35004">
        <ele>245.171021</ele>
        <time>2010-09-18T07:55:28Z</time>
      </trkpt>
      <trkpt lat="48.75613" lon="7.35014">
        <ele>244.823364</ele>
        <time>2010-09-18T07:55:29Z</time>
      </trkpt>
      <trkpt lat="48.75615" lon="7.35024">
        <ele>244.463989</ele>
        <time>2010-09-18T07:55:30Z</time>
      </trkpt>
      <trkpt lat="48.75617" lon="7.35034">
        <ele>244.065552</ele>
        <time>2010-09-18T07:55:31Z</time>
      </trkpt>
      <trkpt lat="48.75618" lon="7.35045">
        <ele>243.655396</ele>
        <time>2010-09-18T07:55:32Z</time>
      </trkpt>
      <trkpt lat="48.7562" lon="7.35055">
        <ele>243.389771</ele>
        <time>2010-09-18T07:55:33Z</time>
      </trkpt>
      <trkpt lat="48.75622" lon="7.35065">
        <ele>243.026489</ele>
        <time>2010-09-18T07:55:34Z</time>
      </trkpt>
      <trkpt lat="48.75625" lon="7.35075">
        <ele>242.585083</ele>
        <time>2010-09-18T07:55:35Z</time>
      </trkpt>
      <trkpt lat="48.75626" lon="7.35085">
        <ele>242.155396</ele>
        <time>2010-09-18T07:55:36Z</time>
      </trkpt>
      <trkpt lat="48.75628" lon="7.35095">
        <ele>241.518677</ele>
        <time>2010-09-18T07:55:37Z</time>
      </trkpt>
      <trkpt lat="48.75629" lon="7.35105">
        <ele>241.092896</ele>
        <time>2010-09-18T07:55:38Z</time>
      </trkpt>
      <trkpt lat="48.75629" lon="7.35113">
        <ele>240.671021</ele>
        <time>2010-09-18T07:55:39Z</time>
      </trkpt>
      <trkpt lat="48.75631" lon="7.35121">
        <ele>240.128052</ele>
        <time>2010-09-18T07:55:40Z</time>
      </trkpt>
      <trkpt lat="48.75631" lon="7.35129">
        <ele>239.596802</ele>
        <time>2010-09-18T07:55:41Z</time>
      </trkpt>
      <trkpt lat="48.75633" lon="7.3514">
        <ele>239.393677</ele>
        <time>2010-09-18T07:55:43Z</time>
      </trkpt>
      <trkpt lat="48.75638" lon="7.35149">
        <ele>239.299927</ele>
        <time>2010-09-18T07:55:45Z</time>
      </trkpt>
      <trkpt lat="48.75645" lon="7.3515">
        <ele>238.866333</ele>
        <time>2010-09-18T07:55:47Z</time>
      </trkpt>
      <trkpt lat="48.75654" lon="7.35149">
        <ele>239.288208</ele>
        <time>2010-09-18T07:55:49Z</time>
      </trkpt>
      <trkpt lat="48.75659" lon="7.35148">
        <ele>239.331177</ele>
        <time>2010-09-18T07:55:50Z</time>
      </trkpt>
      <trkpt lat="48.75663" lon="7.35148">
        <ele>239.233521</ele>
        <time>2010-09-18T07:55:51Z</time>
      </trkpt>
      <trkpt lat="48.75672" lon="7.35148">
        <ele>239.331177</ele>
        <time>2010-09-18T07:55:53Z</time>
      </trkpt>
      <trkpt lat="48.75677" lon="7.35149">
        <ele>239.260864</ele>
        <time>2010-09-18T07:55:54Z</time>
      </trkpt>
      <trkpt lat="48.75681" lon="7.3515">
        <ele>239.202271</ele>
        <time>2010-09-18T07:55:55Z</time>
      </trkpt>
      <trkpt lat="48.7569" lon="7.3515">
        <ele>238.878052</ele>
        <time>2010-09-18T07:55:57Z</time>
      </trkpt>
      <trkpt lat="48.75695" lon="7.35149">
        <ele>238.772583</ele>
        <time>2010-09-18T07:55:58Z</time>
      </trkpt>
      <trkpt lat="48.757" lon="7.35148">
        <ele>238.733521</ele>
        <time>2010-09-18T07:55:59Z</time>
      </trkpt>
      <trkpt lat="48.75705" lon="7.35146">
        <ele>238.506958</ele>
        <time>2010-09-18T07:56:00Z</time>
      </trkpt>
      <trkpt lat="48.7571" lon="7.35144">
        <ele>238.202271</ele>
        <time>2010-09-18T07:56:01Z</time>
      </trkpt>
      <trkpt lat="48.75715" lon="7.35141">
        <ele>237.881958</ele>
        <time>2010-09-18T07:56:02Z</time>
      </trkpt>
      <trkpt lat="48.75721" lon="7.35137">
        <ele>237.549927</ele>
        <time>2010-09-18T07:56:03Z</time>
      </trkpt>
      <trkpt lat="48.75726" lon="7.35133">
        <ele>237.303833</ele>
        <time>2010-09-18T07:56:04Z</time>
      </trkpt>
      <trkpt lat="48.75731" lon="7.35129">
        <ele>236.932739</ele>
        <time>2010-09-18T07:56:05Z</time>
      </trkpt>
      <trkpt lat="48.75736" lon="7.35124">
        <ele>236.585083</ele>
        <time>2010-09-18T07:56:06Z</time>
      </trkpt>
      <trkpt lat="48.75742" lon="7.3512">
        <ele>235.799927</ele>
        <time>2010-09-18T07:56:07Z</time>
      </trkpt>
      <trkpt lat="48.75748" lon="7.35116">
        <ele>235.534302</ele>
        <time>2010-09-18T07:56:08Z</time>
      </trkpt>
      <trkpt lat="48.75753" lon="7.35111">
        <ele>235.022583</ele>
        <time>2010-09-18T07:56:09Z</time>
      </trkpt>
      <trkpt lat="48.7576" lon="7.35106">
        <ele>234.663208</ele>
        <time>2010-09-18T07:56:10Z</time>
      </trkpt>
      <trkpt lat="48.75766" lon="7.35102">
        <ele>234.112427</ele>
        <time>2010-09-18T07:56:11Z</time>
      </trkpt>
      <trkpt lat="48.75772" lon="7.35096">
        <ele>233.510864</ele>
        <time>2010-09-18T07:56:12Z</time>
      </trkpt>
      <trkpt lat="48.75778" lon="7.35091">
        <ele>233.100708</ele>
        <time>2010-09-18T07:56:13Z</time>
      </trkpt>
      <trkpt lat="48.75785" lon="7.35087">
        <ele>232.792114</ele>
        <time>2010-09-18T07:56:14Z</time>
      </trkpt>
      <trkpt lat="48.75792" lon="7.35082">
        <ele>232.561646</ele>
        <time>2010-09-18T07:56:15Z</time>
      </trkpt>
      <trkpt lat="48.75798" lon="7.35078">
        <ele>232.241333</ele>
        <time>2010-09-18T07:56:16Z</time>
      </trkpt>
      <trkpt lat="48.75805" lon="7.35076">
        <ele>231.577271</ele>
        <time>2010-09-18T07:56:17Z</time>
      </trkpt>
      <trkpt lat="48.75813" lon="7.35073">
        <ele>231.120239</ele>
        <time>2010-09-18T07:56:18Z</time>
      </trkpt>
      <trkpt lat="48.7582" lon="7.35072">
        <ele>230.538208</ele>
        <time>2010-09-18T07:56:19Z</time>
      </trkpt>
      <trkpt lat="48.75828" lon="7.35071">
        <ele>229.831177</ele>
        <time>2010-09-18T07:56:20Z</time>
      </trkpt>
      <trkpt lat="48.75836" lon="7.35069">
        <ele>229.381958</ele>
        <time>2010-09-18T07:56:21Z</time>
      </trkpt>
      <trkpt lat="48.75844" lon="7.35067">
        <ele>229.042114</ele>
        <time>2010-09-18T07:56:22Z</time>
      </trkpt>
      <trkpt lat="48.75851" lon="7.35065">
        <ele>228.655396</ele>
        <time>2010-09-18T07:56:23Z</time>
      </trkpt>
      <trkpt lat="48.75859" lon="7.35061">
        <ele>228.393677</ele>
        <time>2010-09-18T07:56:24Z</time>
      </trkpt>
      <trkpt lat="48.75866" lon="7.35056">
        <ele>228.288208</ele>
        <time>2010-09-18T07:56:25Z</time>
      </trkpt>
      <trkpt lat="48.75872" lon="7.3505">
        <ele>228.038208</ele>
        <time>2010-09-18T07:56:26Z</time>
      </trkpt>
      <trkpt lat="48.75878" lon="7.35043">
        <ele>227.948364</ele>
        <time>2010-09-18T07:56:27Z</time>
      </trkpt>
      <trkpt lat="48.75884" lon="7.35035">
        <ele>227.796021</ele>
        <time>2010-09-18T07:56:28Z</time>
      </trkpt>
      <trkpt lat="48.75888" lon="7.35026">
        <ele>227.440552</ele>
        <time>2010-09-18T07:56:29Z</time>
      </trkpt>
      <trkpt lat="48.75892" lon="7.35017">
        <ele>227.272583</ele>
        <time>2010-09-18T07:56:30Z</time>
      </trkpt>
      <trkpt lat="48.75895" lon="7.35007">
        <ele>227.147583</ele>
        <time>2010-09-18T07:56:31Z</time>
      </trkpt>
      <trkpt lat="48.75898" lon="7.34998">
        <ele>227.178833</ele>
        <time>2010-09-18T07:56:32Z</time>
      </trkpt>
      <trkpt lat="48.75901" lon="7.34988">
        <ele>227.385864</ele>
        <time>2010-09-18T07:56:33Z</time>
      </trkpt>
      <trkpt lat="48.75905" lon="7.34979">
        <ele>227.631958</ele>
        <time>2010-09-18T07:56:34Z</time>
      </trkpt>
      <trkpt lat="48.75908" lon="7.3497">
        <ele>227.557739</ele>
        <time>2010-09-18T07:56:35Z</time>
      </trkpt>
      <trkpt lat="48.7591" lon="7.3496">
        <ele>227.628052</ele>
        <time>2010-09-18T07:56:36Z</time>
      </trkpt>
      <trkpt lat="48.75913" lon="7.34951">
        <ele>227.663208</ele>
        <time>2010-09-18T07:56:37Z</time>
      </trkpt>
      <trkpt lat="48.75916" lon="7.34942">
        <ele>227.643677</ele>
        <time>2010-09-18T07:56:38Z</time>
      </trkpt>
      <trkpt lat="48.7592" lon="7.34933">
        <ele>227.862427</ele>
        <time>2010-09-18T07:56:39Z</time>
      </trkpt>
      <trkpt lat="48.75924" lon="7.34925">
        <ele>227.901489</ele>
        <time>2010-09-18T07:56:40Z</time>
      </trkpt>
      <trkpt lat="48.75928" lon="7.34916">
        <ele>227.760864</ele>
        <time>2010-09-18T07:56:41Z</time>
      </trkpt>
      <trkpt lat="48.75933" lon="7.34909">
        <ele>227.526489</ele>
        <time>2010-09-18T07:56:42Z</time>
      </trkpt>
      <trkpt lat="48.75937" lon="7.34901">
        <ele>227.424927</ele>
        <time>2010-09-18T07:56:43Z</time>
      </trkpt>
      <trkpt lat="48.75942" lon="7.34894">
        <ele>227.460083</ele>
        <time>2010-09-18T07:56:44Z</time>
      </trkpt>
      <trkpt lat="48.75946" lon="7.34886">
        <ele>227.503052</ele>
        <time>2010-09-18T07:56:45Z</time>
      </trkpt>
      <trkpt lat="48.75951" lon="7.34879">
        <ele>227.639771</ele>
        <time>2010-09-18T07:56:46Z</time>
      </trkpt>
      <trkpt lat="48.75955" lon="7.34873">
        <ele>227.655396</ele>
        <time>2010-09-18T07:56:47Z</time>
      </trkpt>
      <trkpt lat="48.75961" lon="7.34867">
        <ele>227.530396</ele>
        <time>2010-09-18T07:56:48Z</time>
      </trkpt>
      <trkpt lat="48.75966" lon="7.34861">
        <ele>227.506958</ele>
        <time>2010-09-18T07:56:49Z</time>
      </trkpt>
      <trkpt lat="48.75972" lon="7.34856">
        <ele>227.616333</ele>
        <time>2010-09-18T07:56:50Z</time>
      </trkpt>
      <trkpt lat="48.75979" lon="7.34852">
        <ele>227.999146</ele>
        <time>2010-09-18T07:56:51Z</time>
      </trkpt>
      <trkpt lat="48.75985" lon="7.34847">
        <ele>228.213989</ele>
        <time>2010-09-18T07:56:52Z</time>
      </trkpt>
      <trkpt lat="48.75991" lon="7.34843">
        <ele>228.335083</ele>
        <time>2010-09-18T07:56:53Z</time>
      </trkpt>
      <trkpt lat="48.75997" lon="7.3484">
        <ele>228.510864</ele>
        <time>2010-09-18T07:56:54Z</time>
      </trkpt>
      <trkpt lat="48.76003" lon="7.34838">
        <ele>228.463989</ele>
        <time>2010-09-18T07:56:55Z</time>
      </trkpt>
      <trkpt lat="48.7601" lon="7.34836">
        <ele>228.514771</ele>
        <time>2010-09-18T07:56:56Z</time>
      </trkpt>
      <trkpt lat="48.76016" lon="7.34836">
        <ele>228.569458</ele>
        <time>2010-09-18T07:56:57Z</time>
      </trkpt>
      <trkpt lat="48.76022" lon="7.34837">
        <ele>228.631958</ele>
        <time>2010-09-18T07:56:58Z</time>
      </trkpt>
      <trkpt lat="48.76028" lon="7.34839">
        <ele>228.913208</ele>
        <time>2010-09-18T07:56:59Z</time>
      </trkpt>
      <trkpt lat="48.76033" lon="7.34845">
        <ele>229.217896</ele>
        <time>2010-09-18T07:57:00Z</time>
      </trkpt>
      <trkpt lat="48.76037" lon="7.34851">
        <ele>229.463989</ele>
        <time>2010-09-18T07:57:01Z</time>
      </trkpt>
      <trkpt lat="48.76039" lon="7.34859">
        <ele>229.612427</ele>
        <time>2010-09-18T07:57:02Z</time>
      </trkpt>
      <trkpt lat="48.7604" lon="7.34867">
        <ele>229.737427</ele>
        <time>2010-09-18T07:57:03Z</time>
      </trkpt>
      <trkpt lat="48.7604" lon="7.34876">
        <ele>230.292114</ele>
        <time>2010-09-18T07:57:04Z</time>
      </trkpt>
      <trkpt lat="48.76038" lon="7.34884">
        <ele>230.565552</ele>
        <time>2010-09-18T07:57:05Z</time>
      </trkpt>
      <trkpt lat="48.76035" lon="7.34892">
        <ele>231.124146</ele>
        <time>2010-09-18T07:57:06Z</time>
      </trkpt>
      <trkpt lat="48.76032" lon="7.34899">
        <ele>231.600708</ele>
        <time>2010-09-18T07:57:07Z</time>
      </trkpt>
      <trkpt lat="48.76029" lon="7.34905">
        <ele>231.928833</ele>
        <time>2010-09-18T07:57:08Z</time>
      </trkpt>
      <trkpt lat="48.76026" lon="7.34911">
        <ele>232.268677</ele>
        <time>2010-09-18T07:57:09Z</time>
      </trkpt>
      <trkpt lat="48.76022" lon="7.34917">
        <ele>232.655396</ele>
        <time>2010-09-18T07:57:10Z</time>
      </trkpt>
      <trkpt lat="48.76019" lon="7.34922">
        <ele>233.053833</ele>
        <time>2010-09-18T07:57:11Z</time>
      </trkpt>
      <trkpt lat="48.76015" lon="7.34928">
        <ele>233.510864</ele>
        <time>2010-09-18T07:57:12Z</time>
      </trkpt>
      <trkpt lat="48.76011" lon="7.34934">
        <ele>233.971802</ele>
        <time>2010-09-18T07:57:13Z</time>
      </trkpt>
      <trkpt lat="48.76008" lon="7.3494">
        <ele>234.522583</ele>
        <time>2010-09-18T07:57:14Z</time>
      </trkpt>
      <trkpt lat="48.76005" lon="7.34945">
        <ele>234.643677</ele>
        <time>2010-09-18T07:57:15Z</time>
      </trkpt>
      <trkpt lat="48.76002" lon="7.3495">
        <ele>235.440552</ele>
        <time>2010-09-18T07:57:16Z</time>
      </trkpt>
      <trkpt lat="48.75999" lon="7.34955">
        <ele>235.827271</ele>
        <time>2010-09-18T07:57:17Z</time>
      </trkpt>
      <trkpt lat="48.75993" lon="7.34966">
        <ele>236.296021</ele>
        <time>2010-09-18T07:57:19Z</time>
      </trkpt>
      <trkpt lat="48.75991" lon="7.34971">
        <ele>236.799927</ele>
        <time>2010-09-18T07:57:20Z</time>
      </trkpt>
      <trkpt lat="48.75987" lon="7.34984">
        <ele>237.659302</ele>
        <time>2010-09-18T07:57:22Z</time>
      </trkpt>
      <trkpt lat="48.75984" lon="7.34997">
        <ele>238.381958</ele>
        <time>2010-09-18T07:57:24Z</time>
      </trkpt>
      <trkpt lat="48.75983" lon="7.3501">
        <ele>239.003052</ele>
        <time>2010-09-18T07:57:26Z</time>
      </trkpt>
      <trkpt lat="48.75985" lon="7.35022">
        <ele>239.710083</ele>
        <time>2010-09-18T07:57:28Z</time>
      </trkpt>
      <trkpt lat="48.75988" lon="7.35034">
        <ele>239.952271</ele>
        <time>2010-09-18T07:57:30Z</time>
      </trkpt>
      <trkpt lat="48.75991" lon="7.35045">
        <ele>239.975708</ele>
        <time>2010-09-18T07:57:32Z</time>
      </trkpt>
      <trkpt lat="48.75995" lon="7.35056">
        <ele>239.979614</ele>
        <time>2010-09-18T07:57:34Z</time>
      </trkpt>
      <trkpt lat="48.76" lon="7.35065">
        <ele>240.424927</ele>
        <time>2010-09-18T07:57:36Z</time>
      </trkpt>
      <trkpt lat="48.76004" lon="7.35074">
        <ele>241.182739</ele>
        <time>2010-09-18T07:57:38Z</time>
      </trkpt>
      <trkpt lat="48.76008" lon="7.35081">
        <ele>241.706177</ele>
        <time>2010-09-18T07:57:40Z</time>
      </trkpt>
      <trkpt lat="48.76012" lon="7.35089">
        <ele>242.135864</ele>
        <time>2010-09-18T07:57:42Z</time>
      </trkpt>
      <trkpt lat="48.76016" lon="7.35097">
        <ele>242.796021</ele>
        <time>2010-09-18T07:57:44Z</time>
      </trkpt>
      <trkpt lat="48.76021" lon="7.35103">
        <ele>243.967896</ele>
        <time>2010-09-18T07:57:46Z</time>
      </trkpt>
      <trkpt lat="48.76025" lon="7.35109">
        <ele>243.788208</ele>
        <time>2010-09-18T07:57:48Z</time>
      </trkpt>
      <trkpt lat="48.76029" lon="7.35114">
        <ele>243.948364</ele>
        <time>2010-09-18T07:57:50Z</time>
      </trkpt>
      <trkpt lat="48.76033" lon="7.3512">
        <ele>243.963989</ele>
        <time>2010-09-18T07:57:52Z</time>
      </trkpt>
      <trkpt lat="48.76037" lon="7.35125">
        <ele>245.276489</ele>
        <time>2010-09-18T07:57:54Z</time>
      </trkpt>
      <trkpt lat="48.76041" lon="7.3513">
        <ele>245.756958</ele>
        <time>2010-09-18T07:57:56Z</time>
      </trkpt>
      <trkpt lat="48.76045" lon="7.35134">
        <ele>245.893677</ele>
        <time>2010-09-18T07:57:58Z</time>
      </trkpt>
      <trkpt lat="48.76049" lon="7.35139">
        <ele>246.436646</ele>
        <time>2010-09-18T07:58:00Z</time>
      </trkpt>
      <trkpt lat="48.76053" lon="7.35144">
        <ele>246.921021</ele>
        <time>2010-09-18T07:58:02Z</time>
      </trkpt>
      <trkpt lat="48.76057" lon="7.3515">
        <ele>247.940552</ele>
        <time>2010-09-18T07:58:07Z</time>
      </trkpt>
      <trkpt lat="48.76064" lon="7.35152">
        <ele>248.733521</ele>
        <time>2010-09-18T07:58:10Z</time>
      </trkpt>
      <trkpt lat="48.76066" lon="7.3516">
        <ele>250.866333</ele>
        <time>2010-09-18T07:58:11Z</time>
      </trkpt>
      <trkpt lat="48.76072" lon="7.35164">
        <ele>249.628052</ele>
        <time>2010-09-18T07:58:13Z</time>
      </trkpt>
      <trkpt lat="48.76077" lon="7.35169">
        <ele>251.753052</ele>
        <time>2010-09-18T07:58:16Z</time>
      </trkpt>
      <trkpt lat="48.7608" lon="7.35174">
        <ele>252.104614</ele>
        <time>2010-09-18T07:58:18Z</time>
      </trkpt>
      <trkpt lat="48.76083" lon="7.35179">
        <ele>253.022583</ele>
        <time>2010-09-18T07:58:20Z</time>
      </trkpt>
      <trkpt lat="48.76086" lon="7.35185">
        <ele>253.694458</ele>
        <time>2010-09-18T07:58:22Z</time>
      </trkpt>
      <trkpt lat="48.7609" lon="7.3519">
        <ele>254.288208</ele>
        <time>2010-09-18T07:58:24Z</time>
      </trkpt>
      <trkpt lat="48.76094" lon="7.35194">
        <ele>255.276489</ele>
        <time>2010-09-18T07:58:26Z</time>
      </trkpt>
      <trkpt lat="48.76097" lon="7.352">
        <ele>255.612427</ele>
        <time>2010-09-18T07:58:28Z</time>
      </trkpt>
      <trkpt lat="48.76101" lon="7.35207">
        <ele>257.873291</ele>
        <time>2010-09-18T07:58:31Z</time>
      </trkpt>
      <trkpt lat="48.76104" lon="7.35213">
        <ele>256.810791</ele>
        <time>2010-09-18T07:58:33Z</time>
      </trkpt>
      <trkpt lat="48.76108" lon="7.3522">
        <ele>258.170166</ele>
        <time>2010-09-18T07:58:36Z</time>
      </trkpt>
      <trkpt lat="48.76111" lon="7.35227">
        <ele>259.740479</ele>
        <time>2010-09-18T07:58:39Z</time>
      </trkpt>
      <trkpt lat="48.76115" lon="7.35233">
        <ele>261.490479</ele>
        <time>2010-09-18T07:58:42Z</time>
      </trkpt>
      <trkpt lat="48.7612" lon="7.35241">
        <ele>262.146729</ele>
        <time>2010-09-18T07:58:45Z</time>
      </trkpt>
      <trkpt lat="48.76123" lon="7.35246">
        <ele>262.654541</ele>
        <time>2010-09-18T07:58:47Z</time>
      </trkpt>
      <trkpt lat="48.76128" lon="7.35253">
        <ele>263.084229</ele>
        <time>2010-09-18T07:58:50Z</time>
      </trkpt>
      <trkpt lat="48.76133" lon="7.35259">
        <ele>264.373291</ele>
        <time>2010-09-18T07:58:53Z</time>
      </trkpt>
      <trkpt lat="48.76138" lon="7.35264">
        <ele>264.638916</ele>
        <time>2010-09-18T07:58:56Z</time>
      </trkpt>
      <trkpt lat="48.76144" lon="7.35268">
        <ele>265.006104</ele>
        <time>2010-09-18T07:58:59Z</time>
      </trkpt>
      <trkpt lat="48.76149" lon="7.35272">
        <ele>265.365479</ele>
        <time>2010-09-18T07:59:02Z</time>
      </trkpt>
      <trkpt lat="48.76154" lon="7.35273">
        <ele>265.482666</ele>
        <time>2010-09-18T07:59:04Z</time>
      </trkpt>
      <trkpt lat="48.76159" lon="7.35274">
        <ele>265.693604</ele>
        <time>2010-09-18T07:59:06Z</time>
      </trkpt>
      <trkpt lat="48.76164" lon="7.35272">
        <ele>264.537354</ele>
        <time>2010-09-18T07:59:08Z</time>
      </trkpt>
      <trkpt lat="48.76169" lon="7.35273">
        <ele>264.560791</ele>
        <time>2010-09-18T07:59:10Z</time>
      </trkpt>
      <trkpt lat="48.76174" lon="7.35275">
        <ele>266.193604</ele>
        <time>2010-09-18T07:59:12Z</time>
      </trkpt>
      <trkpt lat="48.7618" lon="7.35277">
        <ele>267.107666</ele>
        <time>2010-09-18T07:59:15Z</time>
      </trkpt>
      <trkpt lat="48.76184" lon="7.35277">
        <ele>267.459229</ele>
        <time>2010-09-18T07:59:17Z</time>
      </trkpt>
      <trkpt lat="48.76189" lon="7.35278">
        <ele>267.513916</ele>
        <time>2010-09-18T07:59:19Z</time>
      </trkpt>
      <trkpt lat="48.76196" lon="7.35281">
        <ele>267.123291</ele>
        <time>2010-09-18T07:59:22Z</time>
      </trkpt>
      <trkpt lat="48.76201" lon="7.35282">
        <ele>266.084229</ele>
        <time>2010-09-18T07:59:24Z</time>
      </trkpt>
      <trkpt lat="48.76206" lon="7.35284">
        <ele>265.896729</ele>
        <time>2010-09-18T07:59:26Z</time>
      </trkpt>
      <trkpt lat="48.76211" lon="7.35286">
        <ele>265.732666</ele>
        <time>2010-09-18T07:59:28Z</time>
      </trkpt>
      <trkpt lat="48.76216" lon="7.35288">
        <ele>265.474854</ele>
        <time>2010-09-18T07:59:30Z</time>
      </trkpt>
      <trkpt lat="48.76221" lon="7.3529">
        <ele>265.529541</ele>
        <time>2010-09-18T07:59:32Z</time>
      </trkpt>
      <trkpt lat="48.76226" lon="7.35292">
        <ele>265.467041</ele>
        <time>2010-09-18T07:59:34Z</time>
      </trkpt>
      <trkpt lat="48.76231" lon="7.35294">
        <ele>265.443604</ele>
        <time>2010-09-18T07:59:36Z</time>
      </trkpt>
      <trkpt lat="48.76236" lon="7.35295">
        <ele>265.670166</ele>
        <time>2010-09-18T07:59:38Z</time>
      </trkpt>
      <trkpt lat="48.76241" lon="7.35297">
        <ele>265.873291</ele>
        <time>2010-09-18T07:59:40Z</time>
      </trkpt>
      <trkpt lat="48.76246" lon="7.35298">
        <ele>265.717041</ele>
        <time>2010-09-18T07:59:42Z</time>
      </trkpt>
      <trkpt lat="48.76251" lon="7.35299">
        <ele>265.662354</ele>
        <time>2010-09-18T07:59:44Z</time>
      </trkpt>
      <trkpt lat="48.76256" lon="7.353">
        <ele>265.849854</ele>
        <time>2010-09-18T07:59:46Z</time>
      </trkpt>
      <trkpt lat="48.76262" lon="7.35302">
        <ele>266.013916</ele>
        <time>2010-09-18T07:59:48Z</time>
      </trkpt>
      <trkpt lat="48.76267" lon="7.35303">
        <ele>265.888916</ele>
        <time>2010-09-18T07:59:50Z</time>
      </trkpt>
      <trkpt lat="48.76273" lon="7.35304">
        <ele>265.771729</ele>
        <time>2010-09-18T07:59:52Z</time>
      </trkpt>
      <trkpt lat="48.76279" lon="7.35305">
        <ele>266.006104</ele>
        <time>2010-09-18T07:59:54Z</time>
      </trkpt>
      <trkpt lat="48.76284" lon="7.35305">
        <ele>265.888916</ele>
        <time>2010-09-18T07:59:56Z</time>
      </trkpt>
      <trkpt lat="48.76291" lon="7.35305">
        <ele>265.763916</ele>
        <time>2010-09-18T07:59:58Z</time>
      </trkpt>
      <trkpt lat="48.76296" lon="7.35304">
        <ele>265.732666</ele>
        <time>2010-09-18T08:00:00Z</time>
      </trkpt>
      <trkpt lat="48.76302" lon="7.35304">
        <ele>265.685791</ele>
        <time>2010-09-18T08:00:02Z</time>
      </trkpt>
      <trkpt lat="48.76308" lon="7.35303">
        <ele>265.693604</ele>
        <time>2010-09-18T08:00:04Z</time>
      </trkpt>
      <trkpt lat="48.76315" lon="7.35303">
        <ele>265.443604</ele>
        <time>2010-09-18T08:00:06Z</time>
      </trkpt>
      <trkpt lat="48.76321" lon="7.35303">
        <ele>265.076416</ele>
        <time>2010-09-18T08:00:08Z</time>
      </trkpt>
      <trkpt lat="48.76327" lon="7.35302">
        <ele>265.271729</ele>
        <time>2010-09-18T08:00:10Z</time>
      </trkpt>
      <trkpt lat="48.76334" lon="7.35301">
        <ele>265.592041</ele>
        <time>2010-09-18T08:00:12Z</time>
      </trkpt>
      <trkpt lat="48.7634" lon="7.353">
        <ele>265.951416</ele>
        <time>2010-09-18T08:00:14Z</time>
      </trkpt>
      <trkpt lat="48.76346" lon="7.35299">
        <ele>265.842041</ele>
        <time>2010-09-18T08:00:16Z</time>
      </trkpt>
      <trkpt lat="48.76352" lon="7.35298">
        <ele>265.912354</ele>
        <time>2010-09-18T08:00:18Z</time>
      </trkpt>
      <trkpt lat="48.76358" lon="7.35297">
        <ele>265.763916</ele>
        <time>2010-09-18T08:00:20Z</time>
      </trkpt>
      <trkpt lat="48.76364" lon="7.35296">
        <ele>265.943604</ele>
        <time>2010-09-18T08:00:22Z</time>
      </trkpt>
      <trkpt lat="48.7637" lon="7.35295">
        <ele>266.287354</ele>
        <time>2010-09-18T08:00:24Z</time>
      </trkpt>
      <trkpt lat="48.76375" lon="7.35296">
        <ele>266.521729</ele>
        <time>2010-09-18T08:00:26Z</time>
      </trkpt>
      <trkpt lat="48.76381" lon="7.35295">
        <ele>267.107666</ele>
        <time>2010-09-18T08:00:28Z</time>
      </trkpt>
      <trkpt lat="48.76386" lon="7.35296">
        <ele>267.263916</ele>
        <time>2010-09-18T08:00:30Z</time>
      </trkpt>
      <trkpt lat="48.76392" lon="7.35298">
        <ele>267.146729</ele>
        <time>2010-09-18T08:00:32Z</time>
      </trkpt>
      <trkpt lat="48.76398" lon="7.35301">
        <ele>267.115479</ele>
        <time>2010-09-18T08:00:34Z</time>
      </trkpt>
      <trkpt lat="48.76404" lon="7.35305">
        <ele>267.373291</ele>
        <time>2010-09-18T08:00:36Z</time>
      </trkpt>
      <trkpt lat="48.7641" lon="7.35309">
        <ele>267.451416</ele>
        <time>2010-09-18T08:00:38Z</time>
      </trkpt>
      <trkpt lat="48.76415" lon="7.35315">
        <ele>267.381104</ele>
        <time>2010-09-18T08:00:40Z</time>
      </trkpt>
      <trkpt lat="48.76421" lon="7.35321">
        <ele>267.217041</ele>
        <time>2010-09-18T08:00:42Z</time>
      </trkpt>
      <trkpt lat="48.76427" lon="7.35329">
        <ele>267.381104</ele>
        <time>2010-09-18T08:00:44Z</time>
      </trkpt>
      <trkpt lat="48.76432" lon="7.35336">
        <ele>267.177979</ele>
        <time>2010-09-18T08:00:46Z</time>
      </trkpt>
      <trkpt lat="48.76438" lon="7.35343">
        <ele>267.529541</ele>
        <time>2010-09-18T08:00:48Z</time>
      </trkpt>
      <trkpt lat="48.76443" lon="7.35353">
        <ele>267.404541</ele>
        <time>2010-09-18T08:00:50Z</time>
      </trkpt>
      <trkpt lat="48.76448" lon="7.35362">
        <ele>267.435791</ele>
        <time>2010-09-18T08:00:52Z</time>
      </trkpt>
      <trkpt lat="48.76453" lon="7.35369">
        <ele>267.677979</ele>
        <time>2010-09-18T08:00:54Z</time>
      </trkpt>
      <trkpt lat="48.7646" lon="7.35374">
        <ele>267.959229</ele>
        <time>2010-09-18T08:00:56Z</time>
      </trkpt>
      <trkpt lat="48.76465" lon="7.35378">
        <ele>267.967041</ele>
        <time>2010-09-18T08:00:58Z</time>
      </trkpt>
      <trkpt lat="48.76471" lon="7.35384">
        <ele>267.568604</ele>
        <time>2010-09-18T08:01:00Z</time>
      </trkpt>
      <trkpt lat="48.76477" lon="7.3539">
        <ele>267.279541</ele>
        <time>2010-09-18T08:01:02Z</time>
      </trkpt>
      <trkpt lat="48.76485" lon="7.35396">
        <ele>266.849854</ele>
        <time>2010-09-18T08:01:04Z</time>
      </trkpt>
      <trkpt lat="48.76492" lon="7.35402">
        <ele>266.654541</ele>
        <time>2010-09-18T08:01:06Z</time>
      </trkpt>
      <trkpt lat="48.76499" lon="7.35408">
        <ele>267.177979</ele>
        <time>2010-09-18T08:01:08Z</time>
      </trkpt>
      <trkpt lat="48.76507" lon="7.35414">
        <ele>267.193604</ele>
        <time>2010-09-18T08:01:10Z</time>
      </trkpt>
      <trkpt lat="48.76514" lon="7.35419">
        <ele>267.724854</ele>
        <time>2010-09-18T08:01:12Z</time>
      </trkpt>
      <trkpt lat="48.76521" lon="7.35424">
        <ele>268.084229</ele>
        <time>2010-09-18T08:01:14Z</time>
      </trkpt>
      <trkpt lat="48.76527" lon="7.3543">
        <ele>268.115479</ele>
        <time>2010-09-18T08:01:16Z</time>
      </trkpt>
      <trkpt lat="48.76534" lon="7.35436">
        <ele>268.552979</ele>
        <time>2010-09-18T08:01:18Z</time>
      </trkpt>
      <trkpt lat="48.76541" lon="7.35442">
        <ele>268.881104</ele>
        <time>2010-09-18T08:01:20Z</time>
      </trkpt>
      <trkpt lat="48.76548" lon="7.35448">
        <ele>269.342041</ele>
        <time>2010-09-18T08:01:22Z</time>
      </trkpt>
      <trkpt lat="48.76554" lon="7.35454">
        <ele>269.842041</ele>
        <time>2010-09-18T08:01:24Z</time>
      </trkpt>
      <trkpt lat="48.76559" lon="7.35461">
        <ele>270.162354</ele>
        <time>2010-09-18T08:01:26Z</time>
      </trkpt>
      <trkpt lat="48.76563" lon="7.35467">
        <ele>270.521729</ele>
        <time>2010-09-18T08:01:28Z</time>
      </trkpt>
      <trkpt lat="48.76567" lon="7.35472">
        <ele>270.709229</ele>
        <time>2010-09-18T08:01:30Z</time>
      </trkpt>
      <trkpt lat="48.76573" lon="7.35477">
        <ele>270.193604</ele>
        <time>2010-09-18T08:01:32Z</time>
      </trkpt>
      <trkpt lat="48.76578" lon="7.35483">
        <ele>270.482666</ele>
        <time>2010-09-18T08:01:34Z</time>
      </trkpt>
      <trkpt lat="48.76583" lon="7.35493">
        <ele>270.388916</ele>
        <time>2010-09-18T08:01:36Z</time>
      </trkpt>
      <trkpt lat="48.76588" lon="7.35504">
        <ele>269.959229</ele>
        <time>2010-09-18T08:01:38Z</time>
      </trkpt>
      <trkpt lat="48.76593" lon="7.35515">
        <ele>270.131104</ele>
        <time>2010-09-18T08:01:40Z</time>
      </trkpt>
      <trkpt lat="48.76598" lon="7.35526">
        <ele>270.302979</ele>
        <time>2010-09-18T08:01:42Z</time>
      </trkpt>
      <trkpt lat="48.766" lon="7.35532">
        <ele>270.201416</ele>
        <time>2010-09-18T08:01:43Z</time>
      </trkpt>
      <trkpt lat="48.76603" lon="7.35539">
        <ele>270.443604</ele>
        <time>2010-09-18T08:01:44Z</time>
      </trkpt>
      <trkpt lat="48.76605" lon="7.35545">
        <ele>270.396729</ele>
        <time>2010-09-18T08:01:45Z</time>
      </trkpt>
      <trkpt lat="48.76607" lon="7.35551">
        <ele>270.295166</ele>
        <time>2010-09-18T08:01:46Z</time>
      </trkpt>
      <trkpt lat="48.76609" lon="7.35558">
        <ele>270.224854</ele>
        <time>2010-09-18T08:01:47Z</time>
      </trkpt>
      <trkpt lat="48.76612" lon="7.35564">
        <ele>270.131104</ele>
        <time>2010-09-18T08:01:48Z</time>
      </trkpt>
      <trkpt lat="48.76614" lon="7.3557">
        <ele>270.045166</ele>
        <time>2010-09-18T08:01:49Z</time>
      </trkpt>
      <trkpt lat="48.76617" lon="7.35576">
        <ele>269.951416</ele>
        <time>2010-09-18T08:01:50Z</time>
      </trkpt>
      <trkpt lat="48.76619" lon="7.35582">
        <ele>269.927979</ele>
        <time>2010-09-18T08:01:51Z</time>
      </trkpt>
      <trkpt lat="48.76624" lon="7.35593">
        <ele>270.302979</ele>
        <time>2010-09-18T08:01:53Z</time>
      </trkpt>
      <trkpt lat="48.76629" lon="7.35604">
        <ele>271.842041</ele>
        <time>2010-09-18T08:01:55Z</time>
      </trkpt>
      <trkpt lat="48.76634" lon="7.35613">
        <ele>272.896729</ele>
        <time>2010-09-18T08:01:57Z</time>
      </trkpt>
      <trkpt lat="48.7664" lon="7.35622">
        <ele>273.740479</ele>
        <time>2010-09-18T08:01:59Z</time>
      </trkpt>
      <trkpt lat="48.76645" lon="7.35628">
        <ele>274.498291</ele>
        <time>2010-09-18T08:02:01Z</time>
      </trkpt>
      <trkpt lat="48.7665" lon="7.35635">
        <ele>275.146729</ele>
        <time>2010-09-18T08:02:03Z</time>
      </trkpt>
      <trkpt lat="48.76655" lon="7.35642">
        <ele>275.896729</ele>
        <time>2010-09-18T08:02:05Z</time>
      </trkpt>
      <trkpt lat="48.7666" lon="7.3565">
        <ele>276.318604</ele>
        <time>2010-09-18T08:02:07Z</time>
      </trkpt>
      <trkpt lat="48.76665" lon="7.35655">
        <ele>275.631104</ele>
        <time>2010-09-18T08:02:09Z</time>
      </trkpt>
      <trkpt lat="48.7667" lon="7.3566">
        <ele>275.482666</ele>
        <time>2010-09-18T08:02:11Z</time>
      </trkpt>
      <trkpt lat="48.76675" lon="7.35667">
        <ele>275.474854</ele>
        <time>2010-09-18T08:02:13Z</time>
      </trkpt>
      <trkpt lat="48.76679" lon="7.35671">
        <ele>275.849854</ele>
        <time>2010-09-18T08:02:15Z</time>
      </trkpt>
      <trkpt lat="48.76683" lon="7.35677">
        <ele>276.435791</ele>
        <time>2010-09-18T08:02:18Z</time>
      </trkpt>
      <trkpt lat="48.76688" lon="7.3568">
        <ele>277.295166</ele>
        <time>2010-09-18T08:02:20Z</time>
      </trkpt>
      <trkpt lat="48.76693" lon="7.35684">
        <ele>277.412354</ele>
        <time>2010-09-18T08:02:22Z</time>
      </trkpt>
      <trkpt lat="48.76699" lon="7.35686">
        <ele>277.560791</ele>
        <time>2010-09-18T08:02:24Z</time>
      </trkpt>
      <trkpt lat="48.76704" lon="7.35683">
        <ele>278.381104</ele>
        <time>2010-09-18T08:02:26Z</time>
      </trkpt>
      <trkpt lat="48.76708" lon="7.35679">
        <ele>279.521729</ele>
        <time>2010-09-18T08:02:29Z</time>
      </trkpt>
      <trkpt lat="48.76711" lon="7.35671">
        <ele>280.146729</ele>
        <time>2010-09-18T08:02:33Z</time>
      </trkpt>
      <trkpt lat="48.76716" lon="7.35668">
        <ele>281.623291</ele>
        <time>2010-09-18T08:02:37Z</time>
      </trkpt>
      <trkpt lat="48.76721" lon="7.35666">
        <ele>280.302979</ele>
        <time>2010-09-18T08:02:40Z</time>
      </trkpt>
      <trkpt lat="48.76724" lon="7.35661">
        <ele>280.193604</ele>
        <time>2010-09-18T08:02:43Z</time>
      </trkpt>
      <trkpt lat="48.76724" lon="7.35654">
        <ele>281.217041</ele>
        <time>2010-09-18T08:02:58Z</time>
      </trkpt>
      <trkpt lat="48.76722" lon="7.3566">
        <ele>278.060791</ele>
        <time>2010-09-18T08:05:54Z</time>
      </trkpt>
      <trkpt lat="48.7672" lon="7.35666">
        <ele>276.849854</ele>
        <time>2010-09-18T08:05:56Z</time>
      </trkpt>
      <trkpt lat="48.76717" lon="7.35671">
        <ele>276.443604</ele>
        <time>2010-09-18T08:05:58Z</time>
      </trkpt>
      <trkpt lat="48.76712" lon="7.35675">
        <ele>275.771729</ele>
        <time>2010-09-18T08:06:00Z</time>
      </trkpt>
      <trkpt lat="48.76708" lon="7.35681">
        <ele>276.240479</ele>
        <time>2010-09-18T08:06:02Z</time>
      </trkpt>
      <trkpt lat="48.76704" lon="7.35687">
        <ele>276.224854</ele>
        <time>2010-09-18T08:06:05Z</time>
      </trkpt>
      <trkpt lat="48.76704" lon="7.35694">
        <ele>276.201416</ele>
        <time>2010-09-18T08:06:08Z</time>
      </trkpt>
      <trkpt lat="48.7671" lon="7.35697">
        <ele>275.951416</ele>
        <time>2010-09-18T08:06:11Z</time>
      </trkpt>
      <trkpt lat="48.76715" lon="7.35698">
        <ele>276.357666</ele>
        <time>2010-09-18T08:06:13Z</time>
      </trkpt>
      <trkpt lat="48.76722" lon="7.35699">
        <ele>276.459229</ele>
        <time>2010-09-18T08:06:15Z</time>
      </trkpt>
      <trkpt lat="48.76727" lon="7.35699">
        <ele>274.584229</ele>
        <time>2010-09-18T08:06:16Z</time>
      </trkpt>
      <trkpt lat="48.76732" lon="7.35699">
        <ele>272.904541</ele>
        <time>2010-09-18T08:06:17Z</time>
      </trkpt>
      <trkpt lat="48.76737" lon="7.35699">
        <ele>272.146729</ele>
        <time>2010-09-18T08:06:18Z</time>
      </trkpt>
      <trkpt lat="48.76745" lon="7.35701">
        <ele>270.506104</ele>
        <time>2010-09-18T08:06:20Z</time>
      </trkpt>
      <trkpt lat="48.76749" lon="7.35704">
        <ele>270.177979</ele>
        <time>2010-09-18T08:06:21Z</time>
      </trkpt>
      <trkpt lat="48.76754" lon="7.35708">
        <ele>269.638916</ele>
        <time>2010-09-18T08:06:22Z</time>
      </trkpt>
      <trkpt lat="48.76758" lon="7.35713">
        <ele>268.607666</ele>
        <time>2010-09-18T08:06:23Z</time>
      </trkpt>
      <trkpt lat="48.76762" lon="7.35718">
        <ele>268.029541</ele>
        <time>2010-09-18T08:06:24Z</time>
      </trkpt>
      <trkpt lat="48.76766" lon="7.35722">
        <ele>267.388916</ele>
        <time>2010-09-18T08:06:25Z</time>
      </trkpt>
      <trkpt lat="48.76769" lon="7.35726">
        <ele>272.404541</ele>
        <time>2010-09-18T08:06:26Z</time>
      </trkpt>
      <trkpt lat="48.76773" lon="7.35729">
        <ele>275.279541</ele>
        <time>2010-09-18T08:06:27Z</time>
      </trkpt>
      <trkpt lat="48.76776" lon="7.35733">
        <ele>280.623291</ele>
        <time>2010-09-18T08:06:28Z</time>
      </trkpt>
      <trkpt lat="48.76778" lon="7.35736">
        <ele>285.935791</ele>
        <time>2010-09-18T08:06:29Z</time>
      </trkpt>
      <trkpt lat="48.7678" lon="7.35739">
        <ele>293.896729</ele>
        <time>2010-09-18T08:06:30Z</time>
      </trkpt>
      <trkpt lat="48.76782" lon="7.35741">
        <ele>304.217041</ele>
        <time>2010-09-18T08:06:31Z</time>
      </trkpt>
      <trkpt lat="48.76785" lon="7.35743">
        <ele>313.373291</ele>
        <time>2010-09-18T08:06:32Z</time>
      </trkpt>
      <trkpt lat="48.76787" lon="7.35746">
        <ele>322.232666</ele>
        <time>2010-09-18T08:06:33Z</time>
      </trkpt>
      <trkpt lat="48.76789" lon="7.35748">
        <ele>330.982666</ele>
        <time>2010-09-18T08:06:34Z</time>
      </trkpt>
      <trkpt lat="48.76791" lon="7.3575">
        <ele>339.857666</ele>
        <time>2010-09-18T08:06:35Z</time>
      </trkpt>
      <trkpt lat="48.76791" lon="7.35753">
        <ele>348.529541</ele>
        <time>2010-09-18T08:06:36Z</time>
      </trkpt>
      <trkpt lat="48.76791" lon="7.35756">
        <ele>357.224854</ele>
        <time>2010-09-18T08:06:37Z</time>
      </trkpt>
      <trkpt lat="48.76795" lon="7.35761">
        <ele>357.802979</ele>
        <time>2010-09-18T08:06:38Z</time>
      </trkpt>
      <trkpt lat="48.76799" lon="7.3577">
        <ele>360.506104</ele>
        <time>2010-09-18T08:06:40Z</time>
      </trkpt>
      <trkpt lat="48.76804" lon="7.35778">
        <ele>363.256104</ele>
        <time>2010-09-18T08:06:42Z</time>
      </trkpt>
      <trkpt lat="48.76809" lon="7.35788">
        <ele>363.709229</ele>
        <time>2010-09-18T08:06:44Z</time>
      </trkpt>
      <trkpt lat="48.76813" lon="7.35797">
        <ele>365.592041</ele>
        <time>2010-09-18T08:06:46Z</time>
      </trkpt>
      <trkpt lat="48.76817" lon="7.35806">
        <ele>367.427979</ele>
        <time>2010-09-18T08:06:48Z</time>
      </trkpt>
      <trkpt lat="48.76822" lon="7.35816">
        <ele>368.482666</ele>
        <time>2010-09-18T08:06:50Z</time>
      </trkpt>
      <trkpt lat="48.76827" lon="7.35825">
        <ele>368.810791</ele>
        <time>2010-09-18T08:06:52Z</time>
      </trkpt>
      <trkpt lat="48.76831" lon="7.35835">
        <ele>369.365479</ele>
        <time>2010-09-18T08:06:54Z</time>
      </trkpt>
      <trkpt lat="48.76836" lon="7.35843">
        <ele>368.724854</ele>
        <time>2010-09-18T08:06:56Z</time>
      </trkpt>
      <trkpt lat="48.76839" lon="7.35853">
        <ele>368.756104</ele>
        <time>2010-09-18T08:06:58Z</time>
      </trkpt>
      <trkpt lat="48.76843" lon="7.35862">
        <ele>369.209229</ele>
        <time>2010-09-18T08:07:00Z</time>
      </trkpt>
      <trkpt lat="48.76846" lon="7.35871">
        <ele>369.342041</ele>
        <time>2010-09-18T08:07:02Z</time>
      </trkpt>
      <trkpt lat="48.7685" lon="7.35879">
        <ele>368.795166</ele>
        <time>2010-09-18T08:07:04Z</time>
      </trkpt>
      <trkpt lat="48.76857" lon="7.35879">
        <ele>365.943604</ele>
        <time>2010-09-18T08:07:07Z</time>
      </trkpt>
      <trkpt lat="48.76862" lon="7.3588">
        <ele>364.037354</ele>
        <time>2010-09-18T08:07:09Z</time>
      </trkpt>
      <trkpt lat="48.76866" lon="7.35888">
        <ele>363.342041</ele>
        <time>2010-09-18T08:07:11Z</time>
      </trkpt>
      <trkpt lat="48.76871" lon="7.3589">
        <ele>361.560791</ele>
        <time>2010-09-18T08:07:13Z</time>
      </trkpt>
      <trkpt lat="48.76875" lon="7.35896">
        <ele>360.146729</ele>
        <time>2010-09-18T08:07:15Z</time>
      </trkpt>
      <trkpt lat="48.76879" lon="7.35903">
        <ele>358.857666</ele>
        <time>2010-09-18T08:07:17Z</time>
      </trkpt>
      <trkpt lat="48.76883" lon="7.35909">
        <ele>356.881104</ele>
        <time>2010-09-18T08:07:19Z</time>
      </trkpt>
      <trkpt lat="48.76887" lon="7.35915">
        <ele>354.920166</ele>
        <time>2010-09-18T08:07:21Z</time>
      </trkpt>
      <trkpt lat="48.76889" lon="7.35921">
        <ele>351.959229</ele>
        <time>2010-09-18T08:07:23Z</time>
      </trkpt>
      <trkpt lat="48.76893" lon="7.35928">
        <ele>350.467041</ele>
        <time>2010-09-18T08:07:26Z</time>
      </trkpt>
      <trkpt lat="48.76893" lon="7.35935">
        <ele>348.677979</ele>
        <time>2010-09-18T08:07:28Z</time>
      </trkpt>
      <trkpt lat="48.76894" lon="7.35942">
        <ele>346.967041</ele>
        <time>2010-09-18T08:07:30Z</time>
      </trkpt>
      <trkpt lat="48.76899" lon="7.35948">
        <ele>343.654541</ele>
        <time>2010-09-18T08:07:32Z</time>
      </trkpt>
      <trkpt lat="48.76899" lon="7.35959">
        <ele>340.607666</ele>
        <time>2010-09-18T08:07:34Z</time>
      </trkpt>
      <trkpt lat="48.76902" lon="7.35967">
        <ele>337.904541</ele>
        <time>2010-09-18T08:07:36Z</time>
      </trkpt>
      <trkpt lat="48.76905" lon="7.35977">
        <ele>335.904541</ele>
        <time>2010-09-18T08:07:38Z</time>
      </trkpt>
      <trkpt lat="48.76907" lon="7.35986">
        <ele>334.271729</ele>
        <time>2010-09-18T08:07:40Z</time>
      </trkpt>
      <trkpt lat="48.7691" lon="7.35997">
        <ele>332.443604</ele>
        <time>2010-09-18T08:07:42Z</time>
      </trkpt>
      <trkpt lat="48.76913" lon="7.36006">
        <ele>331.146729</ele>
        <time>2010-09-18T08:07:44Z</time>
      </trkpt>
      <trkpt lat="48.76916" lon="7.36015">
        <ele>329.787354</ele>
        <time>2010-09-18T08:07:46Z</time>
      </trkpt>
      <trkpt lat="48.7692" lon="7.36023">
        <ele>327.857666</ele>
        <time>2010-09-18T08:07:48Z</time>
      </trkpt>
      <trkpt lat="48.76923" lon="7.36032">
        <ele>325.607666</ele>
        <time>2010-09-18T08:07:50Z</time>
      </trkpt>
      <trkpt lat="48.76924" lon="7.36039">
        <ele>322.459229</ele>
        <time>2010-09-18T08:07:51Z</time>
      </trkpt>
      <trkpt lat="48.76929" lon="7.36045">
        <ele>321.357666</ele>
        <time>2010-09-18T08:07:53Z</time>
      </trkpt>
      <trkpt lat="48.76935" lon="7.36048">
        <ele>319.802979</ele>
        <time>2010-09-18T08:07:55Z</time>
      </trkpt>
      <trkpt lat="48.76939" lon="7.36049">
        <ele>316.967041</ele>
        <time>2010-09-18T08:07:57Z</time>
      </trkpt>
      <trkpt lat="48.76945" lon="7.36051">
        <ele>313.927979</ele>
        <time>2010-09-18T08:07:59Z</time>
      </trkpt>
      <trkpt lat="48.76951" lon="7.36054">
        <ele>313.131104</ele>
        <time>2010-09-18T08:08:01Z</time>
      </trkpt>
      <trkpt lat="48.76957" lon="7.36059">
        <ele>313.170166</ele>
        <time>2010-09-18T08:08:03Z</time>
      </trkpt>
      <trkpt lat="48.76963" lon="7.36064">
        <ele>313.334229</ele>
        <time>2010-09-18T08:08:05Z</time>
      </trkpt>
      <trkpt lat="48.76971" lon="7.3607">
        <ele>311.404541</ele>
        <time>2010-09-18T08:08:07Z</time>
      </trkpt>
      <trkpt lat="48.76977" lon="7.36077">
        <ele>309.209229</ele>
        <time>2010-09-18T08:08:09Z</time>
      </trkpt>
      <trkpt lat="48.76981" lon="7.36081">
        <ele>307.896729</ele>
        <time>2010-09-18T08:08:10Z</time>
      </trkpt>
      <trkpt lat="48.76986" lon="7.36084">
        <ele>305.756104</ele>
        <time>2010-09-18T08:08:11Z</time>
      </trkpt>
      <trkpt lat="48.76994" lon="7.36092">
        <ele>302.646729</ele>
        <time>2010-09-18T08:08:13Z</time>
      </trkpt>
      <trkpt lat="48.76999" lon="7.36096">
        <ele>300.638916</ele>
        <time>2010-09-18T08:08:14Z</time>
      </trkpt>
      <trkpt lat="48.77005" lon="7.36099">
        <ele>297.162354</ele>
        <time>2010-09-18T08:08:15Z</time>
      </trkpt>
      <trkpt lat="48.77008" lon="7.36103">
        <ele>297.412354</ele>
        <time>2010-09-18T08:08:16Z</time>
      </trkpt>
      <trkpt lat="48.77013" lon="7.36107">
        <ele>297.029541</ele>
        <time>2010-09-18T08:08:17Z</time>
      </trkpt>
      <trkpt lat="48.77017" lon="7.36112">
        <ele>295.763916</ele>
        <time>2010-09-18T08:08:18Z</time>
      </trkpt>
      <trkpt lat="48.77021" lon="7.36115">
        <ele>295.396729</ele>
        <time>2010-09-18T08:08:19Z</time>
      </trkpt>
      <trkpt lat="48.77026" lon="7.36119">
        <ele>294.217041</ele>
        <time>2010-09-18T08:08:20Z</time>
      </trkpt>
      <trkpt lat="48.77032" lon="7.36123">
        <ele>292.349854</ele>
        <time>2010-09-18T08:08:22Z</time>
      </trkpt>
      <trkpt lat="48.77036" lon="7.3612">
        <ele>289.177979</ele>
        <time>2010-09-18T08:08:25Z</time>
      </trkpt>
      <trkpt lat="48.77036" lon="7.36112">
        <ele>288.404541</ele>
        <time>2010-09-18T08:08:27Z</time>
      </trkpt>
      <trkpt lat="48.77038" lon="7.36105">
        <ele>287.279541</ele>
        <time>2010-09-18T08:08:29Z</time>
      </trkpt>
      <trkpt lat="48.77043" lon="7.36099">
        <ele>286.849854</ele>
        <time>2010-09-18T08:08:31Z</time>
      </trkpt>
      <trkpt lat="48.77049" lon="7.36097">
        <ele>285.459229</ele>
        <time>2010-09-18T08:08:33Z</time>
      </trkpt>
      <trkpt lat="48.77054" lon="7.36092">
        <ele>284.998291</ele>
        <time>2010-09-18T08:08:35Z</time>
      </trkpt>
      <trkpt lat="48.77058" lon="7.36086">
        <ele>284.154541</ele>
        <time>2010-09-18T08:08:37Z</time>
      </trkpt>
      <trkpt lat="48.77059" lon="7.36079">
        <ele>284.373291</ele>
        <time>2010-09-18T08:08:39Z</time>
      </trkpt>
      <trkpt lat="48.77062" lon="7.36072">
        <ele>284.631104</ele>
        <time>2010-09-18T08:08:41Z</time>
      </trkpt>
      <trkpt lat="48.77063" lon="7.36065">
        <ele>284.888916</ele>
        <time>2010-09-18T08:08:43Z</time>
      </trkpt>
      <trkpt lat="48.77064" lon="7.36058">
        <ele>285.677979</ele>
        <time>2010-09-18T08:08:45Z</time>
      </trkpt>
      <trkpt lat="48.77065" lon="7.3605">
        <ele>286.412354</ele>
        <time>2010-09-18T08:08:47Z</time>
      </trkpt>
      <trkpt lat="48.77068" lon="7.36044">
        <ele>286.623291</ele>
        <time>2010-09-18T08:08:49Z</time>
      </trkpt>
      <trkpt lat="48.77072" lon="7.36039">
        <ele>286.748291</ele>
        <time>2010-09-18T08:08:51Z</time>
      </trkpt>
      <trkpt lat="48.77076" lon="7.36034">
        <ele>287.529541</ele>
        <time>2010-09-18T08:08:53Z</time>
      </trkpt>
      <trkpt lat="48.77081" lon="7.36029">
        <ele>287.521729</ele>
        <time>2010-09-18T08:08:55Z</time>
      </trkpt>
      <trkpt lat="48.77086" lon="7.36024">
        <ele>287.920166</ele>
        <time>2010-09-18T08:08:58Z</time>
      </trkpt>
      <trkpt lat="48.7709" lon="7.36018">
        <ele>290.092041</ele>
        <time>2010-09-18T08:09:01Z</time>
      </trkpt>
      <trkpt lat="48.77096" lon="7.36018">
        <ele>291.045166</ele>
        <time>2010-09-18T08:09:04Z</time>
      </trkpt>
      <trkpt lat="48.771" lon="7.36023">
        <ele>292.217041</ele>
        <time>2010-09-18T08:09:07Z</time>
      </trkpt>
      <trkpt lat="48.77105" lon="7.3603">
        <ele>293.857666</ele>
        <time>2010-09-18T08:09:10Z</time>
      </trkpt>
      <trkpt lat="48.77108" lon="7.36035">
        <ele>295.060791</ele>
        <time>2010-09-18T08:09:12Z</time>
      </trkpt>
      <trkpt lat="48.77111" lon="7.36041">
        <ele>293.662354</ele>
        <time>2010-09-18T08:09:14Z</time>
      </trkpt>
      <trkpt lat="48.77114" lon="7.36047">
        <ele>293.045166</ele>
        <time>2010-09-18T08:09:16Z</time>
      </trkpt>
      <trkpt lat="48.77117" lon="7.36053">
        <ele>292.998291</ele>
        <time>2010-09-18T08:09:18Z</time>
      </trkpt>
      <trkpt lat="48.7712" lon="7.36061">
        <ele>292.560791</ele>
        <time>2010-09-18T08:09:20Z</time>
      </trkpt>
      <trkpt lat="48.77123" lon="7.36069">
        <ele>291.927979</ele>
        <time>2010-09-18T08:09:22Z</time>
      </trkpt>
      <trkpt lat="48.77127" lon="7.3608">
        <ele>291.349854</ele>
        <time>2010-09-18T08:09:24Z</time>
      </trkpt>
      <trkpt lat="48.77131" lon="7.36092">
        <ele>290.826416</ele>
        <time>2010-09-18T08:09:26Z</time>
      </trkpt>
      <trkpt lat="48.77135" lon="7.36104">
        <ele>290.201416</ele>
        <time>2010-09-18T08:09:28Z</time>
      </trkpt>
      <trkpt lat="48.77137" lon="7.3611">
        <ele>290.013916</ele>
        <time>2010-09-18T08:09:29Z</time>
      </trkpt>
      <trkpt lat="48.7714" lon="7.36117">
        <ele>289.654541</ele>
        <time>2010-09-18T08:09:30Z</time>
      </trkpt>
      <trkpt lat="48.77142" lon="7.36123">
        <ele>289.451416</ele>
        <time>2010-09-18T08:09:31Z</time>
      </trkpt>
      <trkpt lat="48.77145" lon="7.36129">
        <ele>289.529541</ele>
        <time>2010-09-18T08:09:32Z</time>
      </trkpt>
      <trkpt lat="48.77148" lon="7.36136">
        <ele>289.201416</ele>
        <time>2010-09-18T08:09:33Z</time>
      </trkpt>
      <trkpt lat="48.7715" lon="7.36142">
        <ele>289.388916</ele>
        <time>2010-09-18T08:09:34Z</time>
      </trkpt>
      <trkpt lat="48.77153" lon="7.36148">
        <ele>289.373291</ele>
        <time>2010-09-18T08:09:35Z</time>
      </trkpt>
      <trkpt lat="48.77156" lon="7.36154">
        <ele>289.412354</ele>
        <time>2010-09-18T08:09:36Z</time>
      </trkpt>
      <trkpt lat="48.7716" lon="7.3616">
        <ele>289.177979</ele>
        <time>2010-09-18T08:09:37Z</time>
      </trkpt>
      <trkpt lat="48.77163" lon="7.36166">
        <ele>288.920166</ele>
        <time>2010-09-18T08:09:38Z</time>
      </trkpt>
      <trkpt lat="48.77167" lon="7.36171">
        <ele>288.623291</ele>
        <time>2010-09-18T08:09:39Z</time>
      </trkpt>
      <trkpt lat="48.7717" lon="7.36177">
        <ele>288.334229</ele>
        <time>2010-09-18T08:09:40Z</time>
      </trkpt>
      <trkpt lat="48.77173" lon="7.36184">
        <ele>288.037354</ele>
        <time>2010-09-18T08:09:41Z</time>
      </trkpt>
      <trkpt lat="48.77175" lon="7.36191">
        <ele>287.795166</ele>
        <time>2010-09-18T08:09:42Z</time>
      </trkpt>
      <trkpt lat="48.77178" lon="7.36198">
        <ele>287.396729</ele>
        <time>2010-09-18T08:09:43Z</time>
      </trkpt>
      <trkpt lat="48.77181" lon="7.36204">
        <ele>287.146729</ele>
        <time>2010-09-18T08:09:44Z</time>
      </trkpt>
      <trkpt lat="48.77186" lon="7.36214">
        <ele>286.568604</ele>
        <time>2010-09-18T08:09:46Z</time>
      </trkpt>
      <trkpt lat="48.77189" lon="7.36222">
        <ele>286.474854</ele>
        <time>2010-09-18T08:09:48Z</time>
      </trkpt>
      <trkpt lat="48.77194" lon="7.36229">
        <ele>286.474854</ele>
        <time>2010-09-18T08:09:50Z</time>
      </trkpt>
      <trkpt lat="48.772" lon="7.36235">
        <ele>286.802979</ele>
        <time>2010-09-18T08:09:52Z</time>
      </trkpt>
      <trkpt lat="48.77206" lon="7.36238">
        <ele>287.240479</ele>
        <time>2010-09-18T08:09:54Z</time>
      </trkpt>
      <trkpt lat="48.77211" lon="7.36241">
        <ele>287.654541</ele>
        <time>2010-09-18T08:09:56Z</time>
      </trkpt>
      <trkpt lat="48.77216" lon="7.36244">
        <ele>287.865479</ele>
        <time>2010-09-18T08:09:58Z</time>
      </trkpt>
      <trkpt lat="48.7722" lon="7.36247">
        <ele>288.154541</ele>
        <time>2010-09-18T08:10:00Z</time>
      </trkpt>
      <trkpt lat="48.77225" lon="7.36251">
        <ele>288.349854</ele>
        <time>2010-09-18T08:10:02Z</time>
      </trkpt>
      <trkpt lat="48.77231" lon="7.36255">
        <ele>288.443604</ele>
        <time>2010-09-18T08:10:04Z</time>
      </trkpt>
      <trkpt lat="48.77236" lon="7.36259">
        <ele>288.709229</ele>
        <time>2010-09-18T08:10:06Z</time>
      </trkpt>
      <trkpt lat="48.77242" lon="7.36265">
        <ele>288.599854</ele>
        <time>2010-09-18T08:10:08Z</time>
      </trkpt>
      <trkpt lat="48.77248" lon="7.36271">
        <ele>289.092041</ele>
        <time>2010-09-18T08:10:10Z</time>
      </trkpt>
      <trkpt lat="48.77253" lon="7.36278">
        <ele>289.537354</ele>
        <time>2010-09-18T08:10:12Z</time>
      </trkpt>
      <trkpt lat="48.77259" lon="7.36285">
        <ele>290.060791</ele>
        <time>2010-09-18T08:10:14Z</time>
      </trkpt>
      <trkpt lat="48.77266" lon="7.36293">
        <ele>290.427979</ele>
        <time>2010-09-18T08:10:16Z</time>
      </trkpt>
      <trkpt lat="48.77272" lon="7.363">
        <ele>290.842041</ele>
        <time>2010-09-18T08:10:18Z</time>
      </trkpt>
      <trkpt lat="48.77277" lon="7.36308">
        <ele>291.490479</ele>
        <time>2010-09-18T08:10:20Z</time>
      </trkpt>
      <trkpt lat="48.77283" lon="7.36315">
        <ele>292.084229</ele>
        <time>2010-09-18T08:10:22Z</time>
      </trkpt>
      <trkpt lat="48.77288" lon="7.36322">
        <ele>292.568604</ele>
        <time>2010-09-18T08:10:24Z</time>
      </trkpt>
      <trkpt lat="48.77294" lon="7.3633">
        <ele>292.967041</ele>
        <time>2010-09-18T08:10:26Z</time>
      </trkpt>
      <trkpt lat="48.773" lon="7.36338">
        <ele>293.388916</ele>
        <time>2010-09-18T08:10:28Z</time>
      </trkpt>
      <trkpt lat="48.77305" lon="7.36346">
        <ele>293.802979</ele>
        <time>2010-09-18T08:10:30Z</time>
      </trkpt>
      <trkpt lat="48.7731" lon="7.36354">
        <ele>293.740479</ele>
        <time>2010-09-18T08:10:32Z</time>
      </trkpt>
      <trkpt lat="48.77316" lon="7.36361">
        <ele>293.920166</ele>
        <time>2010-09-18T08:10:34Z</time>
      </trkpt>
      <trkpt lat="48.77321" lon="7.36369">
        <ele>294.185791</ele>
        <time>2010-09-18T08:10:36Z</time>
      </trkpt>
      <trkpt lat="48.77326" lon="7.36377">
        <ele>294.592041</ele>
        <time>2010-09-18T08:10:38Z</time>
      </trkpt>
      <trkpt lat="48.77331" lon="7.36385">
        <ele>294.763916</ele>
        <time>2010-09-18T08:10:40Z</time>
      </trkpt>
      <trkpt lat="48.77336" lon="7.36391">
        <ele>294.896729</ele>
        <time>2010-09-18T08:10:42Z</time>
      </trkpt>
      <trkpt lat="48.77342" lon="7.36398">
        <ele>294.849854</ele>
        <time>2010-09-18T08:10:44Z</time>
      </trkpt>
      <trkpt lat="48.77345" lon="7.36405">
        <ele>295.107666</ele>
        <time>2010-09-18T08:10:46Z</time>
      </trkpt>
      <trkpt lat="48.77349" lon="7.36411">
        <ele>295.560791</ele>
        <time>2010-09-18T08:10:48Z</time>
      </trkpt>
      <trkpt lat="48.77354" lon="7.36418">
        <ele>296.045166</ele>
        <time>2010-09-18T08:10:50Z</time>
      </trkpt>
      <trkpt lat="48.77361" lon="7.36425">
        <ele>296.037354</ele>
        <time>2010-09-18T08:10:52Z</time>
      </trkpt>
      <trkpt lat="48.77367" lon="7.36431">
        <ele>296.818604</ele>
        <time>2010-09-18T08:10:54Z</time>
      </trkpt>
      <trkpt lat="48.77372" lon="7.36437">
        <ele>297.318604</ele>
        <time>2010-09-18T08:10:56Z</time>
      </trkpt>
      <trkpt lat="48.77377" lon="7.36442">
        <ele>297.670166</ele>
        <time>2010-09-18T08:10:58Z</time>
      </trkpt>
      <trkpt lat="48.77381" lon="7.36447">
        <ele>298.357666</ele>
        <time>2010-09-18T08:11:00Z</time>
      </trkpt>
      <trkpt lat="48.77384" lon="7.36455">
        <ele>299.224854</ele>
        <time>2010-09-18T08:11:02Z</time>
      </trkpt>
      <trkpt lat="48.77388" lon="7.36462">
        <ele>299.662354</ele>
        <time>2010-09-18T08:11:04Z</time>
      </trkpt>
      <trkpt lat="48.77394" lon="7.36464">
        <ele>301.060791</ele>
        <time>2010-09-18T08:11:08Z</time>
      </trkpt>
      <trkpt lat="48.77399" lon="7.36467">
        <ele>302.568604</ele>
        <time>2010-09-18T08:11:11Z</time>
      </trkpt>
      <trkpt lat="48.77404" lon="7.36467">
        <ele>303.974854</ele>
        <time>2010-09-18T08:11:14Z</time>
      </trkpt>
      <trkpt lat="48.77409" lon="7.36468">
        <ele>305.576416</ele>
        <time>2010-09-18T08:11:17Z</time>
      </trkpt>
      <trkpt lat="48.77414" lon="7.36467">
        <ele>307.545166</ele>
        <time>2010-09-18T08:11:20Z</time>
      </trkpt>
      <trkpt lat="48.77418" lon="7.36471">
        <ele>308.849854</ele>
        <time>2010-09-18T08:11:22Z</time>
      </trkpt>
      <trkpt lat="48.77422" lon="7.36475">
        <ele>311.263916</ele>
        <time>2010-09-18T08:11:25Z</time>
      </trkpt>
      <trkpt lat="48.77425" lon="7.36477">
        <ele>314.357666</ele>
        <time>2010-09-18T08:11:29Z</time>
      </trkpt>
      <trkpt lat="48.7743" lon="7.36481">
        <ele>316.396729</ele>
        <time>2010-09-18T08:11:33Z</time>
      </trkpt>
      <trkpt lat="48.77434" lon="7.36484">
        <ele>318.357666</ele>
        <time>2010-09-18T08:11:36Z</time>
      </trkpt>
      <trkpt lat="48.77438" lon="7.36489">
        <ele>318.834229</ele>
        <time>2010-09-18T08:11:38Z</time>
      </trkpt>
      <trkpt lat="48.77441" lon="7.36493">
        <ele>320.592041</ele>
        <time>2010-09-18T08:11:40Z</time>
      </trkpt>
      <trkpt lat="48.77446" lon="7.36497">
        <ele>322.670166</ele>
        <time>2010-09-18T08:11:43Z</time>
      </trkpt>
      <trkpt lat="48.77451" lon="7.36504">
        <ele>324.935791</ele>
        <time>2010-09-18T08:11:46Z</time>
      </trkpt>
      <trkpt lat="48.77456" lon="7.3651">
        <ele>324.482666</ele>
        <time>2010-09-18T08:11:49Z</time>
      </trkpt>
      <trkpt lat="48.77461" lon="7.36509">
        <ele>324.818604</ele>
        <time>2010-09-18T08:11:51Z</time>
      </trkpt>
      <trkpt lat="48.77466" lon="7.36512">
        <ele>326.959229</ele>
        <time>2010-09-18T08:11:54Z</time>
      </trkpt>
      <trkpt lat="48.7747" lon="7.36518">
        <ele>329.592041</ele>
        <time>2010-09-18T08:11:57Z</time>
      </trkpt>
      <trkpt lat="48.77475" lon="7.36522">
        <ele>330.123291</ele>
        <time>2010-09-18T08:12:00Z</time>
      </trkpt>
      <trkpt lat="48.7748" lon="7.36526">
        <ele>332.006104</ele>
        <time>2010-09-18T08:12:03Z</time>
      </trkpt>
      <trkpt lat="48.77483" lon="7.3653">
        <ele>332.662354</ele>
        <time>2010-09-18T08:12:05Z</time>
      </trkpt>
      <trkpt lat="48.77487" lon="7.36534">
        <ele>334.334229</ele>
        <time>2010-09-18T08:12:08Z</time>
      </trkpt>
      <trkpt lat="48.7749" lon="7.36538">
        <ele>336.256104</ele>
        <time>2010-09-18T08:12:11Z</time>
      </trkpt>
      <trkpt lat="48.77494" lon="7.36545">
        <ele>337.724854</ele>
        <time>2010-09-18T08:12:13Z</time>
      </trkpt>
      <trkpt lat="48.77499" lon="7.36548">
        <ele>339.295166</ele>
        <time>2010-09-18T08:12:16Z</time>
      </trkpt>
      <trkpt lat="48.77504" lon="7.3655">
        <ele>338.599854</ele>
        <time>2010-09-18T08:12:18Z</time>
      </trkpt>
      <trkpt lat="48.77507" lon="7.36555">
        <ele>340.560791</ele>
        <time>2010-09-18T08:12:22Z</time>
      </trkpt>
      <trkpt lat="48.77512" lon="7.36562">
        <ele>341.279541</ele>
        <time>2010-09-18T08:12:26Z</time>
      </trkpt>
      <trkpt lat="48.77515" lon="7.36567">
        <ele>341.256104</ele>
        <time>2010-09-18T08:12:28Z</time>
      </trkpt>
      <trkpt lat="48.77518" lon="7.36572">
        <ele>341.521729</ele>
        <time>2010-09-18T08:12:30Z</time>
      </trkpt>
      <trkpt lat="48.77523" lon="7.36577">
        <ele>341.967041</ele>
        <time>2010-09-18T08:12:32Z</time>
      </trkpt>
      <trkpt lat="48.77526" lon="7.36584">
        <ele>341.842041</ele>
        <time>2010-09-18T08:12:34Z</time>
      </trkpt>
      <trkpt lat="48.77531" lon="7.36587">
        <ele>342.013916</ele>
        <time>2010-09-18T08:12:37Z</time>
      </trkpt>
      <trkpt lat="48.77535" lon="7.36589">
        <ele>341.967041</ele>
        <time>2010-09-18T08:12:39Z</time>
      </trkpt>
      <trkpt lat="48.7754" lon="7.36592">
        <ele>341.568604</ele>
        <time>2010-09-18T08:12:41Z</time>
      </trkpt>
      <trkpt lat="48.77546" lon="7.36597">
        <ele>343.240479</ele>
        <time>2010-09-18T08:12:44Z</time>
      </trkpt>
      <trkpt lat="48.77551" lon="7.36601">
        <ele>342.748291</ele>
        <time>2010-09-18T08:12:46Z</time>
      </trkpt>
      <trkpt lat="48.77554" lon="7.36607">
        <ele>343.443604</ele>
        <time>2010-09-18T08:12:48Z</time>
      </trkpt>
      <trkpt lat="48.77559" lon="7.3661">
        <ele>343.342041</ele>
        <time>2010-09-18T08:12:50Z</time>
      </trkpt>
      <trkpt lat="48.77563" lon="7.36611">
        <ele>344.373291</ele>
        <time>2010-09-18T08:12:52Z</time>
      </trkpt>
      <trkpt lat="48.77568" lon="7.36613">
        <ele>345.107666</ele>
        <time>2010-09-18T08:12:54Z</time>
      </trkpt>
      <trkpt lat="48.77574" lon="7.36616">
        <ele>341.951416</ele>
        <time>2010-09-18T08:12:56Z</time>
      </trkpt>
      <trkpt lat="48.77578" lon="7.36613">
        <ele>336.904541</ele>
        <time>2010-09-18T08:12:57Z</time>
      </trkpt>
      <trkpt lat="48.77582" lon="7.36609">
        <ele>332.638916</ele>
        <time>2010-09-18T08:12:58Z</time>
      </trkpt>
      <trkpt lat="48.77587" lon="7.36607">
        <ele>331.763916</ele>
        <time>2010-09-18T08:13:00Z</time>
      </trkpt>
      <trkpt lat="48.77592" lon="7.36605">
        <ele>330.295166</ele>
        <time>2010-09-18T08:13:02Z</time>
      </trkpt>
      <trkpt lat="48.77597" lon="7.36604">
        <ele>328.974854</ele>
        <time>2010-09-18T08:13:04Z</time>
      </trkpt>
      <trkpt lat="48.77602" lon="7.366">
        <ele>330.849854</ele>
        <time>2010-09-18T08:13:07Z</time>
      </trkpt>
      <trkpt lat="48.77605" lon="7.36594">
        <ele>331.631104</ele>
        <time>2010-09-18T08:13:09Z</time>
      </trkpt>
      <trkpt lat="48.7761" lon="7.3659">
        <ele>332.638916</ele>
        <time>2010-09-18T08:13:12Z</time>
      </trkpt>
      <trkpt lat="48.77612" lon="7.36583">
        <ele>333.388916</ele>
        <time>2010-09-18T08:13:16Z</time>
      </trkpt>
      <trkpt lat="48.77615" lon="7.36577">
        <ele>335.373291</ele>
        <time>2010-09-18T08:13:21Z</time>
      </trkpt>
      <trkpt lat="48.77613" lon="7.3657">
        <ele>336.357666</ele>
        <time>2010-09-18T08:13:26Z</time>
      </trkpt>
      <trkpt lat="48.77615" lon="7.36563">
        <ele>336.787354</ele>
        <time>2010-09-18T08:13:32Z</time>
      </trkpt>
      <trkpt lat="48.77615" lon="7.36555">
        <ele>339.209229</ele>
        <time>2010-09-18T08:13:37Z</time>
      </trkpt>
      <trkpt lat="48.77613" lon="7.36548">
        <ele>340.435791</ele>
        <time>2010-09-18T08:13:42Z</time>
      </trkpt>
      <trkpt lat="48.7761" lon="7.36542">
        <ele>339.818604</ele>
        <time>2010-09-18T08:13:47Z</time>
      </trkpt>
      <trkpt lat="48.77613" lon="7.36537">
        <ele>341.685791</ele>
        <time>2010-09-18T08:13:51Z</time>
      </trkpt>
      <trkpt lat="48.77617" lon="7.36531">
        <ele>342.967041</ele>
        <time>2010-09-18T08:13:56Z</time>
      </trkpt>
      <trkpt lat="48.77618" lon="7.36529">
        <ele>337.920166</ele>
        <time>2010-09-18T08:14:05Z</time>
      </trkpt>
      <trkpt lat="48.77615" lon="7.36524">
        <ele>335.646729</ele>
        <time>2010-09-18T08:14:10Z</time>
      </trkpt>
      <trkpt lat="48.77615" lon="7.36515">
        <ele>337.873291</ele>
        <time>2010-09-18T08:14:15Z</time>
      </trkpt>
      <trkpt lat="48.77612" lon="7.3651">
        <ele>336.170166</ele>
        <time>2010-09-18T08:14:17Z</time>
      </trkpt>
      <trkpt lat="48.77613" lon="7.36502">
        <ele>336.529541</ele>
        <time>2010-09-18T08:14:21Z</time>
      </trkpt>
      <trkpt lat="48.77615" lon="7.36493">
        <ele>336.529541</ele>
        <time>2010-09-18T08:14:25Z</time>
      </trkpt>
      <trkpt lat="48.77616" lon="7.36486">
        <ele>336.638916</ele>
        <time>2010-09-18T08:14:28Z</time>
      </trkpt>
      <trkpt lat="48.77615" lon="7.36478">
        <ele>336.810791</ele>
        <time>2010-09-18T08:14:32Z</time>
      </trkpt>
      <trkpt lat="48.77616" lon="7.3647">
        <ele>336.146729</ele>
        <time>2010-09-18T08:14:36Z</time>
      </trkpt>
      <trkpt lat="48.77618" lon="7.36463">
        <ele>335.701416</ele>
        <time>2010-09-18T08:14:39Z</time>
      </trkpt>
      <trkpt lat="48.7762" lon="7.36457">
        <ele>337.170166</ele>
        <time>2010-09-18T08:14:43Z</time>
      </trkpt>
      <trkpt lat="48.77622" lon="7.36451">
        <ele>339.326416</ele>
        <time>2010-09-18T08:14:47Z</time>
      </trkpt>
      <trkpt lat="48.77624" lon="7.36444">
        <ele>341.576416</ele>
        <time>2010-09-18T08:14:51Z</time>
      </trkpt>
      <trkpt lat="48.77623" lon="7.36436">
        <ele>340.662354</ele>
        <time>2010-09-18T08:14:54Z</time>
      </trkpt>
      <trkpt lat="48.77617" lon="7.36437">
        <ele>340.873291</ele>
        <time>2010-09-18T08:15:08Z</time>
      </trkpt>
      <trkpt lat="48.77613" lon="7.36446">
        <ele>341.552979</ele>
        <time>2010-09-18T08:15:14Z</time>
      </trkpt>
      <trkpt lat="48.77609" lon="7.36449">
        <ele>343.662354</ele>
        <time>2010-09-18T08:15:20Z</time>
      </trkpt>
      <trkpt lat="48.77606" lon="7.36457">
        <ele>345.115479</ele>
        <time>2010-09-18T08:15:25Z</time>
      </trkpt>
      <trkpt lat="48.77604" lon="7.36463">
        <ele>347.013916</ele>
        <time>2010-09-18T08:15:30Z</time>
      </trkpt>
      <trkpt lat="48.776" lon="7.3647">
        <ele>346.802979</ele>
        <time>2010-09-18T08:15:34Z</time>
      </trkpt>
      <trkpt lat="48.77598" lon="7.36476">
        <ele>347.154541</ele>
        <time>2010-09-18T08:15:38Z</time>
      </trkpt>
      <trkpt lat="48.77596" lon="7.36482">
        <ele>346.849854</ele>
        <time>2010-09-18T08:15:43Z</time>
      </trkpt>
      <trkpt lat="48.77592" lon="7.36486">
        <ele>346.717041</ele>
        <time>2010-09-18T08:15:47Z</time>
      </trkpt>
      <trkpt lat="48.77585" lon="7.36486">
        <ele>344.974854</ele>
        <time>2010-09-18T08:15:50Z</time>
      </trkpt>
      <trkpt lat="48.77583" lon="7.3648">
        <ele>345.998291</ele>
        <time>2010-09-18T08:16:01Z</time>
      </trkpt>
      <trkpt lat="48.77583" lon="7.36473">
        <ele>347.045166</ele>
        <time>2010-09-18T08:16:05Z</time>
      </trkpt>
      <trkpt lat="48.77583" lon="7.36465">
        <ele>348.795166</ele>
        <time>2010-09-18T08:16:11Z</time>
      </trkpt>
      <trkpt lat="48.77583" lon="7.36457">
        <ele>351.451416</ele>
        <time>2010-09-18T08:16:17Z</time>
      </trkpt>
      <trkpt lat="48.77578" lon="7.36459">
        <ele>349.951416</ele>
        <time>2010-09-18T08:16:29Z</time>
      </trkpt>
      <trkpt lat="48.77574" lon="7.36464">
        <ele>350.302979</ele>
        <time>2010-09-18T08:16:35Z</time>
      </trkpt>
      <trkpt lat="48.77569" lon="7.36464">
        <ele>352.357666</ele>
        <time>2010-09-18T08:16:40Z</time>
      </trkpt>
      <trkpt lat="48.77564" lon="7.36462">
        <ele>353.154541</ele>
        <time>2010-09-18T08:16:43Z</time>
      </trkpt>
      <trkpt lat="48.7756" lon="7.36458">
        <ele>354.138916</ele>
        <time>2010-09-18T08:16:46Z</time>
      </trkpt>
      <trkpt lat="48.77557" lon="7.36454">
        <ele>356.967041</ele>
        <time>2010-09-18T08:16:50Z</time>
      </trkpt>
      <trkpt lat="48.77559" lon="7.36449">
        <ele>360.099854</ele>
        <time>2010-09-18T08:16:57Z</time>
      </trkpt>
      <trkpt lat="48.77563" lon="7.36447">
        <ele>361.974854</ele>
        <time>2010-09-18T08:17:03Z</time>
      </trkpt>
      <trkpt lat="48.77562" lon="7.3644">
        <ele>364.240479</ele>
        <time>2010-09-18T08:17:07Z</time>
      </trkpt>
      <trkpt lat="48.77563" lon="7.36434">
        <ele>366.287354</ele>
        <time>2010-09-18T08:17:14Z</time>
      </trkpt>
      <trkpt lat="48.77563" lon="7.36427">
        <ele>368.209229</ele>
        <time>2010-09-18T08:17:20Z</time>
      </trkpt>
      <trkpt lat="48.77563" lon="7.3642">
        <ele>369.045166</ele>
        <time>2010-09-18T08:17:26Z</time>
      </trkpt>
      <trkpt lat="48.77565" lon="7.36412">
        <ele>367.607666</ele>
        <time>2010-09-18T08:17:30Z</time>
      </trkpt>
      <trkpt lat="48.77568" lon="7.36406">
        <ele>368.787354</ele>
        <time>2010-09-18T08:17:36Z</time>
      </trkpt>
      <trkpt lat="48.77569" lon="7.36399">
        <ele>370.943604</ele>
        <time>2010-09-18T08:17:43Z</time>
      </trkpt>
      <trkpt lat="48.7757" lon="7.36392">
        <ele>373.256104</ele>
        <time>2010-09-18T08:17:48Z</time>
      </trkpt>
      <trkpt lat="48.77569" lon="7.36385">
        <ele>375.990479</ele>
        <time>2010-09-18T08:17:58Z</time>
      </trkpt>
      <trkpt lat="48.77568" lon="7.36377">
        <ele>376.201416</ele>
        <time>2010-09-18T08:18:04Z</time>
      </trkpt>
      <trkpt lat="48.77568" lon="7.3637">
        <ele>377.271729</ele>
        <time>2010-09-18T08:18:08Z</time>
      </trkpt>
      <trkpt lat="48.77567" lon="7.36362">
        <ele>378.521729</ele>
        <time>2010-09-18T08:18:14Z</time>
      </trkpt>
      <trkpt lat="48.77567" lon="7.36354">
        <ele>379.146729</ele>
        <time>2010-09-18T08:18:18Z</time>
      </trkpt>
      <trkpt lat="48.77567" lon="7.36347">
        <ele>379.904541</ele>
        <time>2010-09-18T08:18:23Z</time>
      </trkpt>
      <trkpt lat="48.77566" lon="7.36339">
        <ele>380.349854</ele>
        <time>2010-09-18T08:18:28Z</time>
      </trkpt>
      <trkpt lat="48.77564" lon="7.36345">
        <ele>379.271729</ele>
        <time>2010-09-18T08:18:45Z</time>
      </trkpt>
      <trkpt lat="48.77565" lon="7.36352">
        <ele>381.787354</ele>
        <time>2010-09-18T08:18:49Z</time>
      </trkpt>
      <trkpt lat="48.77567" lon="7.36358">
        <ele>383.201416</ele>
        <time>2010-09-18T08:18:52Z</time>
      </trkpt>
      <trkpt lat="48.77562" lon="7.36362">
        <ele>384.037354</ele>
        <time>2010-09-18T08:18:56Z</time>
      </trkpt>
      <trkpt lat="48.77561" lon="7.36369">
        <ele>385.467041</ele>
        <time>2010-09-18T08:19:00Z</time>
      </trkpt>
      <trkpt lat="48.77557" lon="7.36368">
        <ele>383.927979</ele>
        <time>2010-09-18T08:19:33Z</time>
      </trkpt>
      <trkpt lat="48.77551" lon="7.36368">
        <ele>382.748291</ele>
        <time>2010-09-18T08:19:36Z</time>
      </trkpt>
      <trkpt lat="48.77549" lon="7.36374">
        <ele>381.209229</ele>
        <time>2010-09-18T08:19:43Z</time>
      </trkpt>
      <trkpt lat="48.77547" lon="7.36381">
        <ele>380.638916</ele>
        <time>2010-09-18T08:19:47Z</time>
      </trkpt>
      <trkpt lat="48.77548" lon="7.36388">
        <ele>380.677979</ele>
        <time>2010-09-18T08:19:51Z</time>
      </trkpt>
      <trkpt lat="48.77549" lon="7.36395">
        <ele>381.717041</ele>
        <time>2010-09-18T08:19:56Z</time>
      </trkpt>
      <trkpt lat="48.77553" lon="7.36399">
        <ele>383.670166</ele>
        <time>2010-09-18T08:20:36Z</time>
      </trkpt>
      <trkpt lat="48.77556" lon="7.36404">
        <ele>383.388916</ele>
        <time>2010-09-18T08:20:41Z</time>
      </trkpt>
      <trkpt lat="48.7756" lon="7.36401">
        <ele>382.474854</ele>
        <time>2010-09-18T08:20:49Z</time>
      </trkpt>
      <trkpt lat="48.77557" lon="7.36394">
        <ele>381.521729</ele>
        <time>2010-09-18T08:20:53Z</time>
      </trkpt>
      <trkpt lat="48.77551" lon="7.36392">
        <ele>380.623291</ele>
        <time>2010-09-18T08:20:56Z</time>
      </trkpt>
      <trkpt lat="48.77547" lon="7.36386">
        <ele>380.435791</ele>
        <time>2010-09-18T08:20:59Z</time>
      </trkpt>
      <trkpt lat="48.77543" lon="7.3638">
        <ele>379.967041</ele>
        <time>2010-09-18T08:21:02Z</time>
      </trkpt>
      <trkpt lat="48.77539" lon="7.36375">
        <ele>380.217041</ele>
        <time>2010-09-18T08:21:06Z</time>
      </trkpt>
      <trkpt lat="48.77535" lon="7.3637">
        <ele>380.756104</ele>
        <time>2010-09-18T08:21:10Z</time>
      </trkpt>
      <trkpt lat="48.77531" lon="7.36363">
        <ele>379.873291</ele>
        <time>2010-09-18T08:21:14Z</time>
      </trkpt>
      <trkpt lat="48.77528" lon="7.36357">
        <ele>380.217041</ele>
        <time>2010-09-18T08:21:18Z</time>
      </trkpt>
      <trkpt lat="48.77523" lon="7.3635">
        <ele>381.045166</ele>
        <time>2010-09-18T08:21:22Z</time>
      </trkpt>
      <trkpt lat="48.7752" lon="7.36345">
        <ele>380.810791</ele>
        <time>2010-09-18T08:21:25Z</time>
      </trkpt>
      <trkpt lat="48.77518" lon="7.36338">
        <ele>382.302979</ele>
        <time>2010-09-18T08:21:29Z</time>
      </trkpt>
      <trkpt lat="48.77518" lon="7.36331">
        <ele>383.490479</ele>
        <time>2010-09-18T08:21:33Z</time>
      </trkpt>
      <trkpt lat="48.77519" lon="7.36324">
        <ele>383.435791</ele>
        <time>2010-09-18T08:21:37Z</time>
      </trkpt>
      <trkpt lat="48.7752" lon="7.36317">
        <ele>383.224854</ele>
        <time>2010-09-18T08:21:40Z</time>
      </trkpt>
      <trkpt lat="48.77525" lon="7.36316">
        <ele>382.131104</ele>
        <time>2010-09-18T08:21:44Z</time>
      </trkpt>
      <trkpt lat="48.77529" lon="7.36322">
        <ele>382.076416</ele>
        <time>2010-09-18T08:22:17Z</time>
      </trkpt>
      <trkpt lat="48.77526" lon="7.36316">
        <ele>383.240479</ele>
        <time>2010-09-18T08:22:21Z</time>
      </trkpt>
      <trkpt lat="48.77525" lon="7.36305">
        <ele>383.013916</ele>
        <time>2010-09-18T08:22:25Z</time>
      </trkpt>
      <trkpt lat="48.77522" lon="7.36299">
        <ele>384.295166</ele>
        <time>2010-09-18T08:22:30Z</time>
      </trkpt>
      <trkpt lat="48.77519" lon="7.36293">
        <ele>385.185791</ele>
        <time>2010-09-18T08:22:36Z</time>
      </trkpt>
      <trkpt lat="48.77517" lon="7.36287">
        <ele>386.826416</ele>
        <time>2010-09-18T08:22:41Z</time>
      </trkpt>
      <trkpt lat="48.77517" lon="7.3628">
        <ele>389.482666</ele>
        <time>2010-09-18T08:22:45Z</time>
      </trkpt>
      <trkpt lat="48.7752" lon="7.36274">
        <ele>388.302979</ele>
        <time>2010-09-18T08:23:12Z</time>
      </trkpt>
      <trkpt lat="48.77515" lon="7.36272">
        <ele>387.412354</ele>
        <time>2010-09-18T08:23:23Z</time>
      </trkpt>
      <trkpt lat="48.77512" lon="7.36266">
        <ele>389.037354</ele>
        <time>2010-09-18T08:23:29Z</time>
      </trkpt>
      <trkpt lat="48.77512" lon="7.3626">
        <ele>390.912354</ele>
        <time>2010-09-18T08:23:33Z</time>
      </trkpt>
      <trkpt lat="48.77509" lon="7.36254">
        <ele>391.381104</ele>
        <time>2010-09-18T08:23:37Z</time>
      </trkpt>
      <trkpt lat="48.77509" lon="7.36247">
        <ele>391.756104</ele>
        <time>2010-09-18T08:23:40Z</time>
      </trkpt>
      <trkpt lat="48.77506" lon="7.36242">
        <ele>392.146729</ele>
        <time>2010-09-18T08:23:43Z</time>
      </trkpt>
      <trkpt lat="48.77504" lon="7.36235">
        <ele>392.638916</ele>
        <time>2010-09-18T08:23:47Z</time>
      </trkpt>
      <trkpt lat="48.77503" lon="7.36228">
        <ele>392.021729</ele>
        <time>2010-09-18T08:23:52Z</time>
      </trkpt>
      <trkpt lat="48.77498" lon="7.36225">
        <ele>393.740479</ele>
        <time>2010-09-18T08:23:56Z</time>
      </trkpt>
      <trkpt lat="48.77498" lon="7.36218">
        <ele>394.295166</ele>
        <time>2010-09-18T08:24:05Z</time>
      </trkpt>
      <trkpt lat="48.77499" lon="7.36211">
        <ele>394.576416</ele>
        <time>2010-09-18T08:24:09Z</time>
      </trkpt>
      <trkpt lat="48.77496" lon="7.36204">
        <ele>393.490479</ele>
        <time>2010-09-18T08:24:13Z</time>
      </trkpt>
      <trkpt lat="48.77492" lon="7.362">
        <ele>393.201416</ele>
        <time>2010-09-18T08:24:16Z</time>
      </trkpt>
      <trkpt lat="48.77488" lon="7.36197">
        <ele>394.295166</ele>
        <time>2010-09-18T08:24:19Z</time>
      </trkpt>
      <trkpt lat="48.77484" lon="7.36193">
        <ele>396.974854</ele>
        <time>2010-09-18T08:24:25Z</time>
      </trkpt>
      <trkpt lat="48.77485" lon="7.36198">
        <ele>400.506104</ele>
        <time>2010-09-18T08:24:33Z</time>
      </trkpt>
      <trkpt lat="48.7749" lon="7.36199">
        <ele>400.232666</ele>
        <time>2010-09-18T08:24:38Z</time>
      </trkpt>
      <trkpt lat="48.77496" lon="7.36197">
        <ele>400.170166</ele>
        <time>2010-09-18T08:24:42Z</time>
      </trkpt>
      <trkpt lat="48.77501" lon="7.36195">
        <ele>396.287354</ele>
        <time>2010-09-18T08:24:44Z</time>
      </trkpt>
      <trkpt lat="48.77505" lon="7.36194">
        <ele>394.310791</ele>
        <time>2010-09-18T08:24:47Z</time>
      </trkpt>
      <trkpt lat="48.77511" lon="7.36195">
        <ele>392.295166</ele>
        <time>2010-09-18T08:24:50Z</time>
      </trkpt>
      <trkpt lat="48.77516" lon="7.36197">
        <ele>391.224854</ele>
        <time>2010-09-18T08:24:54Z</time>
      </trkpt>
      <trkpt lat="48.77521" lon="7.36197">
        <ele>390.513916</ele>
        <time>2010-09-18T08:24:57Z</time>
      </trkpt>
      <trkpt lat="48.77527" lon="7.36195">
        <ele>389.045166</ele>
        <time>2010-09-18T08:25:00Z</time>
      </trkpt>
      <trkpt lat="48.77531" lon="7.36189">
        <ele>387.896729</ele>
        <time>2010-09-18T08:25:02Z</time>
      </trkpt>
      <trkpt lat="48.77533" lon="7.36182">
        <ele>388.498291</ele>
        <time>2010-09-18T08:25:08Z</time>
      </trkpt>
      <trkpt lat="48.77531" lon="7.36176">
        <ele>389.842041</ele>
        <time>2010-09-18T08:25:13Z</time>
      </trkpt>
      <trkpt lat="48.7753" lon="7.36169">
        <ele>391.123291</ele>
        <time>2010-09-18T08:25:18Z</time>
      </trkpt>
      <trkpt lat="48.77529" lon="7.36161">
        <ele>391.623291</ele>
        <time>2010-09-18T08:25:21Z</time>
      </trkpt>
      <trkpt lat="48.77529" lon="7.36154">
        <ele>392.599854</ele>
        <time>2010-09-18T08:25:25Z</time>
      </trkpt>
      <trkpt lat="48.77533" lon="7.36155">
        <ele>392.709229</ele>
        <time>2010-09-18T08:26:58Z</time>
      </trkpt>
      <trkpt lat="48.77538" lon="7.36152">
        <ele>392.474854</ele>
        <time>2010-09-18T08:27:06Z</time>
      </trkpt>
      <trkpt lat="48.77539" lon="7.36144">
        <ele>393.748291</ele>
        <time>2010-09-18T08:27:32Z</time>
      </trkpt>
      <trkpt lat="48.77542" lon="7.36136">
        <ele>391.638916</ele>
        <time>2010-09-18T08:27:35Z</time>
      </trkpt>
      <trkpt lat="48.77543" lon="7.36128">
        <ele>392.388916</ele>
        <time>2010-09-18T08:27:37Z</time>
      </trkpt>
      <trkpt lat="48.77544" lon="7.36117">
        <ele>391.638916</ele>
        <time>2010-09-18T08:27:39Z</time>
      </trkpt>
      <trkpt lat="48.77544" lon="7.36103">
        <ele>391.443604</ele>
        <time>2010-09-18T08:27:41Z</time>
      </trkpt>
      <trkpt lat="48.77545" lon="7.36095">
        <ele>391.279541</ele>
        <time>2010-09-18T08:27:42Z</time>
      </trkpt>
      <trkpt lat="48.77546" lon="7.36086">
        <ele>391.623291</ele>
        <time>2010-09-18T08:27:43Z</time>
      </trkpt>
      <trkpt lat="48.77548" lon="7.36077">
        <ele>391.670166</ele>
        <time>2010-09-18T08:27:44Z</time>
      </trkpt>
      <trkpt lat="48.77548" lon="7.36068">
        <ele>392.302979</ele>
        <time>2010-09-18T08:27:45Z</time>
      </trkpt>
      <trkpt lat="48.77547" lon="7.36059">
        <ele>392.131104</ele>
        <time>2010-09-18T08:27:46Z</time>
      </trkpt>
      <trkpt lat="48.77547" lon="7.36049">
        <ele>391.951416</ele>
        <time>2010-09-18T08:27:47Z</time>
      </trkpt>
      <trkpt lat="48.77545" lon="7.36039">
        <ele>392.521729</ele>
        <time>2010-09-18T08:27:48Z</time>
      </trkpt>
      <trkpt lat="48.77543" lon="7.3603">
        <ele>391.592041</ele>
        <time>2010-09-18T08:27:49Z</time>
      </trkpt>
      <trkpt lat="48.77543" lon="7.3602">
        <ele>391.060791</ele>
        <time>2010-09-18T08:27:50Z</time>
      </trkpt>
      <trkpt lat="48.77541" lon="7.36011">
        <ele>389.084229</ele>
        <time>2010-09-18T08:27:51Z</time>
      </trkpt>
      <trkpt lat="48.77541" lon="7.36002">
        <ele>387.756104</ele>
        <time>2010-09-18T08:27:52Z</time>
      </trkpt>
      <trkpt lat="48.7754" lon="7.35993">
        <ele>387.404541</ele>
        <time>2010-09-18T08:27:53Z</time>
      </trkpt>
      <trkpt lat="48.7754" lon="7.35984">
        <ele>386.927979</ele>
        <time>2010-09-18T08:27:54Z</time>
      </trkpt>
      <trkpt lat="48.7754" lon="7.35976">
        <ele>386.982666</ele>
        <time>2010-09-18T08:27:55Z</time>
      </trkpt>
      <trkpt lat="48.77541" lon="7.35969">
        <ele>386.795166</ele>
        <time>2010-09-18T08:27:56Z</time>
      </trkpt>
      <trkpt lat="48.77542" lon="7.35963">
        <ele>386.724854</ele>
        <time>2010-09-18T08:27:57Z</time>
      </trkpt>
      <trkpt lat="48.77544" lon="7.35952">
        <ele>387.396729</ele>
        <time>2010-09-18T08:27:59Z</time>
      </trkpt>
      <trkpt lat="48.77545" lon="7.35945">
        <ele>388.146729</ele>
        <time>2010-09-18T08:28:03Z</time>
      </trkpt>
      <trkpt lat="48.77547" lon="7.35938">
        <ele>389.459229</ele>
        <time>2010-09-18T08:28:09Z</time>
      </trkpt>
      <trkpt lat="48.77548" lon="7.35929">
        <ele>388.451416</ele>
        <time>2010-09-18T08:28:12Z</time>
      </trkpt>
      <trkpt lat="48.77551" lon="7.35919">
        <ele>388.349854</ele>
        <time>2010-09-18T08:28:14Z</time>
      </trkpt>
      <trkpt lat="48.77554" lon="7.35907">
        <ele>388.756104</ele>
        <time>2010-09-18T08:28:16Z</time>
      </trkpt>
      <trkpt lat="48.77558" lon="7.35892">
        <ele>388.834229</ele>
        <time>2010-09-18T08:28:18Z</time>
      </trkpt>
      <trkpt lat="48.77561" lon="7.35882">
        <ele>388.513916</ele>
        <time>2010-09-18T08:28:19Z</time>
      </trkpt>
      <trkpt lat="48.77563" lon="7.35874">
        <ele>388.685791</ele>
        <time>2010-09-18T08:28:20Z</time>
      </trkpt>
      <trkpt lat="48.77564" lon="7.35866">
        <ele>389.334229</ele>
        <time>2010-09-18T08:28:21Z</time>
      </trkpt>
      <trkpt lat="48.77565" lon="7.3586">
        <ele>389.881104</ele>
        <time>2010-09-18T08:28:22Z</time>
      </trkpt>
      <trkpt lat="48.77569" lon="7.35846">
        <ele>390.654541</ele>
        <time>2010-09-18T08:28:24Z</time>
      </trkpt>
      <trkpt lat="48.7757" lon="7.35838">
        <ele>391.287354</ele>
        <time>2010-09-18T08:28:25Z</time>
      </trkpt>
      <trkpt lat="48.77571" lon="7.3583">
        <ele>391.920166</ele>
        <time>2010-09-18T08:28:26Z</time>
      </trkpt>
      <trkpt lat="48.77572" lon="7.35822">
        <ele>393.224854</ele>
        <time>2010-09-18T08:28:27Z</time>
      </trkpt>
      <trkpt lat="48.77572" lon="7.35814">
        <ele>394.185791</ele>
        <time>2010-09-18T08:28:28Z</time>
      </trkpt>
      <trkpt lat="48.77572" lon="7.35807">
        <ele>394.724854</ele>
        <time>2010-09-18T08:28:29Z</time>
      </trkpt>
      <trkpt lat="48.7757" lon="7.35798">
        <ele>394.068604</ele>
        <time>2010-09-18T08:28:30Z</time>
      </trkpt>
      <trkpt lat="48.77572" lon="7.35789">
        <ele>393.990479</ele>
        <time>2010-09-18T08:28:31Z</time>
      </trkpt>
      <trkpt lat="48.77573" lon="7.35782">
        <ele>394.865479</ele>
        <time>2010-09-18T08:28:32Z</time>
      </trkpt>
      <trkpt lat="48.77575" lon="7.35775">
        <ele>395.849854</ele>
        <time>2010-09-18T08:28:33Z</time>
      </trkpt>
      <trkpt lat="48.77577" lon="7.35767">
        <ele>397.146729</ele>
        <time>2010-09-18T08:28:34Z</time>
      </trkpt>
      <trkpt lat="48.77579" lon="7.3576">
        <ele>398.342041</ele>
        <time>2010-09-18T08:28:35Z</time>
      </trkpt>
      <trkpt lat="48.7758" lon="7.35751">
        <ele>397.427979</ele>
        <time>2010-09-18T08:28:36Z</time>
      </trkpt>
      <trkpt lat="48.77581" lon="7.35744">
        <ele>397.045166</ele>
        <time>2010-09-18T08:28:37Z</time>
      </trkpt>
      <trkpt lat="48.77581" lon="7.35736">
        <ele>396.318604</ele>
        <time>2010-09-18T08:28:38Z</time>
      </trkpt>
      <trkpt lat="48.77582" lon="7.35729">
        <ele>395.615479</ele>
        <time>2010-09-18T08:28:39Z</time>
      </trkpt>
      <trkpt lat="48.77585" lon="7.35715">
        <ele>394.873291</ele>
        <time>2010-09-18T08:28:41Z</time>
      </trkpt>
      <trkpt lat="48.77586" lon="7.35708">
        <ele>394.513916</ele>
        <time>2010-09-18T08:28:42Z</time>
      </trkpt>
      <trkpt lat="48.77588" lon="7.357">
        <ele>393.342041</ele>
        <time>2010-09-18T08:28:43Z</time>
      </trkpt>
      <trkpt lat="48.7759" lon="7.35693">
        <ele>393.568604</ele>
        <time>2010-09-18T08:28:44Z</time>
      </trkpt>
      <trkpt lat="48.77591" lon="7.35681">
        <ele>392.232666</ele>
        <time>2010-09-18T08:28:46Z</time>
      </trkpt>
      <trkpt lat="48.77588" lon="7.35673">
        <ele>386.427979</ele>
        <time>2010-09-18T08:28:47Z</time>
      </trkpt>
      <trkpt lat="48.77589" lon="7.35662">
        <ele>385.037354</ele>
        <time>2010-09-18T08:28:49Z</time>
      </trkpt>
      <trkpt lat="48.7759" lon="7.35654">
        <ele>384.982666</ele>
        <time>2010-09-18T08:28:51Z</time>
      </trkpt>
      <trkpt lat="48.77593" lon="7.35647">
        <ele>384.740479</ele>
        <time>2010-09-18T08:28:53Z</time>
      </trkpt>
      <trkpt lat="48.77595" lon="7.35642">
        <ele>384.920166</ele>
        <time>2010-09-18T08:28:55Z</time>
      </trkpt>
      <trkpt lat="48.77597" lon="7.35633">
        <ele>383.529541</ele>
        <time>2010-09-18T08:28:58Z</time>
      </trkpt>
      <trkpt lat="48.77598" lon="7.35627">
        <ele>382.959229</ele>
        <time>2010-09-18T08:29:01Z</time>
      </trkpt>
      <trkpt lat="48.77598" lon="7.35619">
        <ele>381.756104</ele>
        <time>2010-09-18T08:29:03Z</time>
      </trkpt>
      <trkpt lat="48.77601" lon="7.35609">
        <ele>381.232666</ele>
        <time>2010-09-18T08:29:05Z</time>
      </trkpt>
      <trkpt lat="48.77603" lon="7.35597">
        <ele>380.037354</ele>
        <time>2010-09-18T08:29:07Z</time>
      </trkpt>
      <trkpt lat="48.77604" lon="7.35589">
        <ele>379.131104</ele>
        <time>2010-09-18T08:29:10Z</time>
      </trkpt>
      <trkpt lat="48.77603" lon="7.35581">
        <ele>379.849854</ele>
        <time>2010-09-18T08:29:15Z</time>
      </trkpt>
      <trkpt lat="48.77606" lon="7.35576">
        <ele>379.467041</ele>
        <time>2010-09-18T08:29:31Z</time>
      </trkpt>
      <trkpt lat="48.77606" lon="7.35579">
        <ele>375.021729</ele>
        <time>2010-09-18T08:34:49Z</time>
      </trkpt>
      <trkpt lat="48.77607" lon="7.35571">
        <ele>373.365479</ele>
        <time>2010-09-18T08:37:08Z</time>
      </trkpt>
      <trkpt lat="48.77607" lon="7.35561">
        <ele>373.388916</ele>
        <time>2010-09-18T08:37:12Z</time>
      </trkpt>
      <trkpt lat="48.77609" lon="7.35552">
        <ele>374.623291</ele>
        <time>2010-09-18T08:37:15Z</time>
      </trkpt>
      <trkpt lat="48.7761" lon="7.35544">
        <ele>375.623291</ele>
        <time>2010-09-18T08:37:17Z</time>
      </trkpt>
      <trkpt lat="48.77612" lon="7.35537">
        <ele>376.381104</ele>
        <time>2010-09-18T08:37:19Z</time>
      </trkpt>
      <trkpt lat="48.77614" lon="7.35532">
        <ele>377.912354</ele>
        <time>2010-09-18T08:37:21Z</time>
      </trkpt>
      <trkpt lat="48.77616" lon="7.35525">
        <ele>378.990479</ele>
        <time>2010-09-18T08:37:23Z</time>
      </trkpt>
      <trkpt lat="48.77618" lon="7.35519">
        <ele>380.763916</ele>
        <time>2010-09-18T08:37:25Z</time>
      </trkpt>
      <trkpt lat="48.7762" lon="7.35512">
        <ele>382.342041</ele>
        <time>2010-09-18T08:37:27Z</time>
      </trkpt>
      <trkpt lat="48.77622" lon="7.35505">
        <ele>383.342041</ele>
        <time>2010-09-18T08:37:29Z</time>
      </trkpt>
      <trkpt lat="48.77624" lon="7.35498">
        <ele>384.451416</ele>
        <time>2010-09-18T08:37:31Z</time>
      </trkpt>
      <trkpt lat="48.77627" lon="7.3549">
        <ele>384.693604</ele>
        <time>2010-09-18T08:37:33Z</time>
      </trkpt>
      <trkpt lat="48.77626" lon="7.35479">
        <ele>384.107666</ele>
        <time>2010-09-18T08:37:35Z</time>
      </trkpt>
      <trkpt lat="48.77627" lon="7.3547">
        <ele>385.474854</ele>
        <time>2010-09-18T08:37:38Z</time>
      </trkpt>
      <trkpt lat="48.77627" lon="7.35461">
        <ele>387.334229</ele>
        <time>2010-09-18T08:37:41Z</time>
      </trkpt>
      <trkpt lat="48.77627" lon="7.35451">
        <ele>388.951416</ele>
        <time>2010-09-18T08:37:43Z</time>
      </trkpt>
      <trkpt lat="48.77628" lon="7.35444">
        <ele>389.092041</ele>
        <time>2010-09-18T08:37:45Z</time>
      </trkpt>
      <trkpt lat="48.77629" lon="7.35435">
        <ele>390.365479</ele>
        <time>2010-09-18T08:37:47Z</time>
      </trkpt>
      <trkpt lat="48.7763" lon="7.35428">
        <ele>390.998291</ele>
        <time>2010-09-18T08:37:49Z</time>
      </trkpt>
      <trkpt lat="48.77633" lon="7.3542">
        <ele>392.224854</ele>
        <time>2010-09-18T08:37:51Z</time>
      </trkpt>
      <trkpt lat="48.77635" lon="7.35413">
        <ele>393.826416</ele>
        <time>2010-09-18T08:37:53Z</time>
      </trkpt>
      <trkpt lat="48.77638" lon="7.35407">
        <ele>393.763916</ele>
        <time>2010-09-18T08:37:55Z</time>
      </trkpt>
      <trkpt lat="48.7764" lon="7.354">
        <ele>394.224854</ele>
        <time>2010-09-18T08:37:57Z</time>
      </trkpt>
      <trkpt lat="48.77643" lon="7.35394">
        <ele>394.982666</ele>
        <time>2010-09-18T08:37:59Z</time>
      </trkpt>
      <trkpt lat="48.77646" lon="7.35387">
        <ele>396.232666</ele>
        <time>2010-09-18T08:38:01Z</time>
      </trkpt>
      <trkpt lat="48.77648" lon="7.35378">
        <ele>396.240479</ele>
        <time>2010-09-18T08:38:04Z</time>
      </trkpt>
      <trkpt lat="48.77651" lon="7.35371">
        <ele>396.709229</ele>
        <time>2010-09-18T08:38:28Z</time>
      </trkpt>
      <trkpt lat="48.77652" lon="7.35363">
        <ele>395.263916</ele>
        <time>2010-09-18T08:38:36Z</time>
      </trkpt>
      <trkpt lat="48.77654" lon="7.35356">
        <ele>394.552979</ele>
        <time>2010-09-18T08:38:40Z</time>
      </trkpt>
      <trkpt lat="48.77655" lon="7.3535">
        <ele>395.623291</ele>
        <time>2010-09-18T08:38:43Z</time>
      </trkpt>
      <trkpt lat="48.77659" lon="7.35345">
        <ele>396.834229</ele>
        <time>2010-09-18T08:38:45Z</time>
      </trkpt>
      <trkpt lat="48.77663" lon="7.35337">
        <ele>398.107666</ele>
        <time>2010-09-18T08:38:46Z</time>
      </trkpt>
      <trkpt lat="48.77668" lon="7.35332">
        <ele>398.888916</ele>
        <time>2010-09-18T08:38:48Z</time>
      </trkpt>
      <trkpt lat="48.77672" lon="7.35328">
        <ele>400.943604</ele>
        <time>2010-09-18T08:38:50Z</time>
      </trkpt>
      <trkpt lat="48.77675" lon="7.35323">
        <ele>403.349854</ele>
        <time>2010-09-18T08:38:52Z</time>
      </trkpt>
      <trkpt lat="48.77678" lon="7.35317">
        <ele>405.427979</ele>
        <time>2010-09-18T08:38:54Z</time>
      </trkpt>
      <trkpt lat="48.77682" lon="7.3531">
        <ele>410.560791</ele>
        <time>2010-09-18T08:38:57Z</time>
      </trkpt>
      <trkpt lat="48.77689" lon="7.35309">
        <ele>410.412354</ele>
        <time>2010-09-18T08:39:00Z</time>
      </trkpt>
      <trkpt lat="48.77694" lon="7.35306">
        <ele>413.310791</ele>
        <time>2010-09-18T08:39:04Z</time>
      </trkpt>
      <trkpt lat="48.777" lon="7.35303">
        <ele>413.974854</ele>
        <time>2010-09-18T08:39:06Z</time>
      </trkpt>
      <trkpt lat="48.77704" lon="7.35298">
        <ele>414.490479</ele>
        <time>2010-09-18T08:39:07Z</time>
      </trkpt>
      <trkpt lat="48.77708" lon="7.35296">
        <ele>417.677979</ele>
        <time>2010-09-18T08:39:09Z</time>
      </trkpt>
      <trkpt lat="48.77714" lon="7.35296">
        <ele>415.787354</ele>
        <time>2010-09-18T08:39:11Z</time>
      </trkpt>
      <trkpt lat="48.7772" lon="7.35296">
        <ele>415.349854</ele>
        <time>2010-09-18T08:39:14Z</time>
      </trkpt>
      <trkpt lat="48.77726" lon="7.35295">
        <ele>416.490479</ele>
        <time>2010-09-18T08:39:17Z</time>
      </trkpt>
      <trkpt lat="48.77732" lon="7.35295">
        <ele>410.537354</ele>
        <time>2010-09-18T08:39:18Z</time>
      </trkpt>
      <trkpt lat="48.77738" lon="7.35293">
        <ele>408.467041</ele>
        <time>2010-09-18T08:39:20Z</time>
      </trkpt>
      <trkpt lat="48.77744" lon="7.35293">
        <ele>407.779541</ele>
        <time>2010-09-18T08:39:23Z</time>
      </trkpt>
      <trkpt lat="48.77749" lon="7.35291">
        <ele>407.459229</ele>
        <time>2010-09-18T08:39:26Z</time>
      </trkpt>
      <trkpt lat="48.77752" lon="7.35291">
        <ele>411.201416</ele>
        <time>2010-09-18T08:39:29Z</time>
      </trkpt>
      <trkpt lat="48.77754" lon="7.35298">
        <ele>411.256104</ele>
        <time>2010-09-18T08:39:31Z</time>
      </trkpt>
      <trkpt lat="48.77758" lon="7.35304">
        <ele>410.990479</ele>
        <time>2010-09-18T08:39:33Z</time>
      </trkpt>
      <trkpt lat="48.77759" lon="7.35314">
        <ele>409.271729</ele>
        <time>2010-09-18T08:39:35Z</time>
      </trkpt>
      <trkpt lat="48.77764" lon="7.35321">
        <ele>408.224854</ele>
        <time>2010-09-18T08:39:37Z</time>
      </trkpt>
      <trkpt lat="48.77768" lon="7.35328">
        <ele>408.467041</ele>
        <time>2010-09-18T08:39:39Z</time>
      </trkpt>
      <trkpt lat="48.77771" lon="7.35334">
        <ele>409.490479</ele>
        <time>2010-09-18T08:39:41Z</time>
      </trkpt>
      <trkpt lat="48.77774" lon="7.35339">
        <ele>410.599854</ele>
        <time>2010-09-18T08:39:43Z</time>
      </trkpt>
      <trkpt lat="48.77777" lon="7.35347">
        <ele>411.107666</ele>
        <time>2010-09-18T08:39:45Z</time>
      </trkpt>
      <trkpt lat="48.77782" lon="7.35356">
        <ele>410.068604</ele>
        <time>2010-09-18T08:39:47Z</time>
      </trkpt>
      <trkpt lat="48.77785" lon="7.35362">
        <ele>409.146729</ele>
        <time>2010-09-18T08:39:48Z</time>
      </trkpt>
      <trkpt lat="48.77791" lon="7.35369">
        <ele>406.834229</ele>
        <time>2010-09-18T08:39:50Z</time>
      </trkpt>
      <trkpt lat="48.77795" lon="7.35374">
        <ele>403.545166</ele>
        <time>2010-09-18T08:39:51Z</time>
      </trkpt>
      <trkpt lat="48.778" lon="7.3538">
        <ele>402.279541</ele>
        <time>2010-09-18T08:39:53Z</time>
      </trkpt>
      <trkpt lat="48.77805" lon="7.35387">
        <ele>401.701416</ele>
        <time>2010-09-18T08:39:55Z</time>
      </trkpt>
      <trkpt lat="48.77809" lon="7.35393">
        <ele>401.724854</ele>
        <time>2010-09-18T08:39:57Z</time>
      </trkpt>
      <trkpt lat="48.77813" lon="7.35403">
        <ele>401.310791</ele>
        <time>2010-09-18T08:39:59Z</time>
      </trkpt>
      <trkpt lat="48.77815" lon="7.3541">
        <ele>401.701416</ele>
        <time>2010-09-18T08:40:00Z</time>
      </trkpt>
      <trkpt lat="48.77819" lon="7.3542">
        <ele>400.717041</ele>
        <time>2010-09-18T08:40:02Z</time>
      </trkpt>
      <trkpt lat="48.77821" lon="7.35427">
        <ele>400.006104</ele>
        <time>2010-09-18T08:40:03Z</time>
      </trkpt>
      <trkpt lat="48.77824" lon="7.35434">
        <ele>399.427979</ele>
        <time>2010-09-18T08:40:04Z</time>
      </trkpt>
      <trkpt lat="48.77826" lon="7.35441">
        <ele>399.818604</ele>
        <time>2010-09-18T08:40:05Z</time>
      </trkpt>
      <trkpt lat="48.77829" lon="7.35449">
        <ele>399.724854</ele>
        <time>2010-09-18T08:40:06Z</time>
      </trkpt>
      <trkpt lat="48.77832" lon="7.35457">
        <ele>399.154541</ele>
        <time>2010-09-18T08:40:07Z</time>
      </trkpt>
      <trkpt lat="48.77835" lon="7.35465">
        <ele>398.935791</ele>
        <time>2010-09-18T08:40:08Z</time>
      </trkpt>
      <trkpt lat="48.77838" lon="7.35473">
        <ele>398.748291</ele>
        <time>2010-09-18T08:40:09Z</time>
      </trkpt>
      <trkpt lat="48.77842" lon="7.3548">
        <ele>398.256104</ele>
        <time>2010-09-18T08:40:10Z</time>
      </trkpt>
      <trkpt lat="48.77846" lon="7.35487">
        <ele>397.826416</ele>
        <time>2010-09-18T08:40:11Z</time>
      </trkpt>
      <trkpt lat="48.77849" lon="7.35495">
        <ele>398.006104</ele>
        <time>2010-09-18T08:40:12Z</time>
      </trkpt>
      <trkpt lat="48.77853" lon="7.35502">
        <ele>398.427979</ele>
        <time>2010-09-18T08:40:13Z</time>
      </trkpt>
      <trkpt lat="48.77858" lon="7.35509">
        <ele>398.873291</ele>
        <time>2010-09-18T08:40:14Z</time>
      </trkpt>
      <trkpt lat="48.77864" lon="7.35516">
        <ele>398.568604</ele>
        <time>2010-09-18T08:40:15Z</time>
      </trkpt>
      <trkpt lat="48.77868" lon="7.3552">
        <ele>398.474854</ele>
        <time>2010-09-18T08:40:16Z</time>
      </trkpt>
      <trkpt lat="48.77872" lon="7.3553">
        <ele>398.201416</ele>
        <time>2010-09-18T08:40:18Z</time>
      </trkpt>
      <trkpt lat="48.77876" lon="7.35544">
        <ele>397.927979</ele>
        <time>2010-09-18T08:40:20Z</time>
      </trkpt>
      <trkpt lat="48.77876" lon="7.35553">
        <ele>397.802979</ele>
        <time>2010-09-18T08:40:21Z</time>
      </trkpt>
      <trkpt lat="48.77877" lon="7.35564">
        <ele>397.974854</ele>
        <time>2010-09-18T08:40:22Z</time>
      </trkpt>
      <trkpt lat="48.77879" lon="7.35578">
        <ele>396.857666</ele>
        <time>2010-09-18T08:40:23Z</time>
      </trkpt>
      <trkpt lat="48.7788" lon="7.35592">
        <ele>396.935791</ele>
        <time>2010-09-18T08:40:24Z</time>
      </trkpt>
      <trkpt lat="48.77883" lon="7.35603">
        <ele>396.177979</ele>
        <time>2010-09-18T08:40:25Z</time>
      </trkpt>
      <trkpt lat="48.77886" lon="7.35613">
        <ele>395.646729</ele>
        <time>2010-09-18T08:40:26Z</time>
      </trkpt>
      <trkpt lat="48.77889" lon="7.35622">
        <ele>396.498291</ele>
        <time>2010-09-18T08:40:27Z</time>
      </trkpt>
      <trkpt lat="48.77892" lon="7.35632">
        <ele>395.615479</ele>
        <time>2010-09-18T08:40:28Z</time>
      </trkpt>
      <trkpt lat="48.77894" lon="7.35641">
        <ele>396.545166</ele>
        <time>2010-09-18T08:40:29Z</time>
      </trkpt>
      <trkpt lat="48.77897" lon="7.3565">
        <ele>395.967041</ele>
        <time>2010-09-18T08:40:30Z</time>
      </trkpt>
      <trkpt lat="48.77899" lon="7.3566">
        <ele>395.717041</ele>
        <time>2010-09-18T08:40:31Z</time>
      </trkpt>
      <trkpt lat="48.77902" lon="7.35669">
        <ele>394.959229</ele>
        <time>2010-09-18T08:40:32Z</time>
      </trkpt>
      <trkpt lat="48.77905" lon="7.35677">
        <ele>394.990479</ele>
        <time>2010-09-18T08:40:33Z</time>
      </trkpt>
      <trkpt lat="48.77908" lon="7.35684">
        <ele>394.248291</ele>
        <time>2010-09-18T08:40:34Z</time>
      </trkpt>
      <trkpt lat="48.77911" lon="7.35692">
        <ele>393.865479</ele>
        <time>2010-09-18T08:40:35Z</time>
      </trkpt>
      <trkpt lat="48.77914" lon="7.35701">
        <ele>393.545166</ele>
        <time>2010-09-18T08:40:36Z</time>
      </trkpt>
      <trkpt lat="48.77916" lon="7.3571">
        <ele>393.560791</ele>
        <time>2010-09-18T08:40:37Z</time>
      </trkpt>
      <trkpt lat="48.77918" lon="7.35719">
        <ele>393.826416</ele>
        <time>2010-09-18T08:40:38Z</time>
      </trkpt>
      <trkpt lat="48.77921" lon="7.35726">
        <ele>394.037354</ele>
        <time>2010-09-18T08:40:39Z</time>
      </trkpt>
      <trkpt lat="48.77924" lon="7.35734">
        <ele>394.185791</ele>
        <time>2010-09-18T08:40:40Z</time>
      </trkpt>
      <trkpt lat="48.77927" lon="7.35743">
        <ele>394.224854</ele>
        <time>2010-09-18T08:40:41Z</time>
      </trkpt>
      <trkpt lat="48.7793" lon="7.35751">
        <ele>393.810791</ele>
        <time>2010-09-18T08:40:42Z</time>
      </trkpt>
      <trkpt lat="48.77933" lon="7.35759">
        <ele>393.615479</ele>
        <time>2010-09-18T08:40:43Z</time>
      </trkpt>
      <trkpt lat="48.77936" lon="7.35767">
        <ele>393.427979</ele>
        <time>2010-09-18T08:40:44Z</time>
      </trkpt>
      <trkpt lat="48.77938" lon="7.35775">
        <ele>393.326416</ele>
        <time>2010-09-18T08:40:45Z</time>
      </trkpt>
      <trkpt lat="48.7794" lon="7.35783">
        <ele>393.482666</ele>
        <time>2010-09-18T08:40:46Z</time>
      </trkpt>
      <trkpt lat="48.77942" lon="7.35791">
        <ele>393.623291</ele>
        <time>2010-09-18T08:40:47Z</time>
      </trkpt>
      <trkpt lat="48.77943" lon="7.358">
        <ele>393.029541</ele>
        <time>2010-09-18T08:40:48Z</time>
      </trkpt>
      <trkpt lat="48.77943" lon="7.35809">
        <ele>393.138916</ele>
        <time>2010-09-18T08:40:49Z</time>
      </trkpt>
      <trkpt lat="48.77945" lon="7.35816">
        <ele>393.021729</ele>
        <time>2010-09-18T08:40:50Z</time>
      </trkpt>
      <trkpt lat="48.77946" lon="7.35824">
        <ele>392.896729</ele>
        <time>2010-09-18T08:40:51Z</time>
      </trkpt>
      <trkpt lat="48.77946" lon="7.35832">
        <ele>392.912354</ele>
        <time>2010-09-18T08:40:52Z</time>
      </trkpt>
      <trkpt lat="48.77945" lon="7.35841">
        <ele>391.959229</ele>
        <time>2010-09-18T08:40:53Z</time>
      </trkpt>
      <trkpt lat="48.77943" lon="7.35852">
        <ele>391.388916</ele>
        <time>2010-09-18T08:40:54Z</time>
      </trkpt>
      <trkpt lat="48.77942" lon="7.35864">
        <ele>390.701416</ele>
        <time>2010-09-18T08:40:55Z</time>
      </trkpt>
      <trkpt lat="48.77942" lon="7.35875">
        <ele>390.248291</ele>
        <time>2010-09-18T08:40:56Z</time>
      </trkpt>
      <trkpt lat="48.77942" lon="7.35886">
        <ele>388.740479</ele>
        <time>2010-09-18T08:40:57Z</time>
      </trkpt>
      <trkpt lat="48.77943" lon="7.35899">
        <ele>388.709229</ele>
        <time>2010-09-18T08:40:58Z</time>
      </trkpt>
      <trkpt lat="48.77943" lon="7.35911">
        <ele>388.834229</ele>
        <time>2010-09-18T08:40:59Z</time>
      </trkpt>
      <trkpt lat="48.77945" lon="7.35922">
        <ele>387.326416</ele>
        <time>2010-09-18T08:41:00Z</time>
      </trkpt>
      <trkpt lat="48.77945" lon="7.35931">
        <ele>387.146729</ele>
        <time>2010-09-18T08:41:01Z</time>
      </trkpt>
      <trkpt lat="48.77945" lon="7.35941">
        <ele>386.646729</ele>
        <time>2010-09-18T08:41:02Z</time>
      </trkpt>
      <trkpt lat="48.77944" lon="7.35952">
        <ele>385.662354</ele>
        <time>2010-09-18T08:41:03Z</time>
      </trkpt>
      <trkpt lat="48.77945" lon="7.35963">
        <ele>386.224854</ele>
        <time>2010-09-18T08:41:04Z</time>
      </trkpt>
      <trkpt lat="48.77946" lon="7.35971">
        <ele>386.318604</ele>
        <time>2010-09-18T08:41:05Z</time>
      </trkpt>
      <trkpt lat="48.77948" lon="7.35979">
        <ele>385.912354</ele>
        <time>2010-09-18T08:41:06Z</time>
      </trkpt>
      <trkpt lat="48.77949" lon="7.35989">
        <ele>385.912354</ele>
        <time>2010-09-18T08:41:07Z</time>
      </trkpt>
      <trkpt lat="48.77951" lon="7.35997">
        <ele>386.217041</ele>
        <time>2010-09-18T08:41:08Z</time>
      </trkpt>
      <trkpt lat="48.77953" lon="7.36005">
        <ele>385.967041</ele>
        <time>2010-09-18T08:41:09Z</time>
      </trkpt>
      <trkpt lat="48.77955" lon="7.36013">
        <ele>386.810791</ele>
        <time>2010-09-18T08:41:10Z</time>
      </trkpt>
      <trkpt lat="48.77959" lon="7.36025">
        <ele>386.217041</ele>
        <time>2010-09-18T08:41:12Z</time>
      </trkpt>
      <trkpt lat="48.77963" lon="7.36032">
        <ele>386.154541</ele>
        <time>2010-09-18T08:41:13Z</time>
      </trkpt>
      <trkpt lat="48.77966" lon="7.36044">
        <ele>386.302979</ele>
        <time>2010-09-18T08:41:15Z</time>
      </trkpt>
      <trkpt lat="48.77968" lon="7.36051">
        <ele>386.045166</ele>
        <time>2010-09-18T08:41:16Z</time>
      </trkpt>
      <trkpt lat="48.77968" lon="7.36059">
        <ele>386.912354</ele>
        <time>2010-09-18T08:41:17Z</time>
      </trkpt>
      <trkpt lat="48.77969" lon="7.36067">
        <ele>387.756104</ele>
        <time>2010-09-18T08:41:18Z</time>
      </trkpt>
      <trkpt lat="48.77969" lon="7.36074">
        <ele>388.842041</ele>
        <time>2010-09-18T08:41:19Z</time>
      </trkpt>
      <trkpt lat="48.77971" lon="7.36081">
        <ele>390.334229</ele>
        <time>2010-09-18T08:41:20Z</time>
      </trkpt>
      <trkpt lat="48.77972" lon="7.36089">
        <ele>390.451416</ele>
        <time>2010-09-18T08:41:21Z</time>
      </trkpt>
      <trkpt lat="48.77975" lon="7.36095">
        <ele>391.404541</ele>
        <time>2010-09-18T08:41:22Z</time>
      </trkpt>
      <trkpt lat="48.77975" lon="7.36108">
        <ele>391.365479</ele>
        <time>2010-09-18T08:41:24Z</time>
      </trkpt>
      <trkpt lat="48.77976" lon="7.36121">
        <ele>393.732666</ele>
        <time>2010-09-18T08:41:26Z</time>
      </trkpt>
      <trkpt lat="48.77977" lon="7.36128">
        <ele>394.326416</ele>
        <time>2010-09-18T08:41:27Z</time>
      </trkpt>
      <trkpt lat="48.77982" lon="7.36139">
        <ele>393.779541</ele>
        <time>2010-09-18T08:41:29Z</time>
      </trkpt>
      <trkpt lat="48.77984" lon="7.36151">
        <ele>395.482666</ele>
        <time>2010-09-18T08:41:31Z</time>
      </trkpt>
      <trkpt lat="48.77987" lon="7.36161">
        <ele>395.412354</ele>
        <time>2010-09-18T08:41:33Z</time>
      </trkpt>
      <trkpt lat="48.7799" lon="7.36175">
        <ele>394.310791</ele>
        <time>2010-09-18T08:41:35Z</time>
      </trkpt>
      <trkpt lat="48.7799" lon="7.36182">
        <ele>394.045166</ele>
        <time>2010-09-18T08:41:36Z</time>
      </trkpt>
      <trkpt lat="48.77992" lon="7.36189">
        <ele>393.638916</ele>
        <time>2010-09-18T08:41:37Z</time>
      </trkpt>
      <trkpt lat="48.77994" lon="7.36196">
        <ele>393.013916</ele>
        <time>2010-09-18T08:41:38Z</time>
      </trkpt>
      <trkpt lat="48.77995" lon="7.36202">
        <ele>392.240479</ele>
        <time>2010-09-18T08:41:39Z</time>
      </trkpt>
      <trkpt lat="48.77994" lon="7.36215">
        <ele>391.552979</ele>
        <time>2010-09-18T08:41:41Z</time>
      </trkpt>
      <trkpt lat="48.77992" lon="7.36226">
        <ele>390.779541</ele>
        <time>2010-09-18T08:41:43Z</time>
      </trkpt>
      <trkpt lat="48.77991" lon="7.36237">
        <ele>389.224854</ele>
        <time>2010-09-18T08:41:45Z</time>
      </trkpt>
      <trkpt lat="48.7799" lon="7.36244">
        <ele>388.654541</ele>
        <time>2010-09-18T08:41:46Z</time>
      </trkpt>
      <trkpt lat="48.77988" lon="7.36252">
        <ele>387.787354</ele>
        <time>2010-09-18T08:41:47Z</time>
      </trkpt>
      <trkpt lat="48.77988" lon="7.3626">
        <ele>386.537354</ele>
        <time>2010-09-18T08:41:48Z</time>
      </trkpt>
      <trkpt lat="48.77987" lon="7.36269">
        <ele>384.349854</ele>
        <time>2010-09-18T08:41:49Z</time>
      </trkpt>
      <trkpt lat="48.77986" lon="7.36282">
        <ele>383.599854</ele>
        <time>2010-09-18T08:41:51Z</time>
      </trkpt>
      <trkpt lat="48.77984" lon="7.3629">
        <ele>382.927979</ele>
        <time>2010-09-18T08:41:52Z</time>
      </trkpt>
      <trkpt lat="48.77984" lon="7.36303">
        <ele>381.052979</ele>
        <time>2010-09-18T08:41:54Z</time>
      </trkpt>
      <trkpt lat="48.77982" lon="7.36317">
        <ele>381.013916</ele>
        <time>2010-09-18T08:41:56Z</time>
      </trkpt>
      <trkpt lat="48.77982" lon="7.36325">
        <ele>379.396729</ele>
        <time>2010-09-18T08:41:57Z</time>
      </trkpt>
      <trkpt lat="48.77983" lon="7.36336">
        <ele>378.443604</ele>
        <time>2010-09-18T08:41:59Z</time>
      </trkpt>
      <trkpt lat="48.77984" lon="7.36345">
        <ele>376.826416</ele>
        <time>2010-09-18T08:42:02Z</time>
      </trkpt>
      <trkpt lat="48.77985" lon="7.36352">
        <ele>375.467041</ele>
        <time>2010-09-18T08:42:08Z</time>
      </trkpt>
      <trkpt lat="48.77983" lon="7.36362">
        <ele>373.662354</ele>
        <time>2010-09-18T08:42:11Z</time>
      </trkpt>
      <trkpt lat="48.7798" lon="7.36369">
        <ele>372.084229</ele>
        <time>2010-09-18T08:42:14Z</time>
      </trkpt>
      <trkpt lat="48.77982" lon="7.36376">
        <ele>371.498291</ele>
        <time>2010-09-18T08:42:25Z</time>
      </trkpt>
      <trkpt lat="48.7798" lon="7.36382">
        <ele>372.021729</ele>
        <time>2010-09-18T08:42:27Z</time>
      </trkpt>
      <trkpt lat="48.77979" lon="7.36389">
        <ele>372.177979</ele>
        <time>2010-09-18T08:42:30Z</time>
      </trkpt>
      <trkpt lat="48.77979" lon="7.36397">
        <ele>371.217041</ele>
        <time>2010-09-18T08:42:34Z</time>
      </trkpt>
      <trkpt lat="48.77979" lon="7.36405">
        <ele>370.412354</ele>
        <time>2010-09-18T08:42:37Z</time>
      </trkpt>
      <trkpt lat="48.77977" lon="7.36412">
        <ele>369.670166</ele>
        <time>2010-09-18T08:42:39Z</time>
      </trkpt>
      <trkpt lat="48.77978" lon="7.3642">
        <ele>368.834229</ele>
        <time>2010-09-18T08:42:42Z</time>
      </trkpt>
      <trkpt lat="48.77977" lon="7.36428">
        <ele>368.263916</ele>
        <time>2010-09-18T08:42:44Z</time>
      </trkpt>
      <trkpt lat="48.77974" lon="7.36436">
        <ele>368.185791</ele>
        <time>2010-09-18T08:42:53Z</time>
      </trkpt>
      <trkpt lat="48.77972" lon="7.36445">
        <ele>368.177979</ele>
        <time>2010-09-18T08:42:57Z</time>
      </trkpt>
      <trkpt lat="48.77968" lon="7.36452">
        <ele>367.927979</ele>
        <time>2010-09-18T08:42:58Z</time>
      </trkpt>
      <trkpt lat="48.77966" lon="7.36466">
        <ele>368.248291</ele>
        <time>2010-09-18T08:43:00Z</time>
      </trkpt>
      <trkpt lat="48.77968" lon="7.36484">
        <ele>368.646729</ele>
        <time>2010-09-18T08:43:01Z</time>
      </trkpt>
      <trkpt lat="48.77966" lon="7.36491">
        <ele>367.045166</ele>
        <time>2010-09-18T08:43:02Z</time>
      </trkpt>
      <trkpt lat="48.77965" lon="7.36505">
        <ele>366.404541</ele>
        <time>2010-09-18T08:43:04Z</time>
      </trkpt>
      <trkpt lat="48.77963" lon="7.36515">
        <ele>365.693604</ele>
        <time>2010-09-18T08:43:05Z</time>
      </trkpt>
      <trkpt lat="48.77961" lon="7.36523">
        <ele>364.521729</ele>
        <time>2010-09-18T08:43:06Z</time>
      </trkpt>
      <trkpt lat="48.7796" lon="7.36533">
        <ele>363.318604</ele>
        <time>2010-09-18T08:43:07Z</time>
      </trkpt>
      <trkpt lat="48.7796" lon="7.36543">
        <ele>362.420166</ele>
        <time>2010-09-18T08:43:08Z</time>
      </trkpt>
      <trkpt lat="48.77957" lon="7.36553">
        <ele>360.724854</ele>
        <time>2010-09-18T08:43:09Z</time>
      </trkpt>
      <trkpt lat="48.77957" lon="7.36559">
        <ele>358.334229</ele>
        <time>2010-09-18T08:43:10Z</time>
      </trkpt>
      <trkpt lat="48.77953" lon="7.36567">
        <ele>357.412354</ele>
        <time>2010-09-18T08:43:11Z</time>
      </trkpt>
      <trkpt lat="48.77951" lon="7.36573">
        <ele>357.107666</ele>
        <time>2010-09-18T08:43:12Z</time>
      </trkpt>
      <trkpt lat="48.7795" lon="7.3658">
        <ele>355.842041</ele>
        <time>2010-09-18T08:43:13Z</time>
      </trkpt>
      <trkpt lat="48.7795" lon="7.36587">
        <ele>354.810791</ele>
        <time>2010-09-18T08:43:14Z</time>
      </trkpt>
      <trkpt lat="48.7795" lon="7.36595">
        <ele>353.443604</ele>
        <time>2010-09-18T08:43:15Z</time>
      </trkpt>
      <trkpt lat="48.77948" lon="7.36603">
        <ele>352.060791</ele>
        <time>2010-09-18T08:43:16Z</time>
      </trkpt>
      <trkpt lat="48.77947" lon="7.36617">
        <ele>348.482666</ele>
        <time>2010-09-18T08:43:18Z</time>
      </trkpt>
      <trkpt lat="48.77947" lon="7.36624">
        <ele>347.092041</ele>
        <time>2010-09-18T08:43:19Z</time>
      </trkpt>
      <trkpt lat="48.77944" lon="7.36636">
        <ele>346.771729</ele>
        <time>2010-09-18T08:43:21Z</time>
      </trkpt>
      <trkpt lat="48.77942" lon="7.36644">
        <ele>346.076416</ele>
        <time>2010-09-18T08:43:22Z</time>
      </trkpt>
      <trkpt lat="48.77944" lon="7.36651">
        <ele>342.662354</ele>
        <time>2010-09-18T08:43:23Z</time>
      </trkpt>
      <trkpt lat="48.77944" lon="7.36663">
        <ele>340.654541</ele>
        <time>2010-09-18T08:43:25Z</time>
      </trkpt>
      <trkpt lat="48.77941" lon="7.36675">
        <ele>338.420166</ele>
        <time>2010-09-18T08:43:27Z</time>
      </trkpt>
      <trkpt lat="48.77939" lon="7.36687">
        <ele>335.412354</ele>
        <time>2010-09-18T08:43:29Z</time>
      </trkpt>
      <trkpt lat="48.77938" lon="7.36694">
        <ele>333.881104</ele>
        <time>2010-09-18T08:43:30Z</time>
      </trkpt>
      <trkpt lat="48.77937" lon="7.36701">
        <ele>331.740479</ele>
        <time>2010-09-18T08:43:31Z</time>
      </trkpt>
      <trkpt lat="48.77936" lon="7.3671">
        <ele>329.521729</ele>
        <time>2010-09-18T08:43:32Z</time>
      </trkpt>
      <trkpt lat="48.77936" lon="7.36719">
        <ele>328.248291</ele>
        <time>2010-09-18T08:43:33Z</time>
      </trkpt>
      <trkpt lat="48.77935" lon="7.36729">
        <ele>326.592041</ele>
        <time>2010-09-18T08:43:34Z</time>
      </trkpt>
      <trkpt lat="48.77935" lon="7.3674">
        <ele>325.170166</ele>
        <time>2010-09-18T08:43:35Z</time>
      </trkpt>
      <trkpt lat="48.77935" lon="7.3675">
        <ele>325.224854</ele>
        <time>2010-09-18T08:43:36Z</time>
      </trkpt>
      <trkpt lat="48.77934" lon="7.3676">
        <ele>325.482666</ele>
        <time>2010-09-18T08:43:37Z</time>
      </trkpt>
      <trkpt lat="48.77933" lon="7.3677">
        <ele>324.060791</ele>
        <time>2010-09-18T08:43:38Z</time>
      </trkpt>
      <trkpt lat="48.77932" lon="7.36779">
        <ele>324.060791</ele>
        <time>2010-09-18T08:43:39Z</time>
      </trkpt>
      <trkpt lat="48.77931" lon="7.36788">
        <ele>323.935791</ele>
        <time>2010-09-18T08:43:40Z</time>
      </trkpt>
      <trkpt lat="48.77931" lon="7.36797">
        <ele>323.060791</ele>
        <time>2010-09-18T08:43:41Z</time>
      </trkpt>
      <trkpt lat="48.77931" lon="7.36807">
        <ele>321.748291</ele>
        <time>2010-09-18T08:43:42Z</time>
      </trkpt>
      <trkpt lat="48.77929" lon="7.36815">
        <ele>321.209229</ele>
        <time>2010-09-18T08:43:43Z</time>
      </trkpt>
      <trkpt lat="48.77925" lon="7.36824">
        <ele>321.052979</ele>
        <time>2010-09-18T08:43:44Z</time>
      </trkpt>
      <trkpt lat="48.77921" lon="7.36833">
        <ele>320.279541</ele>
        <time>2010-09-18T08:43:45Z</time>
      </trkpt>
      <trkpt lat="48.77919" lon="7.36843">
        <ele>319.177979</ele>
        <time>2010-09-18T08:43:46Z</time>
      </trkpt>
      <trkpt lat="48.77918" lon="7.36852">
        <ele>318.701416</ele>
        <time>2010-09-18T08:43:47Z</time>
      </trkpt>
      <trkpt lat="48.77916" lon="7.3686">
        <ele>318.193604</ele>
        <time>2010-09-18T08:43:48Z</time>
      </trkpt>
      <trkpt lat="48.77914" lon="7.36868">
        <ele>317.529541</ele>
        <time>2010-09-18T08:43:49Z</time>
      </trkpt>
      <trkpt lat="48.77914" lon="7.36875">
        <ele>317.404541</ele>
        <time>2010-09-18T08:43:50Z</time>
      </trkpt>
      <trkpt lat="48.77913" lon="7.36883">
        <ele>316.779541</ele>
        <time>2010-09-18T08:43:51Z</time>
      </trkpt>
      <trkpt lat="48.77912" lon="7.3689">
        <ele>315.740479</ele>
        <time>2010-09-18T08:43:52Z</time>
      </trkpt>
      <trkpt lat="48.7791" lon="7.36897">
        <ele>315.318604</ele>
        <time>2010-09-18T08:43:53Z</time>
      </trkpt>
      <trkpt lat="48.7791" lon="7.36904">
        <ele>314.795166</ele>
        <time>2010-09-18T08:43:54Z</time>
      </trkpt>
      <trkpt lat="48.7791" lon="7.36914">
        <ele>314.099854</ele>
        <time>2010-09-18T08:43:56Z</time>
      </trkpt>
      <trkpt lat="48.77908" lon="7.36924">
        <ele>312.951416</ele>
        <time>2010-09-18T08:43:58Z</time>
      </trkpt>
      <trkpt lat="48.77907" lon="7.36933">
        <ele>312.302979</ele>
        <time>2010-09-18T08:44:00Z</time>
      </trkpt>
      <trkpt lat="48.77903" lon="7.36942">
        <ele>311.724854</ele>
        <time>2010-09-18T08:44:02Z</time>
      </trkpt>
      <trkpt lat="48.77902" lon="7.36948">
        <ele>310.271729</ele>
        <time>2010-09-18T08:44:03Z</time>
      </trkpt>
      <trkpt lat="48.77899" lon="7.36954">
        <ele>309.646729</ele>
        <time>2010-09-18T08:44:04Z</time>
      </trkpt>
      <trkpt lat="48.77897" lon="7.36961">
        <ele>309.373291</ele>
        <time>2010-09-18T08:44:06Z</time>
      </trkpt>
      <trkpt lat="48.77895" lon="7.36952">
        <ele>307.740479</ele>
        <time>2010-09-18T08:44:13Z</time>
      </trkpt>
      <trkpt lat="48.77894" lon="7.36944">
        <ele>308.763916</ele>
        <time>2010-09-18T08:44:15Z</time>
      </trkpt>
      <trkpt lat="48.7789" lon="7.36937">
        <ele>309.568604</ele>
        <time>2010-09-18T08:44:17Z</time>
      </trkpt>
      <trkpt lat="48.77889" lon="7.36929">
        <ele>310.052979</ele>
        <time>2010-09-18T08:44:19Z</time>
      </trkpt>
      <trkpt lat="48.77889" lon="7.3692">
        <ele>311.138916</ele>
        <time>2010-09-18T08:44:21Z</time>
      </trkpt>
      <trkpt lat="48.77888" lon="7.36912">
        <ele>313.670166</ele>
        <time>2010-09-18T08:44:23Z</time>
      </trkpt>
      <trkpt lat="48.77887" lon="7.36903">
        <ele>317.599854</ele>
        <time>2010-09-18T08:44:25Z</time>
      </trkpt>
      <trkpt lat="48.77887" lon="7.36895">
        <ele>318.467041</ele>
        <time>2010-09-18T08:44:27Z</time>
      </trkpt>
      <trkpt lat="48.77887" lon="7.36888">
        <ele>322.115479</ele>
        <time>2010-09-18T08:44:29Z</time>
      </trkpt>
      <trkpt lat="48.77887" lon="7.36878">
        <ele>326.193604</ele>
        <time>2010-09-18T08:44:31Z</time>
      </trkpt>
      <trkpt lat="48.77885" lon="7.36869">
        <ele>329.498291</ele>
        <time>2010-09-18T08:44:33Z</time>
      </trkpt>
      <trkpt lat="48.77886" lon="7.36861">
        <ele>332.185791</ele>
        <time>2010-09-18T08:44:35Z</time>
      </trkpt>
      <trkpt lat="48.77885" lon="7.36852">
        <ele>334.959229</ele>
        <time>2010-09-18T08:44:37Z</time>
      </trkpt>
      <trkpt lat="48.77882" lon="7.36844">
        <ele>337.521729</ele>
        <time>2010-09-18T08:44:39Z</time>
      </trkpt>
      <trkpt lat="48.77884" lon="7.36838">
        <ele>334.607666</ele>
        <time>2010-09-18T08:44:40Z</time>
      </trkpt>
      <trkpt lat="48.77884" lon="7.36827">
        <ele>334.521729</ele>
        <time>2010-09-18T08:44:42Z</time>
      </trkpt>
      <trkpt lat="48.77884" lon="7.36819">
        <ele>336.677979</ele>
        <time>2010-09-18T08:44:44Z</time>
      </trkpt>
      <trkpt lat="48.77883" lon="7.36809">
        <ele>337.857666</ele>
        <time>2010-09-18T08:44:46Z</time>
      </trkpt>
      <trkpt lat="48.7788" lon="7.368">
        <ele>344.990479</ele>
        <time>2010-09-18T08:44:48Z</time>
      </trkpt>
      <trkpt lat="48.7788" lon="7.36792">
        <ele>347.279541</ele>
        <time>2010-09-18T08:44:50Z</time>
      </trkpt>
      <trkpt lat="48.77879" lon="7.36784">
        <ele>350.740479</ele>
        <time>2010-09-18T08:44:52Z</time>
      </trkpt>
      <trkpt lat="48.77879" lon="7.36776">
        <ele>348.896729</ele>
        <time>2010-09-18T08:44:54Z</time>
      </trkpt>
      <trkpt lat="48.77883" lon="7.36768">
        <ele>341.998291</ele>
        <time>2010-09-18T08:44:56Z</time>
      </trkpt>
      <trkpt lat="48.77883" lon="7.3676">
        <ele>341.756104</ele>
        <time>2010-09-18T08:44:58Z</time>
      </trkpt>
      <trkpt lat="48.77882" lon="7.36752">
        <ele>344.115479</ele>
        <time>2010-09-18T08:45:00Z</time>
      </trkpt>
      <trkpt lat="48.77883" lon="7.36745">
        <ele>345.513916</ele>
        <time>2010-09-18T08:45:02Z</time>
      </trkpt>
      <trkpt lat="48.77882" lon="7.36736">
        <ele>348.287354</ele>
        <time>2010-09-18T08:45:04Z</time>
      </trkpt>
      <trkpt lat="48.77883" lon="7.36729">
        <ele>348.357666</ele>
        <time>2010-09-18T08:45:06Z</time>
      </trkpt>
      <trkpt lat="48.77884" lon="7.3672">
        <ele>349.459229</ele>
        <time>2010-09-18T08:45:08Z</time>
      </trkpt>
      <trkpt lat="48.77885" lon="7.36711">
        <ele>349.279541</ele>
        <time>2010-09-18T08:45:10Z</time>
      </trkpt>
      <trkpt lat="48.77883" lon="7.36702">
        <ele>353.006104</ele>
        <time>2010-09-18T08:45:12Z</time>
      </trkpt>
      <trkpt lat="48.77883" lon="7.36694">
        <ele>355.498291</ele>
        <time>2010-09-18T08:45:14Z</time>
      </trkpt>
      <trkpt lat="48.77885" lon="7.36685">
        <ele>357.279541</ele>
        <time>2010-09-18T08:45:16Z</time>
      </trkpt>
      <trkpt lat="48.77884" lon="7.36678">
        <ele>356.834229</ele>
        <time>2010-09-18T08:45:18Z</time>
      </trkpt>
      <trkpt lat="48.77885" lon="7.36668">
        <ele>358.443604</ele>
        <time>2010-09-18T08:45:21Z</time>
      </trkpt>
      <trkpt lat="48.77886" lon="7.36659">
        <ele>359.240479</ele>
        <time>2010-09-18T08:45:23Z</time>
      </trkpt>
      <trkpt lat="48.77887" lon="7.36653">
        <ele>357.568604</ele>
        <time>2010-09-18T08:45:24Z</time>
      </trkpt>
      <trkpt lat="48.77889" lon="7.36645">
        <ele>357.451416</ele>
        <time>2010-09-18T08:45:26Z</time>
      </trkpt>
      <trkpt lat="48.7789" lon="7.36634">
        <ele>357.599854</ele>
        <time>2010-09-18T08:45:28Z</time>
      </trkpt>
      <trkpt lat="48.77892" lon="7.36626">
        <ele>355.592041</ele>
        <time>2010-09-18T08:45:30Z</time>
      </trkpt>
      <trkpt lat="48.77895" lon="7.3662">
        <ele>357.670166</ele>
        <time>2010-09-18T08:45:32Z</time>
      </trkpt>
      <trkpt lat="48.77895" lon="7.36612">
        <ele>361.037354</ele>
        <time>2010-09-18T08:45:34Z</time>
      </trkpt>
      <trkpt lat="48.77897" lon="7.36604">
        <ele>359.240479</ele>
        <time>2010-09-18T08:45:36Z</time>
      </trkpt>
      <trkpt lat="48.77895" lon="7.36595">
        <ele>361.365479</ele>
        <time>2010-09-18T08:45:38Z</time>
      </trkpt>
      <trkpt lat="48.77893" lon="7.36587">
        <ele>364.006104</ele>
        <time>2010-09-18T08:45:40Z</time>
      </trkpt>
      <trkpt lat="48.77894" lon="7.36578">
        <ele>363.912354</ele>
        <time>2010-09-18T08:45:42Z</time>
      </trkpt>
      <trkpt lat="48.77894" lon="7.36567">
        <ele>362.388916</ele>
        <time>2010-09-18T08:45:44Z</time>
      </trkpt>
      <trkpt lat="48.77895" lon="7.36561">
        <ele>360.693604</ele>
        <time>2010-09-18T08:45:45Z</time>
      </trkpt>
      <trkpt lat="48.77898" lon="7.36555">
        <ele>359.748291</ele>
        <time>2010-09-18T08:45:46Z</time>
      </trkpt>
      <trkpt lat="48.77897" lon="7.36547">
        <ele>360.787354</ele>
        <time>2010-09-18T08:45:48Z</time>
      </trkpt>
      <trkpt lat="48.77896" lon="7.36539">
        <ele>363.224854</ele>
        <time>2010-09-18T08:45:50Z</time>
      </trkpt>
      <trkpt lat="48.77896" lon="7.36531">
        <ele>365.951416</ele>
        <time>2010-09-18T08:45:52Z</time>
      </trkpt>
      <trkpt lat="48.77894" lon="7.36523">
        <ele>369.599854</ele>
        <time>2010-09-18T08:45:54Z</time>
      </trkpt>
      <trkpt lat="48.77893" lon="7.36516">
        <ele>372.701416</ele>
        <time>2010-09-18T08:45:56Z</time>
      </trkpt>
      <trkpt lat="48.77892" lon="7.36508">
        <ele>372.537354</ele>
        <time>2010-09-18T08:45:58Z</time>
      </trkpt>
      <trkpt lat="48.77891" lon="7.36499">
        <ele>374.170166</ele>
        <time>2010-09-18T08:46:00Z</time>
      </trkpt>
      <trkpt lat="48.77889" lon="7.36489">
        <ele>376.193604</ele>
        <time>2010-09-18T08:46:02Z</time>
      </trkpt>
      <trkpt lat="48.77887" lon="7.36478">
        <ele>377.967041</ele>
        <time>2010-09-18T08:46:04Z</time>
      </trkpt>
      <trkpt lat="48.77887" lon="7.36468">
        <ele>379.240479</ele>
        <time>2010-09-18T08:46:06Z</time>
      </trkpt>
      <trkpt lat="48.77887" lon="7.36459">
        <ele>378.498291</ele>
        <time>2010-09-18T08:46:08Z</time>
      </trkpt>
      <trkpt lat="48.77887" lon="7.3645">
        <ele>375.490479</ele>
        <time>2010-09-18T08:46:10Z</time>
      </trkpt>
      <trkpt lat="48.77885" lon="7.36441">
        <ele>374.818604</ele>
        <time>2010-09-18T08:46:13Z</time>
      </trkpt>
      <trkpt lat="48.77884" lon="7.36431">
        <ele>378.060791</ele>
        <time>2010-09-18T08:46:15Z</time>
      </trkpt>
      <trkpt lat="48.77884" lon="7.36424">
        <ele>378.373291</ele>
        <time>2010-09-18T08:46:17Z</time>
      </trkpt>
      <trkpt lat="48.77883" lon="7.36415">
        <ele>382.529541</ele>
        <time>2010-09-18T08:46:19Z</time>
      </trkpt>
      <trkpt lat="48.77879" lon="7.36406">
        <ele>385.271729</ele>
        <time>2010-09-18T08:46:21Z</time>
      </trkpt>
      <trkpt lat="48.77878" lon="7.36397">
        <ele>386.138916</ele>
        <time>2010-09-18T08:46:23Z</time>
      </trkpt>
      <trkpt lat="48.77875" lon="7.36391">
        <ele>385.912354</ele>
        <time>2010-09-18T08:46:25Z</time>
      </trkpt>
      <trkpt lat="48.77874" lon="7.36381">
        <ele>388.201416</ele>
        <time>2010-09-18T08:46:27Z</time>
      </trkpt>
      <trkpt lat="48.77873" lon="7.36371">
        <ele>389.099854</ele>
        <time>2010-09-18T08:46:29Z</time>
      </trkpt>
      <trkpt lat="48.77871" lon="7.3636">
        <ele>390.271729</ele>
        <time>2010-09-18T08:46:31Z</time>
      </trkpt>
      <trkpt lat="48.7787" lon="7.36348">
        <ele>390.107666</ele>
        <time>2010-09-18T08:46:33Z</time>
      </trkpt>
      <trkpt lat="48.77869" lon="7.36336">
        <ele>390.623291</ele>
        <time>2010-09-18T08:46:35Z</time>
      </trkpt>
      <trkpt lat="48.77868" lon="7.36329">
        <ele>390.248291</ele>
        <time>2010-09-18T08:46:36Z</time>
      </trkpt>
      <trkpt lat="48.77865" lon="7.36319">
        <ele>392.224854</ele>
        <time>2010-09-18T08:46:38Z</time>
      </trkpt>
      <trkpt lat="48.77864" lon="7.36309">
        <ele>391.381104</ele>
        <time>2010-09-18T08:46:40Z</time>
      </trkpt>
      <trkpt lat="48.7786" lon="7.36298">
        <ele>394.451416</ele>
        <time>2010-09-18T08:46:42Z</time>
      </trkpt>
      <trkpt lat="48.77857" lon="7.36288">
        <ele>396.060791</ele>
        <time>2010-09-18T08:46:44Z</time>
      </trkpt>
      <trkpt lat="48.77854" lon="7.36277">
        <ele>397.490479</ele>
        <time>2010-09-18T08:46:46Z</time>
      </trkpt>
      <trkpt lat="48.77851" lon="7.36265">
        <ele>399.482666</ele>
        <time>2010-09-18T08:46:48Z</time>
      </trkpt>
      <trkpt lat="48.77849" lon="7.36254">
        <ele>400.748291</ele>
        <time>2010-09-18T08:46:50Z</time>
      </trkpt>
      <trkpt lat="48.77847" lon="7.36241">
        <ele>401.115479</ele>
        <time>2010-09-18T08:46:52Z</time>
      </trkpt>
      <trkpt lat="48.77845" lon="7.36234">
        <ele>399.912354</ele>
        <time>2010-09-18T08:46:53Z</time>
      </trkpt>
      <trkpt lat="48.77845" lon="7.36226">
        <ele>397.209229</ele>
        <time>2010-09-18T08:46:54Z</time>
      </trkpt>
      <trkpt lat="48.77843" lon="7.36211">
        <ele>391.912354</ele>
        <time>2010-09-18T08:46:56Z</time>
      </trkpt>
      <trkpt lat="48.7784" lon="7.36199">
        <ele>391.177979</ele>
        <time>2010-09-18T08:46:58Z</time>
      </trkpt>
      <trkpt lat="48.77837" lon="7.36192">
        <ele>392.052979</ele>
        <time>2010-09-18T08:46:59Z</time>
      </trkpt>
      <trkpt lat="48.77835" lon="7.36185">
        <ele>392.584229</ele>
        <time>2010-09-18T08:47:00Z</time>
      </trkpt>
      <trkpt lat="48.77832" lon="7.36178">
        <ele>393.638916</ele>
        <time>2010-09-18T08:47:01Z</time>
      </trkpt>
      <trkpt lat="48.7783" lon="7.36171">
        <ele>394.935791</ele>
        <time>2010-09-18T08:47:02Z</time>
      </trkpt>
      <trkpt lat="48.77828" lon="7.36163">
        <ele>395.045166</ele>
        <time>2010-09-18T08:47:03Z</time>
      </trkpt>
      <trkpt lat="48.77827" lon="7.36155">
        <ele>393.693604</ele>
        <time>2010-09-18T08:47:04Z</time>
      </trkpt>
      <trkpt lat="48.77826" lon="7.36146">
        <ele>392.888916</ele>
        <time>2010-09-18T08:47:05Z</time>
      </trkpt>
      <trkpt lat="48.77825" lon="7.36138">
        <ele>391.443604</ele>
        <time>2010-09-18T08:47:06Z</time>
      </trkpt>
      <trkpt lat="48.77825" lon="7.36132">
        <ele>390.592041</ele>
        <time>2010-09-18T08:47:07Z</time>
      </trkpt>
      <trkpt lat="48.77826" lon="7.36125">
        <ele>385.506104</ele>
        <time>2010-09-18T08:47:08Z</time>
      </trkpt>
      <trkpt lat="48.77823" lon="7.36114">
        <ele>386.068604</ele>
        <time>2010-09-18T08:47:10Z</time>
      </trkpt>
      <trkpt lat="48.77822" lon="7.36103">
        <ele>387.045166</ele>
        <time>2010-09-18T08:47:12Z</time>
      </trkpt>
      <trkpt lat="48.77818" lon="7.36093">
        <ele>389.584229</ele>
        <time>2010-09-18T08:47:14Z</time>
      </trkpt>
      <trkpt lat="48.77816" lon="7.36086">
        <ele>391.373291</ele>
        <time>2010-09-18T08:47:15Z</time>
      </trkpt>
      <trkpt lat="48.77816" lon="7.36074">
        <ele>389.427979</ele>
        <time>2010-09-18T08:47:17Z</time>
      </trkpt>
      <trkpt lat="48.77816" lon="7.36067">
        <ele>388.756104</ele>
        <time>2010-09-18T08:47:18Z</time>
      </trkpt>
      <trkpt lat="48.77815" lon="7.36056">
        <ele>392.021729</ele>
        <time>2010-09-18T08:47:20Z</time>
      </trkpt>
      <trkpt lat="48.77813" lon="7.36045">
        <ele>393.498291</ele>
        <time>2010-09-18T08:47:22Z</time>
      </trkpt>
      <trkpt lat="48.77811" lon="7.36033">
        <ele>393.662354</ele>
        <time>2010-09-18T08:47:24Z</time>
      </trkpt>
      <trkpt lat="48.7781" lon="7.36023">
        <ele>392.662354</ele>
        <time>2010-09-18T08:47:26Z</time>
      </trkpt>
      <trkpt lat="48.77808" lon="7.36015">
        <ele>393.342041</ele>
        <time>2010-09-18T08:47:27Z</time>
      </trkpt>
      <trkpt lat="48.77807" lon="7.36008">
        <ele>393.756104</ele>
        <time>2010-09-18T08:47:28Z</time>
      </trkpt>
      <trkpt lat="48.77806" lon="7.36001">
        <ele>392.927979</ele>
        <time>2010-09-18T08:47:29Z</time>
      </trkpt>
      <trkpt lat="48.77801" lon="7.35989">
        <ele>393.709229</ele>
        <time>2010-09-18T08:47:31Z</time>
      </trkpt>
      <trkpt lat="48.77799" lon="7.35976">
        <ele>394.459229</ele>
        <time>2010-09-18T08:47:33Z</time>
      </trkpt>
      <trkpt lat="48.77796" lon="7.35964">
        <ele>394.568604</ele>
        <time>2010-09-18T08:47:35Z</time>
      </trkpt>
      <trkpt lat="48.77794" lon="7.35957">
        <ele>395.131104</ele>
        <time>2010-09-18T08:47:36Z</time>
      </trkpt>
      <trkpt lat="48.77792" lon="7.3595">
        <ele>396.287354</ele>
        <time>2010-09-18T08:47:37Z</time>
      </trkpt>
      <trkpt lat="48.77799" lon="7.35946">
        <ele>382.795166</ele>
        <time>2010-09-18T08:47:38Z</time>
      </trkpt>
      <trkpt lat="48.77797" lon="7.35937">
        <ele>383.302979</ele>
        <time>2010-09-18T08:47:39Z</time>
      </trkpt>
      <trkpt lat="48.77796" lon="7.35924">
        <ele>384.115479</ele>
        <time>2010-09-18T08:47:41Z</time>
      </trkpt>
      <trkpt lat="48.77794" lon="7.35917">
        <ele>384.365479</ele>
        <time>2010-09-18T08:47:42Z</time>
      </trkpt>
      <trkpt lat="48.7779" lon="7.35902">
        <ele>385.935791</ele>
        <time>2010-09-18T08:47:44Z</time>
      </trkpt>
      <trkpt lat="48.77787" lon="7.3589">
        <ele>387.818604</ele>
        <time>2010-09-18T08:47:46Z</time>
      </trkpt>
      <trkpt lat="48.77785" lon="7.35882">
        <ele>388.310791</ele>
        <time>2010-09-18T08:47:47Z</time>
      </trkpt>
      <trkpt lat="48.77784" lon="7.35874">
        <ele>389.263916</ele>
        <time>2010-09-18T08:47:48Z</time>
      </trkpt>
      <trkpt lat="48.77781" lon="7.35865">
        <ele>390.170166</ele>
        <time>2010-09-18T08:47:49Z</time>
      </trkpt>
      <trkpt lat="48.77779" lon="7.35857">
        <ele>390.935791</ele>
        <time>2010-09-18T08:47:50Z</time>
      </trkpt>
      <trkpt lat="48.77778" lon="7.35847">
        <ele>390.818604</ele>
        <time>2010-09-18T08:47:51Z</time>
      </trkpt>
      <trkpt lat="48.77776" lon="7.3584">
        <ele>391.263916</ele>
        <time>2010-09-18T08:47:52Z</time>
      </trkpt>
      <trkpt lat="48.77775" lon="7.3583">
        <ele>388.271729</ele>
        <time>2010-09-18T08:47:53Z</time>
      </trkpt>
      <trkpt lat="48.77774" lon="7.35819">
        <ele>385.943604</ele>
        <time>2010-09-18T08:47:54Z</time>
      </trkpt>
      <trkpt lat="48.77772" lon="7.35811">
        <ele>385.185791</ele>
        <time>2010-09-18T08:47:55Z</time>
      </trkpt>
      <trkpt lat="48.77771" lon="7.35801">
        <ele>384.318604</ele>
        <time>2010-09-18T08:47:56Z</time>
      </trkpt>
      <trkpt lat="48.77772" lon="7.35795">
        <ele>378.357666</ele>
        <time>2010-09-18T08:47:57Z</time>
      </trkpt>
      <trkpt lat="48.7777" lon="7.35786">
        <ele>378.224854</ele>
        <time>2010-09-18T08:47:58Z</time>
      </trkpt>
      <trkpt lat="48.77768" lon="7.35778">
        <ele>376.263916</ele>
        <time>2010-09-18T08:47:59Z</time>
      </trkpt>
      <trkpt lat="48.77765" lon="7.3577">
        <ele>375.810791</ele>
        <time>2010-09-18T08:48:00Z</time>
      </trkpt>
      <trkpt lat="48.77762" lon="7.35762">
        <ele>375.302979</ele>
        <time>2010-09-18T08:48:01Z</time>
      </trkpt>
      <trkpt lat="48.77763" lon="7.35754">
        <ele>372.256104</ele>
        <time>2010-09-18T08:48:02Z</time>
      </trkpt>
      <trkpt lat="48.77762" lon="7.35747">
        <ele>370.177979</ele>
        <time>2010-09-18T08:48:03Z</time>
      </trkpt>
      <trkpt lat="48.77762" lon="7.35741">
        <ele>368.435791</ele>
        <time>2010-09-18T08:48:04Z</time>
      </trkpt>
      <trkpt lat="48.77763" lon="7.35731">
        <ele>367.701416</ele>
        <time>2010-09-18T08:48:05Z</time>
      </trkpt>
      <trkpt lat="48.77762" lon="7.35722">
        <ele>366.717041</ele>
        <time>2010-09-18T08:48:06Z</time>
      </trkpt>
      <trkpt lat="48.77761" lon="7.35714">
        <ele>365.670166</ele>
        <time>2010-09-18T08:48:07Z</time>
      </trkpt>
      <trkpt lat="48.7776" lon="7.35706">
        <ele>365.013916</ele>
        <time>2010-09-18T08:48:08Z</time>
      </trkpt>
      <trkpt lat="48.77759" lon="7.35698">
        <ele>363.896729</ele>
        <time>2010-09-18T08:48:09Z</time>
      </trkpt>
      <trkpt lat="48.77758" lon="7.35691">
        <ele>362.857666</ele>
        <time>2010-09-18T08:48:10Z</time>
      </trkpt>
      <trkpt lat="48.77758" lon="7.35677">
        <ele>361.779541</ele>
        <time>2010-09-18T08:48:12Z</time>
      </trkpt>
      <trkpt lat="48.77756" lon="7.35671">
        <ele>360.912354</ele>
        <time>2010-09-18T08:48:13Z</time>
      </trkpt>
      <trkpt lat="48.77755" lon="7.35659">
        <ele>359.615479</ele>
        <time>2010-09-18T08:48:15Z</time>
      </trkpt>
      <trkpt lat="48.77754" lon="7.35651">
        <ele>358.951416</ele>
        <time>2010-09-18T08:48:16Z</time>
      </trkpt>
      <trkpt lat="48.77753" lon="7.35644">
        <ele>358.349854</ele>
        <time>2010-09-18T08:48:17Z</time>
      </trkpt>
      <trkpt lat="48.77752" lon="7.35637">
        <ele>358.037354</ele>
        <time>2010-09-18T08:48:18Z</time>
      </trkpt>
      <trkpt lat="48.77749" lon="7.3563">
        <ele>357.388916</ele>
        <time>2010-09-18T08:48:19Z</time>
      </trkpt>
      <trkpt lat="48.77747" lon="7.35623">
        <ele>357.209229</ele>
        <time>2010-09-18T08:48:20Z</time>
      </trkpt>
      <trkpt lat="48.77744" lon="7.35617">
        <ele>356.810791</ele>
        <time>2010-09-18T08:48:21Z</time>
      </trkpt>
      <trkpt lat="48.77742" lon="7.35605">
        <ele>355.662354</ele>
        <time>2010-09-18T08:48:23Z</time>
      </trkpt>
      <trkpt lat="48.7774" lon="7.35598">
        <ele>354.638916</ele>
        <time>2010-09-18T08:48:25Z</time>
      </trkpt>
      <trkpt lat="48.77736" lon="7.35588">
        <ele>354.131104</ele>
        <time>2010-09-18T08:48:27Z</time>
      </trkpt>
      <trkpt lat="48.77732" lon="7.3558">
        <ele>353.092041</ele>
        <time>2010-09-18T08:48:29Z</time>
      </trkpt>
      <trkpt lat="48.7773" lon="7.35577">
        <ele>348.974854</ele>
        <time>2010-09-18T08:48:31Z</time>
      </trkpt>
      <trkpt lat="48.7773" lon="7.35577">
        <ele>343.279541</ele>
        <time>2010-09-18T08:48:33Z</time>
      </trkpt>
      <trkpt lat="48.77727" lon="7.35573">
        <ele>339.974854</ele>
        <time>2010-09-18T08:48:36Z</time>
      </trkpt>
      <trkpt lat="48.77725" lon="7.35564">
        <ele>337.349854</ele>
        <time>2010-09-18T08:48:39Z</time>
      </trkpt>
      <trkpt lat="48.77723" lon="7.35557">
        <ele>337.217041</ele>
        <time>2010-09-18T08:48:41Z</time>
      </trkpt>
      <trkpt lat="48.77719" lon="7.35551">
        <ele>335.599854</ele>
        <time>2010-09-18T08:48:45Z</time>
      </trkpt>
      <trkpt lat="48.77715" lon="7.35547">
        <ele>335.342041</ele>
        <time>2010-09-18T08:49:01Z</time>
      </trkpt>
      <trkpt lat="48.77716" lon="7.3554">
        <ele>336.685791</ele>
        <time>2010-09-18T08:49:18Z</time>
      </trkpt>
      <trkpt lat="48.77717" lon="7.35532">
        <ele>336.779541</ele>
        <time>2010-09-18T08:49:29Z</time>
      </trkpt>
      <trkpt lat="48.77713" lon="7.3553">
        <ele>338.779541</ele>
        <time>2010-09-18T08:49:41Z</time>
      </trkpt>
      <trkpt lat="48.77712" lon="7.35537">
        <ele>340.138916</ele>
        <time>2010-09-18T08:50:04Z</time>
      </trkpt>
      <trkpt lat="48.77711" lon="7.35531">
        <ele>343.224854</ele>
        <time>2010-09-18T08:50:18Z</time>
      </trkpt>
      <trkpt lat="48.77716" lon="7.35527">
        <ele>344.943604</ele>
        <time>2010-09-18T08:50:22Z</time>
      </trkpt>
      <trkpt lat="48.7771" lon="7.35534">
        <ele>345.412354</ele>
        <time>2010-09-18T08:50:28Z</time>
      </trkpt>
      <trkpt lat="48.77705" lon="7.35539">
        <ele>345.842041</ele>
        <time>2010-09-18T08:50:30Z</time>
      </trkpt>
      <trkpt lat="48.777" lon="7.35544">
        <ele>346.881104</ele>
        <time>2010-09-18T08:50:33Z</time>
      </trkpt>
      <trkpt lat="48.77698" lon="7.35539">
        <ele>349.935791</ele>
        <time>2010-09-18T08:50:44Z</time>
      </trkpt>
      <trkpt lat="48.77697" lon="7.35531">
        <ele>351.388916</ele>
        <time>2010-09-18T08:50:48Z</time>
      </trkpt>
      <trkpt lat="48.777" lon="7.35521">
        <ele>352.076416</ele>
        <time>2010-09-18T08:50:51Z</time>
      </trkpt>
      <trkpt lat="48.77704" lon="7.35513">
        <ele>353.865479</ele>
        <time>2010-09-18T08:50:54Z</time>
      </trkpt>
      <trkpt lat="48.77706" lon="7.35507">
        <ele>355.123291</ele>
        <time>2010-09-18T08:50:57Z</time>
      </trkpt>
      <trkpt lat="48.77708" lon="7.35499">
        <ele>356.427979</ele>
        <time>2010-09-18T08:51:01Z</time>
      </trkpt>
      <trkpt lat="48.77711" lon="7.35493">
        <ele>357.467041</ele>
        <time>2010-09-18T08:51:05Z</time>
      </trkpt>
      <trkpt lat="48.77711" lon="7.35486">
        <ele>358.232666</ele>
        <time>2010-09-18T08:51:07Z</time>
      </trkpt>
      <trkpt lat="48.77711" lon="7.35479">
        <ele>357.263916</ele>
        <time>2010-09-18T08:51:11Z</time>
      </trkpt>
      <trkpt lat="48.77713" lon="7.35473">
        <ele>358.271729</ele>
        <time>2010-09-18T08:51:17Z</time>
      </trkpt>
      <trkpt lat="48.77709" lon="7.35478">
        <ele>360.310791</ele>
        <time>2010-09-18T08:51:24Z</time>
      </trkpt>
      <trkpt lat="48.7771" lon="7.35484">
        <ele>361.967041</ele>
        <time>2010-09-18T08:51:50Z</time>
      </trkpt>
      <trkpt lat="48.77706" lon="7.35483">
        <ele>362.326416</ele>
        <time>2010-09-18T08:51:56Z</time>
      </trkpt>
      <trkpt lat="48.777" lon="7.35484">
        <ele>362.099854</ele>
        <time>2010-09-18T08:52:00Z</time>
      </trkpt>
      <trkpt lat="48.77696" lon="7.35482">
        <ele>361.967041</ele>
        <time>2010-09-18T08:52:05Z</time>
      </trkpt>
      <trkpt lat="48.77692" lon="7.35486">
        <ele>364.802979</ele>
        <time>2010-09-18T08:52:10Z</time>
      </trkpt>
      <trkpt lat="48.77688" lon="7.35488">
        <ele>366.506104</ele>
        <time>2010-09-18T08:52:15Z</time>
      </trkpt>
      <trkpt lat="48.77688" lon="7.3548">
        <ele>367.888916</ele>
        <time>2010-09-18T08:52:39Z</time>
      </trkpt>
      <trkpt lat="48.77686" lon="7.3547">
        <ele>367.310791</ele>
        <time>2010-09-18T08:52:52Z</time>
      </trkpt>
      <trkpt lat="48.77688" lon="7.35464">
        <ele>367.935791</ele>
        <time>2010-09-18T08:52:56Z</time>
      </trkpt>
      <trkpt lat="48.77688" lon="7.35458">
        <ele>370.998291</ele>
        <time>2010-09-18T08:53:14Z</time>
      </trkpt>
      <trkpt lat="48.77683" lon="7.35454">
        <ele>371.154541</ele>
        <time>2010-09-18T08:53:21Z</time>
      </trkpt>
      <trkpt lat="48.77681" lon="7.35459">
        <ele>374.365479</ele>
        <time>2010-09-18T08:53:33Z</time>
      </trkpt>
      <trkpt lat="48.77676" lon="7.3546">
        <ele>375.373291</ele>
        <time>2010-09-18T08:53:37Z</time>
      </trkpt>
      <trkpt lat="48.77672" lon="7.35464">
        <ele>375.982666</ele>
        <time>2010-09-18T08:53:40Z</time>
      </trkpt>
      <trkpt lat="48.77668" lon="7.35468">
        <ele>377.060791</ele>
        <time>2010-09-18T08:53:45Z</time>
      </trkpt>
      <trkpt lat="48.77665" lon="7.35471">
        <ele>377.427979</ele>
        <time>2010-09-18T08:53:48Z</time>
      </trkpt>
      <trkpt lat="48.7766" lon="7.35474">
        <ele>377.576416</ele>
        <time>2010-09-18T08:53:51Z</time>
      </trkpt>
      <trkpt lat="48.77656" lon="7.35479">
        <ele>375.592041</ele>
        <time>2010-09-18T08:53:56Z</time>
      </trkpt>
      <trkpt lat="48.77652" lon="7.35483">
        <ele>372.552979</ele>
        <time>2010-09-18T08:53:59Z</time>
      </trkpt>
      <trkpt lat="48.77649" lon="7.3549">
        <ele>370.763916</ele>
        <time>2010-09-18T08:54:36Z</time>
      </trkpt>
      <trkpt lat="48.77645" lon="7.35496">
        <ele>372.256104</ele>
        <time>2010-09-18T08:54:39Z</time>
      </trkpt>
      <trkpt lat="48.77641" lon="7.35501">
        <ele>373.224854</ele>
        <time>2010-09-18T08:54:41Z</time>
      </trkpt>
      <trkpt lat="48.7764" lon="7.3551">
        <ele>374.224854</ele>
        <time>2010-09-18T08:54:44Z</time>
      </trkpt>
      <trkpt lat="48.77637" lon="7.35516">
        <ele>375.927979</ele>
        <time>2010-09-18T08:54:46Z</time>
      </trkpt>
      <trkpt lat="48.77635" lon="7.35521">
        <ele>377.545166</ele>
        <time>2010-09-18T08:54:48Z</time>
      </trkpt>
      <trkpt lat="48.77633" lon="7.35528">
        <ele>379.498291</ele>
        <time>2010-09-18T08:54:50Z</time>
      </trkpt>
      <trkpt lat="48.7763" lon="7.35535">
        <ele>381.537354</ele>
        <time>2010-09-18T08:54:52Z</time>
      </trkpt>
      <trkpt lat="48.77627" lon="7.35543">
        <ele>380.498291</ele>
        <time>2010-09-18T08:54:54Z</time>
      </trkpt>
      <trkpt lat="48.77624" lon="7.35548">
        <ele>380.599854</ele>
        <time>2010-09-18T08:54:56Z</time>
      </trkpt>
      <trkpt lat="48.77621" lon="7.35555">
        <ele>381.396729</ele>
        <time>2010-09-18T08:54:58Z</time>
      </trkpt>
      <trkpt lat="48.7762" lon="7.35564">
        <ele>382.467041</ele>
        <time>2010-09-18T08:55:00Z</time>
      </trkpt>
      <trkpt lat="48.77616" lon="7.35572">
        <ele>384.146729</ele>
        <time>2010-09-18T08:55:02Z</time>
      </trkpt>
      <trkpt lat="48.77613" lon="7.3558">
        <ele>383.685791</ele>
        <time>2010-09-18T08:55:04Z</time>
      </trkpt>
      <trkpt lat="48.7761" lon="7.35588">
        <ele>381.201416</ele>
        <time>2010-09-18T08:55:06Z</time>
      </trkpt>
      <trkpt lat="48.77608" lon="7.35598">
        <ele>380.201416</ele>
        <time>2010-09-18T08:55:08Z</time>
      </trkpt>
      <trkpt lat="48.77606" lon="7.35609">
        <ele>379.552979</ele>
        <time>2010-09-18T08:55:10Z</time>
      </trkpt>
      <trkpt lat="48.77602" lon="7.35619">
        <ele>378.779541</ele>
        <time>2010-09-18T08:55:12Z</time>
      </trkpt>
      <trkpt lat="48.776" lon="7.35626">
        <ele>379.521729</ele>
        <time>2010-09-18T08:55:14Z</time>
      </trkpt>
      <trkpt lat="48.77595" lon="7.35626">
        <ele>379.896729</ele>
        <time>2010-09-18T08:55:18Z</time>
      </trkpt>
      <trkpt lat="48.77594" lon="7.35619">
        <ele>379.568604</ele>
        <time>2010-09-18T08:55:20Z</time>
      </trkpt>
      <trkpt lat="48.77595" lon="7.3561">
        <ele>379.435791</ele>
        <time>2010-09-18T08:55:22Z</time>
      </trkpt>
      <trkpt lat="48.77596" lon="7.35603">
        <ele>379.568604</ele>
        <time>2010-09-18T08:55:24Z</time>
      </trkpt>
      <trkpt lat="48.77596" lon="7.35595">
        <ele>380.709229</ele>
        <time>2010-09-18T08:55:26Z</time>
      </trkpt>
      <trkpt lat="48.77596" lon="7.35588">
        <ele>380.740479</ele>
        <time>2010-09-18T08:55:28Z</time>
      </trkpt>
      <trkpt lat="48.77596" lon="7.35581">
        <ele>380.920166</ele>
        <time>2010-09-18T08:55:30Z</time>
      </trkpt>
      <trkpt lat="48.77596" lon="7.35571">
        <ele>381.287354</ele>
        <time>2010-09-18T08:55:33Z</time>
      </trkpt>
      <trkpt lat="48.77596" lon="7.35564">
        <ele>381.443604</ele>
        <time>2010-09-18T08:55:35Z</time>
      </trkpt>
      <trkpt lat="48.77595" lon="7.35557">
        <ele>380.959229</ele>
        <time>2010-09-18T08:55:37Z</time>
      </trkpt>
      <trkpt lat="48.77595" lon="7.35547">
        <ele>381.756104</ele>
        <time>2010-09-18T08:55:40Z</time>
      </trkpt>
      <trkpt lat="48.77595" lon="7.35537">
        <ele>383.177979</ele>
        <time>2010-09-18T08:55:43Z</time>
      </trkpt>
      <trkpt lat="48.77594" lon="7.35527">
        <ele>384.138916</ele>
        <time>2010-09-18T08:55:46Z</time>
      </trkpt>
      <trkpt lat="48.77594" lon="7.35518">
        <ele>385.474854</ele>
        <time>2010-09-18T08:55:49Z</time>
      </trkpt>
      <trkpt lat="48.77594" lon="7.3551">
        <ele>385.576416</ele>
        <time>2010-09-18T08:55:51Z</time>
      </trkpt>
      <trkpt lat="48.77593" lon="7.35501">
        <ele>387.115479</ele>
        <time>2010-09-18T08:55:54Z</time>
      </trkpt>
      <trkpt lat="48.77593" lon="7.35493">
        <ele>388.896729</ele>
        <time>2010-09-18T08:55:56Z</time>
      </trkpt>
      <trkpt lat="48.77593" lon="7.35486">
        <ele>390.568604</ele>
        <time>2010-09-18T08:55:58Z</time>
      </trkpt>
      <trkpt lat="48.77594" lon="7.35476">
        <ele>391.177979</ele>
        <time>2010-09-18T08:56:01Z</time>
      </trkpt>
      <trkpt lat="48.77593" lon="7.35469">
        <ele>391.888916</ele>
        <time>2010-09-18T08:56:03Z</time>
      </trkpt>
      <trkpt lat="48.77592" lon="7.35461">
        <ele>392.310791</ele>
        <time>2010-09-18T08:56:05Z</time>
      </trkpt>
      <trkpt lat="48.77593" lon="7.35454">
        <ele>392.318604</ele>
        <time>2010-09-18T08:56:07Z</time>
      </trkpt>
      <trkpt lat="48.77593" lon="7.35445">
        <ele>393.052979</ele>
        <time>2010-09-18T08:56:09Z</time>
      </trkpt>
      <trkpt lat="48.77592" lon="7.35438">
        <ele>394.779541</ele>
        <time>2010-09-18T08:56:11Z</time>
      </trkpt>
      <trkpt lat="48.77591" lon="7.35431">
        <ele>394.060791</ele>
        <time>2010-09-18T08:56:13Z</time>
      </trkpt>
      <trkpt lat="48.77593" lon="7.35422">
        <ele>394.529541</ele>
        <time>2010-09-18T08:56:15Z</time>
      </trkpt>
      <trkpt lat="48.77594" lon="7.35415">
        <ele>393.224854</ele>
        <time>2010-09-18T08:56:17Z</time>
      </trkpt>
      <trkpt lat="48.77594" lon="7.35407">
        <ele>392.115479</ele>
        <time>2010-09-18T08:56:19Z</time>
      </trkpt>
      <trkpt lat="48.77594" lon="7.35399">
        <ele>392.959229</ele>
        <time>2010-09-18T08:56:21Z</time>
      </trkpt>
      <trkpt lat="48.77594" lon="7.35392">
        <ele>394.615479</ele>
        <time>2010-09-18T08:56:23Z</time>
      </trkpt>
      <trkpt lat="48.77594" lon="7.35385">
        <ele>395.310791</ele>
        <time>2010-09-18T08:56:25Z</time>
      </trkpt>
      <trkpt lat="48.77596" lon="7.35378">
        <ele>395.818604</ele>
        <time>2010-09-18T08:56:27Z</time>
      </trkpt>
      <trkpt lat="48.77597" lon="7.3537">
        <ele>395.201416</ele>
        <time>2010-09-18T08:56:29Z</time>
      </trkpt>
      <trkpt lat="48.77597" lon="7.35363">
        <ele>395.248291</ele>
        <time>2010-09-18T08:56:31Z</time>
      </trkpt>
      <trkpt lat="48.77599" lon="7.35355">
        <ele>395.951416</ele>
        <time>2010-09-18T08:56:33Z</time>
      </trkpt>
      <trkpt lat="48.776" lon="7.35348">
        <ele>396.560791</ele>
        <time>2010-09-18T08:56:35Z</time>
      </trkpt>
      <trkpt lat="48.77601" lon="7.35341">
        <ele>397.552979</ele>
        <time>2010-09-18T08:56:37Z</time>
      </trkpt>
      <trkpt lat="48.77603" lon="7.35334">
        <ele>398.763916</ele>
        <time>2010-09-18T08:56:39Z</time>
      </trkpt>
      <trkpt lat="48.77605" lon="7.35327">
        <ele>399.443604</ele>
        <time>2010-09-18T08:56:41Z</time>
      </trkpt>
      <trkpt lat="48.77606" lon="7.3532">
        <ele>399.045166</ele>
        <time>2010-09-18T08:56:43Z</time>
      </trkpt>
      <trkpt lat="48.77608" lon="7.35314">
        <ele>399.662354</ele>
        <time>2010-09-18T08:56:45Z</time>
      </trkpt>
      <trkpt lat="48.77611" lon="7.35308">
        <ele>400.529541</ele>
        <time>2010-09-18T08:56:47Z</time>
      </trkpt>
      <trkpt lat="48.77613" lon="7.35303">
        <ele>402.185791</ele>
        <time>2010-09-18T08:56:49Z</time>
      </trkpt>
      <trkpt lat="48.77614" lon="7.35296">
        <ele>404.420166</ele>
        <time>2010-09-18T08:56:51Z</time>
      </trkpt>
      <trkpt lat="48.77615" lon="7.35288">
        <ele>404.529541</ele>
        <time>2010-09-18T08:56:53Z</time>
      </trkpt>
      <trkpt lat="48.77617" lon="7.35279">
        <ele>403.709229</ele>
        <time>2010-09-18T08:56:55Z</time>
      </trkpt>
      <trkpt lat="48.77618" lon="7.35272">
        <ele>405.068604</ele>
        <time>2010-09-18T08:56:57Z</time>
      </trkpt>
      <trkpt lat="48.7762" lon="7.35264">
        <ele>405.099854</ele>
        <time>2010-09-18T08:56:59Z</time>
      </trkpt>
      <trkpt lat="48.77623" lon="7.35259">
        <ele>406.818604</ele>
        <time>2010-09-18T08:57:01Z</time>
      </trkpt>
      <trkpt lat="48.77628" lon="7.35255">
        <ele>407.935791</ele>
        <time>2010-09-18T08:57:03Z</time>
      </trkpt>
      <trkpt lat="48.77634" lon="7.35253">
        <ele>408.162354</ele>
        <time>2010-09-18T08:57:05Z</time>
      </trkpt>
      <trkpt lat="48.77639" lon="7.35249">
        <ele>408.349854</ele>
        <time>2010-09-18T08:57:07Z</time>
      </trkpt>
      <trkpt lat="48.77644" lon="7.35243">
        <ele>411.224854</ele>
        <time>2010-09-18T08:57:10Z</time>
      </trkpt>
      <trkpt lat="48.77649" lon="7.35241">
        <ele>411.763916</ele>
        <time>2010-09-18T08:57:12Z</time>
      </trkpt>
      <trkpt lat="48.77653" lon="7.35235">
        <ele>412.248291</ele>
        <time>2010-09-18T08:57:14Z</time>
      </trkpt>
      <trkpt lat="48.77656" lon="7.3523">
        <ele>413.513916</ele>
        <time>2010-09-18T08:57:16Z</time>
      </trkpt>
      <trkpt lat="48.7766" lon="7.35225">
        <ele>414.748291</ele>
        <time>2010-09-18T08:57:18Z</time>
      </trkpt>
      <trkpt lat="48.77665" lon="7.35224">
        <ele>413.271729</ele>
        <time>2010-09-18T08:57:19Z</time>
      </trkpt>
      <trkpt lat="48.77671" lon="7.35219">
        <ele>415.506104</ele>
        <time>2010-09-18T08:57:21Z</time>
      </trkpt>
      <trkpt lat="48.77677" lon="7.35215">
        <ele>415.162354</ele>
        <time>2010-09-18T08:57:23Z</time>
      </trkpt>
      <trkpt lat="48.77682" lon="7.35211">
        <ele>415.623291</ele>
        <time>2010-09-18T08:57:25Z</time>
      </trkpt>
      <trkpt lat="48.77687" lon="7.35207">
        <ele>415.943604</ele>
        <time>2010-09-18T08:57:27Z</time>
      </trkpt>
      <trkpt lat="48.77691" lon="7.35202">
        <ele>415.638916</ele>
        <time>2010-09-18T08:57:29Z</time>
      </trkpt>
      <trkpt lat="48.77697" lon="7.35197">
        <ele>416.638916</ele>
        <time>2010-09-18T08:57:31Z</time>
      </trkpt>
      <trkpt lat="48.777" lon="7.35193">
        <ele>417.717041</ele>
        <time>2010-09-18T08:57:33Z</time>
      </trkpt>
      <trkpt lat="48.77705" lon="7.35189">
        <ele>416.545166</ele>
        <time>2010-09-18T08:57:35Z</time>
      </trkpt>
      <trkpt lat="48.7771" lon="7.35186">
        <ele>416.779541</ele>
        <time>2010-09-18T08:57:37Z</time>
      </trkpt>
      <trkpt lat="48.77714" lon="7.35182">
        <ele>417.435791</ele>
        <time>2010-09-18T08:57:39Z</time>
      </trkpt>
      <trkpt lat="48.77717" lon="7.35175">
        <ele>416.170166</ele>
        <time>2010-09-18T08:57:41Z</time>
      </trkpt>
      <trkpt lat="48.77721" lon="7.35168">
        <ele>416.467041</ele>
        <time>2010-09-18T08:57:43Z</time>
      </trkpt>
      <trkpt lat="48.77725" lon="7.35163">
        <ele>417.670166</ele>
        <time>2010-09-18T08:57:45Z</time>
      </trkpt>
      <trkpt lat="48.77727" lon="7.35157">
        <ele>418.693604</ele>
        <time>2010-09-18T08:57:47Z</time>
      </trkpt>
      <trkpt lat="48.7773" lon="7.35149">
        <ele>417.123291</ele>
        <time>2010-09-18T08:57:49Z</time>
      </trkpt>
      <trkpt lat="48.77733" lon="7.3514">
        <ele>416.076416</ele>
        <time>2010-09-18T08:57:51Z</time>
      </trkpt>
      <trkpt lat="48.77733" lon="7.35132">
        <ele>415.677979</ele>
        <time>2010-09-18T08:57:53Z</time>
      </trkpt>
      <trkpt lat="48.77733" lon="7.35124">
        <ele>417.443604</ele>
        <time>2010-09-18T08:57:55Z</time>
      </trkpt>
      <trkpt lat="48.77731" lon="7.35116">
        <ele>418.576416</ele>
        <time>2010-09-18T08:57:57Z</time>
      </trkpt>
      <trkpt lat="48.77729" lon="7.35108">
        <ele>418.740479</ele>
        <time>2010-09-18T08:57:59Z</time>
      </trkpt>
      <trkpt lat="48.77728" lon="7.35101">
        <ele>419.318604</ele>
        <time>2010-09-18T08:58:01Z</time>
      </trkpt>
      <trkpt lat="48.77726" lon="7.35094">
        <ele>418.998291</ele>
        <time>2010-09-18T08:58:03Z</time>
      </trkpt>
      <trkpt lat="48.77725" lon="7.35087">
        <ele>419.084229</ele>
        <time>2010-09-18T08:58:05Z</time>
      </trkpt>
      <trkpt lat="48.77723" lon="7.3508">
        <ele>418.701416</ele>
        <time>2010-09-18T08:58:07Z</time>
      </trkpt>
      <trkpt lat="48.77721" lon="7.35074">
        <ele>418.279541</ele>
        <time>2010-09-18T08:58:09Z</time>
      </trkpt>
      <trkpt lat="48.77717" lon="7.35067">
        <ele>417.513916</ele>
        <time>2010-09-18T08:58:11Z</time>
      </trkpt>
      <trkpt lat="48.77712" lon="7.3506">
        <ele>416.279541</ele>
        <time>2010-09-18T08:58:13Z</time>
      </trkpt>
      <trkpt lat="48.77706" lon="7.35058">
        <ele>415.623291</ele>
        <time>2010-09-18T08:58:15Z</time>
      </trkpt>
      <trkpt lat="48.777" lon="7.35059">
        <ele>414.443604</ele>
        <time>2010-09-18T08:58:17Z</time>
      </trkpt>
      <trkpt lat="48.77696" lon="7.35064">
        <ele>414.943604</ele>
        <time>2010-09-18T08:58:19Z</time>
      </trkpt>
      <trkpt lat="48.77691" lon="7.35069">
        <ele>415.060791</ele>
        <time>2010-09-18T08:58:21Z</time>
      </trkpt>
      <trkpt lat="48.77687" lon="7.35075">
        <ele>415.092041</ele>
        <time>2010-09-18T08:58:23Z</time>
      </trkpt>
      <trkpt lat="48.77683" lon="7.3508">
        <ele>414.943604</ele>
        <time>2010-09-18T08:58:25Z</time>
      </trkpt>
      <trkpt lat="48.77679" lon="7.35087">
        <ele>415.099854</ele>
        <time>2010-09-18T08:58:27Z</time>
      </trkpt>
      <trkpt lat="48.77675" lon="7.35094">
        <ele>414.849854</ele>
        <time>2010-09-18T08:58:29Z</time>
      </trkpt>
      <trkpt lat="48.77671" lon="7.35098">
        <ele>412.521729</ele>
        <time>2010-09-18T08:58:32Z</time>
      </trkpt>
      <trkpt lat="48.77664" lon="7.351">
        <ele>413.427979</ele>
        <time>2010-09-18T08:58:36Z</time>
      </trkpt>
      <trkpt lat="48.77659" lon="7.3511">
        <ele>414.326416</ele>
        <time>2010-09-18T08:58:38Z</time>
      </trkpt>
      <trkpt lat="48.77655" lon="7.35116">
        <ele>414.185791</ele>
        <time>2010-09-18T08:58:39Z</time>
      </trkpt>
      <trkpt lat="48.77651" lon="7.35125">
        <ele>414.224854</ele>
        <time>2010-09-18T08:58:41Z</time>
      </trkpt>
      <trkpt lat="48.77646" lon="7.35129">
        <ele>414.193604</ele>
        <time>2010-09-18T08:58:42Z</time>
      </trkpt>
      <trkpt lat="48.77642" lon="7.35134">
        <ele>415.396729</ele>
        <time>2010-09-18T08:58:43Z</time>
      </trkpt>
      <trkpt lat="48.77638" lon="7.35138">
        <ele>414.959229</ele>
        <time>2010-09-18T08:58:44Z</time>
      </trkpt>
      <trkpt lat="48.77633" lon="7.35141">
        <ele>414.654541</ele>
        <time>2010-09-18T08:58:45Z</time>
      </trkpt>
      <trkpt lat="48.77627" lon="7.35147">
        <ele>413.810791</ele>
        <time>2010-09-18T08:58:47Z</time>
      </trkpt>
      <trkpt lat="48.77622" lon="7.35152">
        <ele>414.381104</ele>
        <time>2010-09-18T08:58:49Z</time>
      </trkpt>
      <trkpt lat="48.77616" lon="7.35159">
        <ele>414.998291</ele>
        <time>2010-09-18T08:58:51Z</time>
      </trkpt>
      <trkpt lat="48.77609" lon="7.35166">
        <ele>416.459229</ele>
        <time>2010-09-18T08:58:53Z</time>
      </trkpt>
      <trkpt lat="48.77605" lon="7.35172">
        <ele>415.818604</ele>
        <time>2010-09-18T08:58:54Z</time>
      </trkpt>
      <trkpt lat="48.77602" lon="7.35177">
        <ele>416.302979</ele>
        <time>2010-09-18T08:58:55Z</time>
      </trkpt>
      <trkpt lat="48.77597" lon="7.35184">
        <ele>415.795166</ele>
        <time>2010-09-18T08:58:56Z</time>
      </trkpt>
      <trkpt lat="48.77593" lon="7.3519">
        <ele>414.568604</ele>
        <time>2010-09-18T08:58:57Z</time>
      </trkpt>
      <trkpt lat="48.77589" lon="7.35197">
        <ele>413.099854</ele>
        <time>2010-09-18T08:58:58Z</time>
      </trkpt>
      <trkpt lat="48.77586" lon="7.35204">
        <ele>412.310791</ele>
        <time>2010-09-18T08:58:59Z</time>
      </trkpt>
      <trkpt lat="48.77584" lon="7.3521">
        <ele>412.810791</ele>
        <time>2010-09-18T08:59:00Z</time>
      </trkpt>
      <trkpt lat="48.77581" lon="7.35216">
        <ele>413.623291</ele>
        <time>2010-09-18T08:59:01Z</time>
      </trkpt>
      <trkpt lat="48.77578" lon="7.35223">
        <ele>414.482666</ele>
        <time>2010-09-18T08:59:02Z</time>
      </trkpt>
      <trkpt lat="48.77576" lon="7.35229">
        <ele>414.037354</ele>
        <time>2010-09-18T08:59:03Z</time>
      </trkpt>
      <trkpt lat="48.77572" lon="7.3524">
        <ele>415.552979</ele>
        <time>2010-09-18T08:59:05Z</time>
      </trkpt>
      <trkpt lat="48.77566" lon="7.35248">
        <ele>414.701416</ele>
        <time>2010-09-18T08:59:06Z</time>
      </trkpt>
      <trkpt lat="48.77564" lon="7.35255">
        <ele>414.092041</ele>
        <time>2010-09-18T08:59:07Z</time>
      </trkpt>
      <trkpt lat="48.77561" lon="7.35261">
        <ele>414.357666</ele>
        <time>2010-09-18T08:59:08Z</time>
      </trkpt>
      <trkpt lat="48.77557" lon="7.35268">
        <ele>413.685791</ele>
        <time>2010-09-18T08:59:09Z</time>
      </trkpt>
      <trkpt lat="48.77554" lon="7.35275">
        <ele>413.927979</ele>
        <time>2010-09-18T08:59:10Z</time>
      </trkpt>
      <trkpt lat="48.77551" lon="7.35281">
        <ele>413.162354</ele>
        <time>2010-09-18T08:59:11Z</time>
      </trkpt>
      <trkpt lat="48.77548" lon="7.35288">
        <ele>412.545166</ele>
        <time>2010-09-18T08:59:12Z</time>
      </trkpt>
      <trkpt lat="48.77544" lon="7.35295">
        <ele>412.287354</ele>
        <time>2010-09-18T08:59:13Z</time>
      </trkpt>
      <trkpt lat="48.77541" lon="7.35301">
        <ele>412.717041</ele>
        <time>2010-09-18T08:59:14Z</time>
      </trkpt>
      <trkpt lat="48.77537" lon="7.35307">
        <ele>413.248291</ele>
        <time>2010-09-18T08:59:15Z</time>
      </trkpt>
      <trkpt lat="48.77534" lon="7.35313">
        <ele>413.865479</ele>
        <time>2010-09-18T08:59:16Z</time>
      </trkpt>
      <trkpt lat="48.77532" lon="7.35319">
        <ele>413.881104</ele>
        <time>2010-09-18T08:59:17Z</time>
      </trkpt>
      <trkpt lat="48.77529" lon="7.35325">
        <ele>415.037354</ele>
        <time>2010-09-18T08:59:18Z</time>
      </trkpt>
      <trkpt lat="48.77527" lon="7.35331">
        <ele>416.131104</ele>
        <time>2010-09-18T08:59:19Z</time>
      </trkpt>
      <trkpt lat="48.77525" lon="7.3534">
        <ele>418.146729</ele>
        <time>2010-09-18T08:59:21Z</time>
      </trkpt>
      <trkpt lat="48.7752" lon="7.35353">
        <ele>419.060791</ele>
        <time>2010-09-18T08:59:23Z</time>
      </trkpt>
      <trkpt lat="48.77517" lon="7.35358">
        <ele>420.756104</ele>
        <time>2010-09-18T08:59:24Z</time>
      </trkpt>
      <trkpt lat="48.77514" lon="7.35369">
        <ele>422.357666</ele>
        <time>2010-09-18T08:59:26Z</time>
      </trkpt>
      <trkpt lat="48.77511" lon="7.35384">
        <ele>422.795166</ele>
        <time>2010-09-18T08:59:28Z</time>
      </trkpt>
      <trkpt lat="48.77507" lon="7.35393">
        <ele>423.326416</ele>
        <time>2010-09-18T08:59:29Z</time>
      </trkpt>
      <trkpt lat="48.77504" lon="7.354">
        <ele>423.654541</ele>
        <time>2010-09-18T08:59:30Z</time>
      </trkpt>
      <trkpt lat="48.77501" lon="7.35407">
        <ele>423.842041</ele>
        <time>2010-09-18T08:59:31Z</time>
      </trkpt>
      <trkpt lat="48.77499" lon="7.35414">
        <ele>424.482666</ele>
        <time>2010-09-18T08:59:32Z</time>
      </trkpt>
      <trkpt lat="48.77497" lon="7.35421">
        <ele>424.162354</ele>
        <time>2010-09-18T08:59:33Z</time>
      </trkpt>
      <trkpt lat="48.77494" lon="7.35427">
        <ele>425.115479</ele>
        <time>2010-09-18T08:59:34Z</time>
      </trkpt>
      <trkpt lat="48.77492" lon="7.35441">
        <ele>423.951416</ele>
        <time>2010-09-18T08:59:36Z</time>
      </trkpt>
      <trkpt lat="48.77491" lon="7.35449">
        <ele>423.638916</ele>
        <time>2010-09-18T08:59:37Z</time>
      </trkpt>
      <trkpt lat="48.77489" lon="7.35456">
        <ele>424.467041</ele>
        <time>2010-09-18T08:59:38Z</time>
      </trkpt>
      <trkpt lat="48.77483" lon="7.35465">
        <ele>424.607666</ele>
        <time>2010-09-18T08:59:39Z</time>
      </trkpt>
      <trkpt lat="48.77479" lon="7.35473">
        <ele>424.560791</ele>
        <time>2010-09-18T08:59:40Z</time>
      </trkpt>
      <trkpt lat="48.77476" lon="7.3548">
        <ele>424.998291</ele>
        <time>2010-09-18T08:59:41Z</time>
      </trkpt>
      <trkpt lat="48.77472" lon="7.35488">
        <ele>423.771729</ele>
        <time>2010-09-18T08:59:42Z</time>
      </trkpt>
      <trkpt lat="48.77469" lon="7.35496">
        <ele>423.865479</ele>
        <time>2010-09-18T08:59:43Z</time>
      </trkpt>
      <trkpt lat="48.77466" lon="7.35504">
        <ele>422.740479</ele>
        <time>2010-09-18T08:59:44Z</time>
      </trkpt>
      <trkpt lat="48.77462" lon="7.35513">
        <ele>421.349854</ele>
        <time>2010-09-18T08:59:45Z</time>
      </trkpt>
      <trkpt lat="48.77459" lon="7.35521">
        <ele>421.052979</ele>
        <time>2010-09-18T08:59:46Z</time>
      </trkpt>
      <trkpt lat="48.77457" lon="7.35531">
        <ele>419.802979</ele>
        <time>2010-09-18T08:59:47Z</time>
      </trkpt>
      <trkpt lat="48.77456" lon="7.35541">
        <ele>419.177979</ele>
        <time>2010-09-18T08:59:48Z</time>
      </trkpt>
      <trkpt lat="48.77454" lon="7.3555">
        <ele>419.021729</ele>
        <time>2010-09-18T08:59:49Z</time>
      </trkpt>
      <trkpt lat="48.77452" lon="7.3556">
        <ele>418.342041</ele>
        <time>2010-09-18T08:59:50Z</time>
      </trkpt>
      <trkpt lat="48.77451" lon="7.3557">
        <ele>418.123291</ele>
        <time>2010-09-18T08:59:51Z</time>
      </trkpt>
      <trkpt lat="48.77448" lon="7.35582">
        <ele>419.209229</ele>
        <time>2010-09-18T08:59:52Z</time>
      </trkpt>
      <trkpt lat="48.77446" lon="7.35593">
        <ele>418.537354</ele>
        <time>2010-09-18T08:59:53Z</time>
      </trkpt>
      <trkpt lat="48.77443" lon="7.35603">
        <ele>418.388916</ele>
        <time>2010-09-18T08:59:54Z</time>
      </trkpt>
      <trkpt lat="48.77441" lon="7.35613">
        <ele>418.459229</ele>
        <time>2010-09-18T08:59:55Z</time>
      </trkpt>
      <trkpt lat="48.77437" lon="7.35624">
        <ele>418.857666</ele>
        <time>2010-09-18T08:59:56Z</time>
      </trkpt>
      <trkpt lat="48.77433" lon="7.35634">
        <ele>416.592041</ele>
        <time>2010-09-18T08:59:57Z</time>
      </trkpt>
      <trkpt lat="48.7743" lon="7.35644">
        <ele>415.685791</ele>
        <time>2010-09-18T08:59:58Z</time>
      </trkpt>
      <trkpt lat="48.77427" lon="7.35653">
        <ele>413.052979</ele>
        <time>2010-09-18T08:59:59Z</time>
      </trkpt>
      <trkpt lat="48.77424" lon="7.35661">
        <ele>412.021729</ele>
        <time>2010-09-18T09:00:00Z</time>
      </trkpt>
      <trkpt lat="48.77421" lon="7.3567">
        <ele>410.646729</ele>
        <time>2010-09-18T09:00:01Z</time>
      </trkpt>
      <trkpt lat="48.77419" lon="7.35679">
        <ele>410.310791</ele>
        <time>2010-09-18T09:00:02Z</time>
      </trkpt>
      <trkpt lat="48.77417" lon="7.35689">
        <ele>409.365479</ele>
        <time>2010-09-18T09:00:03Z</time>
      </trkpt>
      <trkpt lat="48.77414" lon="7.35699">
        <ele>407.920166</ele>
        <time>2010-09-18T09:00:04Z</time>
      </trkpt>
      <trkpt lat="48.77411" lon="7.35707">
        <ele>407.967041</ele>
        <time>2010-09-18T09:00:05Z</time>
      </trkpt>
      <trkpt lat="48.77407" lon="7.35714">
        <ele>408.107666</ele>
        <time>2010-09-18T09:00:06Z</time>
      </trkpt>
      <trkpt lat="48.77405" lon="7.35722">
        <ele>407.670166</ele>
        <time>2010-09-18T09:00:07Z</time>
      </trkpt>
      <trkpt lat="48.77405" lon="7.35729">
        <ele>407.451416</ele>
        <time>2010-09-18T09:00:08Z</time>
      </trkpt>
      <trkpt lat="48.77407" lon="7.35743">
        <ele>408.263916</ele>
        <time>2010-09-18T09:00:10Z</time>
      </trkpt>
      <trkpt lat="48.77409" lon="7.35752">
        <ele>408.490479</ele>
        <time>2010-09-18T09:00:11Z</time>
      </trkpt>
      <trkpt lat="48.7741" lon="7.35759">
        <ele>409.131104</ele>
        <time>2010-09-18T09:00:12Z</time>
      </trkpt>
      <trkpt lat="48.77411" lon="7.35767">
        <ele>409.310791</ele>
        <time>2010-09-18T09:00:13Z</time>
      </trkpt>
      <trkpt lat="48.77412" lon="7.35776">
        <ele>408.474854</ele>
        <time>2010-09-18T09:00:14Z</time>
      </trkpt>
      <trkpt lat="48.77414" lon="7.35784">
        <ele>408.451416</ele>
        <time>2010-09-18T09:00:15Z</time>
      </trkpt>
      <trkpt lat="48.77416" lon="7.3579">
        <ele>408.029541</ele>
        <time>2010-09-18T09:00:16Z</time>
      </trkpt>
      <trkpt lat="48.77419" lon="7.35796">
        <ele>408.334229</ele>
        <time>2010-09-18T09:00:17Z</time>
      </trkpt>
      <trkpt lat="48.77422" lon="7.35801">
        <ele>408.857666</ele>
        <time>2010-09-18T09:00:18Z</time>
      </trkpt>
      <trkpt lat="48.77426" lon="7.35811">
        <ele>410.443604</ele>
        <time>2010-09-18T09:00:20Z</time>
      </trkpt>
      <trkpt lat="48.77426" lon="7.35818">
        <ele>409.349854</ele>
        <time>2010-09-18T09:00:21Z</time>
      </trkpt>
      <trkpt lat="48.77428" lon="7.35825">
        <ele>407.779541</ele>
        <time>2010-09-18T09:00:22Z</time>
      </trkpt>
      <trkpt lat="48.77432" lon="7.35831">
        <ele>407.334229</ele>
        <time>2010-09-18T09:00:23Z</time>
      </trkpt>
      <trkpt lat="48.77433" lon="7.3584">
        <ele>408.084229</ele>
        <time>2010-09-18T09:00:24Z</time>
      </trkpt>
      <trkpt lat="48.77435" lon="7.3585">
        <ele>409.123291</ele>
        <time>2010-09-18T09:00:25Z</time>
      </trkpt>
      <trkpt lat="48.77438" lon="7.35861">
        <ele>407.420166</ele>
        <time>2010-09-18T09:00:26Z</time>
      </trkpt>
      <trkpt lat="48.77437" lon="7.35874">
        <ele>405.779541</ele>
        <time>2010-09-18T09:00:27Z</time>
      </trkpt>
      <trkpt lat="48.77437" lon="7.35885">
        <ele>405.693604</ele>
        <time>2010-09-18T09:00:28Z</time>
      </trkpt>
      <trkpt lat="48.77438" lon="7.35896">
        <ele>406.084229</ele>
        <time>2010-09-18T09:00:29Z</time>
      </trkpt>
      <trkpt lat="48.7744" lon="7.35907">
        <ele>404.709229</ele>
        <time>2010-09-18T09:00:30Z</time>
      </trkpt>
      <trkpt lat="48.77441" lon="7.35918">
        <ele>404.490479</ele>
        <time>2010-09-18T09:00:31Z</time>
      </trkpt>
      <trkpt lat="48.77444" lon="7.35929">
        <ele>404.326416</ele>
        <time>2010-09-18T09:00:32Z</time>
      </trkpt>
      <trkpt lat="48.77448" lon="7.35939">
        <ele>405.685791</ele>
        <time>2010-09-18T09:00:33Z</time>
      </trkpt>
      <trkpt lat="48.7745" lon="7.35948">
        <ele>405.084229</ele>
        <time>2010-09-18T09:00:34Z</time>
      </trkpt>
      <trkpt lat="48.77453" lon="7.35956">
        <ele>403.967041</ele>
        <time>2010-09-18T09:00:35Z</time>
      </trkpt>
      <trkpt lat="48.77456" lon="7.35967">
        <ele>401.131104</ele>
        <time>2010-09-18T09:00:36Z</time>
      </trkpt>
      <trkpt lat="48.77457" lon="7.35976">
        <ele>400.287354</ele>
        <time>2010-09-18T09:00:37Z</time>
      </trkpt>
      <trkpt lat="48.77457" lon="7.35987">
        <ele>399.326416</ele>
        <time>2010-09-18T09:00:38Z</time>
      </trkpt>
      <trkpt lat="48.77457" lon="7.35996">
        <ele>398.607666</ele>
        <time>2010-09-18T09:00:39Z</time>
      </trkpt>
      <trkpt lat="48.77457" lon="7.36006">
        <ele>397.935791</ele>
        <time>2010-09-18T09:00:40Z</time>
      </trkpt>
      <trkpt lat="48.77457" lon="7.36014">
        <ele>397.584229</ele>
        <time>2010-09-18T09:00:41Z</time>
      </trkpt>
      <trkpt lat="48.77457" lon="7.36021">
        <ele>396.834229</ele>
        <time>2010-09-18T09:00:42Z</time>
      </trkpt>
      <trkpt lat="48.77458" lon="7.36027">
        <ele>396.310791</ele>
        <time>2010-09-18T09:00:43Z</time>
      </trkpt>
      <trkpt lat="48.7746" lon="7.36035">
        <ele>396.513916</ele>
        <time>2010-09-18T09:00:44Z</time>
      </trkpt>
      <trkpt lat="48.77461" lon="7.36043">
        <ele>396.076416</ele>
        <time>2010-09-18T09:00:45Z</time>
      </trkpt>
      <trkpt lat="48.77464" lon="7.36053">
        <ele>395.521729</ele>
        <time>2010-09-18T09:00:46Z</time>
      </trkpt>
      <trkpt lat="48.77467" lon="7.36061">
        <ele>394.826416</ele>
        <time>2010-09-18T09:00:47Z</time>
      </trkpt>
      <trkpt lat="48.77472" lon="7.36069">
        <ele>394.193604</ele>
        <time>2010-09-18T09:00:48Z</time>
      </trkpt>
      <trkpt lat="48.77477" lon="7.36078">
        <ele>393.365479</ele>
        <time>2010-09-18T09:00:49Z</time>
      </trkpt>
      <trkpt lat="48.77482" lon="7.36087">
        <ele>392.545166</ele>
        <time>2010-09-18T09:00:50Z</time>
      </trkpt>
      <trkpt lat="48.77485" lon="7.36095">
        <ele>392.224854</ele>
        <time>2010-09-18T09:00:51Z</time>
      </trkpt>
      <trkpt lat="48.77488" lon="7.36105">
        <ele>392.427979</ele>
        <time>2010-09-18T09:00:52Z</time>
      </trkpt>
      <trkpt lat="48.7749" lon="7.36115">
        <ele>390.248291</ele>
        <time>2010-09-18T09:00:53Z</time>
      </trkpt>
      <trkpt lat="48.77491" lon="7.36125">
        <ele>390.021729</ele>
        <time>2010-09-18T09:00:54Z</time>
      </trkpt>
      <trkpt lat="48.77494" lon="7.36135">
        <ele>389.990479</ele>
        <time>2010-09-18T09:00:55Z</time>
      </trkpt>
      <trkpt lat="48.77496" lon="7.36146">
        <ele>389.490479</ele>
        <time>2010-09-18T09:00:56Z</time>
      </trkpt>
      <trkpt lat="48.77498" lon="7.36156">
        <ele>388.677979</ele>
        <time>2010-09-18T09:00:57Z</time>
      </trkpt>
      <trkpt lat="48.77499" lon="7.36165">
        <ele>388.170166</ele>
        <time>2010-09-18T09:00:58Z</time>
      </trkpt>
      <trkpt lat="48.775" lon="7.36175">
        <ele>387.193604</ele>
        <time>2010-09-18T09:00:59Z</time>
      </trkpt>
      <trkpt lat="48.77501" lon="7.36183">
        <ele>386.482666</ele>
        <time>2010-09-18T09:01:00Z</time>
      </trkpt>
      <trkpt lat="48.775" lon="7.3619">
        <ele>386.631104</ele>
        <time>2010-09-18T09:01:01Z</time>
      </trkpt>
      <trkpt lat="48.77499" lon="7.36197">
        <ele>386.560791</ele>
        <time>2010-09-18T09:01:02Z</time>
      </trkpt>
      <trkpt lat="48.77492" lon="7.36205">
        <ele>386.420166</ele>
        <time>2010-09-18T09:01:04Z</time>
      </trkpt>
      <trkpt lat="48.77487" lon="7.36204">
        <ele>386.881104</ele>
        <time>2010-09-18T09:01:06Z</time>
      </trkpt>
      <trkpt lat="48.77485" lon="7.36196">
        <ele>388.381104</ele>
        <time>2010-09-18T09:01:09Z</time>
      </trkpt>
      <trkpt lat="48.7748" lon="7.36191">
        <ele>392.076416</ele>
        <time>2010-09-18T09:01:12Z</time>
      </trkpt>
      <trkpt lat="48.77477" lon="7.36186">
        <ele>395.732666</ele>
        <time>2010-09-18T09:01:15Z</time>
      </trkpt>
      <trkpt lat="48.77473" lon="7.36181">
        <ele>397.318604</ele>
        <time>2010-09-18T09:01:17Z</time>
      </trkpt>
      <trkpt lat="48.7747" lon="7.36175">
        <ele>399.232666</ele>
        <time>2010-09-18T09:01:19Z</time>
      </trkpt>
      <trkpt lat="48.77465" lon="7.36171">
        <ele>398.412354</ele>
        <time>2010-09-18T09:01:21Z</time>
      </trkpt>
      <trkpt lat="48.77464" lon="7.36162">
        <ele>400.193604</ele>
        <time>2010-09-18T09:01:24Z</time>
      </trkpt>
      <trkpt lat="48.77461" lon="7.36155">
        <ele>399.185791</ele>
        <time>2010-09-18T09:01:26Z</time>
      </trkpt>
      <trkpt lat="48.77457" lon="7.36152">
        <ele>398.099854</ele>
        <time>2010-09-18T09:01:28Z</time>
      </trkpt>
      <trkpt lat="48.77455" lon="7.36145">
        <ele>398.615479</ele>
        <time>2010-09-18T09:01:30Z</time>
      </trkpt>
      <trkpt lat="48.77452" lon="7.36138">
        <ele>398.521729</ele>
        <time>2010-09-18T09:01:33Z</time>
      </trkpt>
      <trkpt lat="48.77447" lon="7.36133">
        <ele>398.685791</ele>
        <time>2010-09-18T09:01:36Z</time>
      </trkpt>
      <trkpt lat="48.77445" lon="7.36126">
        <ele>398.013916</ele>
        <time>2010-09-18T09:01:38Z</time>
      </trkpt>
      <trkpt lat="48.7744" lon="7.36119">
        <ele>397.576416</ele>
        <time>2010-09-18T09:01:40Z</time>
      </trkpt>
      <trkpt lat="48.77436" lon="7.36117">
        <ele>395.967041</ele>
        <time>2010-09-18T09:01:41Z</time>
      </trkpt>
      <trkpt lat="48.7743" lon="7.36111">
        <ele>395.709229</ele>
        <time>2010-09-18T09:01:43Z</time>
      </trkpt>
      <trkpt lat="48.77423" lon="7.36106">
        <ele>395.115479</ele>
        <time>2010-09-18T09:01:45Z</time>
      </trkpt>
      <trkpt lat="48.77419" lon="7.36096">
        <ele>397.677979</ele>
        <time>2010-09-18T09:01:47Z</time>
      </trkpt>
      <trkpt lat="48.77415" lon="7.36088">
        <ele>394.849854</ele>
        <time>2010-09-18T09:01:49Z</time>
      </trkpt>
      <trkpt lat="48.77409" lon="7.36079">
        <ele>391.834229</ele>
        <time>2010-09-18T09:01:51Z</time>
      </trkpt>
      <trkpt lat="48.77406" lon="7.3607">
        <ele>392.029541</ele>
        <time>2010-09-18T09:01:53Z</time>
      </trkpt>
      <trkpt lat="48.77401" lon="7.36061">
        <ele>393.451416</ele>
        <time>2010-09-18T09:01:55Z</time>
      </trkpt>
      <trkpt lat="48.77399" lon="7.36055">
        <ele>393.060791</ele>
        <time>2010-09-18T09:01:56Z</time>
      </trkpt>
      <trkpt lat="48.77396" lon="7.36047">
        <ele>394.974854</ele>
        <time>2010-09-18T09:01:57Z</time>
      </trkpt>
      <trkpt lat="48.77392" lon="7.36039">
        <ele>395.771729</ele>
        <time>2010-09-18T09:01:58Z</time>
      </trkpt>
      <trkpt lat="48.77389" lon="7.36031">
        <ele>396.927979</ele>
        <time>2010-09-18T09:01:59Z</time>
      </trkpt>
      <trkpt lat="48.77385" lon="7.36025">
        <ele>396.302979</ele>
        <time>2010-09-18T09:02:00Z</time>
      </trkpt>
      <trkpt lat="48.77379" lon="7.36019">
        <ele>393.787354</ele>
        <time>2010-09-18T09:02:01Z</time>
      </trkpt>
      <trkpt lat="48.77373" lon="7.36012">
        <ele>392.849854</ele>
        <time>2010-09-18T09:02:02Z</time>
      </trkpt>
      <trkpt lat="48.77368" lon="7.36004">
        <ele>392.592041</ele>
        <time>2010-09-18T09:02:03Z</time>
      </trkpt>
      <trkpt lat="48.77362" lon="7.35994">
        <ele>388.849854</ele>
        <time>2010-09-18T09:02:04Z</time>
      </trkpt>
      <trkpt lat="48.77356" lon="7.35987">
        <ele>388.302979</ele>
        <time>2010-09-18T09:02:05Z</time>
      </trkpt>
      <trkpt lat="48.77349" lon="7.3598">
        <ele>387.193604</ele>
        <time>2010-09-18T09:02:06Z</time>
      </trkpt>
      <trkpt lat="48.77343" lon="7.35973">
        <ele>386.631104</ele>
        <time>2010-09-18T09:02:07Z</time>
      </trkpt>
      <trkpt lat="48.77336" lon="7.35966">
        <ele>387.568604</ele>
        <time>2010-09-18T09:02:08Z</time>
      </trkpt>
      <trkpt lat="48.77332" lon="7.35959">
        <ele>387.474854</ele>
        <time>2010-09-18T09:02:09Z</time>
      </trkpt>
      <trkpt lat="48.77328" lon="7.35949">
        <ele>386.912354</ele>
        <time>2010-09-18T09:02:10Z</time>
      </trkpt>
      <trkpt lat="48.77325" lon="7.35941">
        <ele>387.552979</ele>
        <time>2010-09-18T09:02:11Z</time>
      </trkpt>
      <trkpt lat="48.77321" lon="7.35934">
        <ele>387.552979</ele>
        <time>2010-09-18T09:02:12Z</time>
      </trkpt>
      <trkpt lat="48.77317" lon="7.35927">
        <ele>387.451416</ele>
        <time>2010-09-18T09:02:13Z</time>
      </trkpt>
      <trkpt lat="48.77314" lon="7.35919">
        <ele>387.224854</ele>
        <time>2010-09-18T09:02:14Z</time>
      </trkpt>
      <trkpt lat="48.7731" lon="7.35911">
        <ele>384.857666</ele>
        <time>2010-09-18T09:02:15Z</time>
      </trkpt>
      <trkpt lat="48.77305" lon="7.35905">
        <ele>383.756104</ele>
        <time>2010-09-18T09:02:16Z</time>
      </trkpt>
      <trkpt lat="48.773" lon="7.359">
        <ele>381.943604</ele>
        <time>2010-09-18T09:02:17Z</time>
      </trkpt>
      <trkpt lat="48.77296" lon="7.35896">
        <ele>381.037354</ele>
        <time>2010-09-18T09:02:18Z</time>
      </trkpt>
      <trkpt lat="48.7729" lon="7.35891">
        <ele>381.779541</ele>
        <time>2010-09-18T09:02:20Z</time>
      </trkpt>
      <trkpt lat="48.77284" lon="7.35887">
        <ele>380.092041</ele>
        <time>2010-09-18T09:02:22Z</time>
      </trkpt>
      <trkpt lat="48.77277" lon="7.35883">
        <ele>379.490479</ele>
        <time>2010-09-18T09:02:24Z</time>
      </trkpt>
      <trkpt lat="48.77271" lon="7.35877">
        <ele>378.638916</ele>
        <time>2010-09-18T09:02:26Z</time>
      </trkpt>
      <trkpt lat="48.77269" lon="7.35867">
        <ele>377.170166</ele>
        <time>2010-09-18T09:02:28Z</time>
      </trkpt>
      <trkpt lat="48.77266" lon="7.35856">
        <ele>377.865479</ele>
        <time>2010-09-18T09:02:30Z</time>
      </trkpt>
      <trkpt lat="48.77262" lon="7.35848">
        <ele>376.615479</ele>
        <time>2010-09-18T09:02:32Z</time>
      </trkpt>
      <trkpt lat="48.77256" lon="7.35843">
        <ele>376.334229</ele>
        <time>2010-09-18T09:02:34Z</time>
      </trkpt>
      <trkpt lat="48.77251" lon="7.35838">
        <ele>375.342041</ele>
        <time>2010-09-18T09:02:36Z</time>
      </trkpt>
      <trkpt lat="48.77247" lon="7.35825">
        <ele>375.795166</ele>
        <time>2010-09-18T09:02:38Z</time>
      </trkpt>
      <trkpt lat="48.77246" lon="7.35818">
        <ele>376.013916</ele>
        <time>2010-09-18T09:02:40Z</time>
      </trkpt>
      <trkpt lat="48.77245" lon="7.35801">
        <ele>377.896729</ele>
        <time>2010-09-18T09:02:42Z</time>
      </trkpt>
      <trkpt lat="48.77244" lon="7.35792">
        <ele>379.677979</ele>
        <time>2010-09-18T09:02:43Z</time>
      </trkpt>
      <trkpt lat="48.77243" lon="7.3578">
        <ele>379.209229</ele>
        <time>2010-09-18T09:02:44Z</time>
      </trkpt>
      <trkpt lat="48.77242" lon="7.35769">
        <ele>380.802979</ele>
        <time>2010-09-18T09:02:46Z</time>
      </trkpt>
      <trkpt lat="48.77236" lon="7.3576">
        <ele>381.107666</ele>
        <time>2010-09-18T09:02:48Z</time>
      </trkpt>
      <trkpt lat="48.77232" lon="7.35756">
        <ele>381.592041</ele>
        <time>2010-09-18T09:02:49Z</time>
      </trkpt>
      <trkpt lat="48.77227" lon="7.35751">
        <ele>381.592041</ele>
        <time>2010-09-18T09:02:51Z</time>
      </trkpt>
      <trkpt lat="48.7722" lon="7.35743">
        <ele>380.404541</ele>
        <time>2010-09-18T09:02:53Z</time>
      </trkpt>
      <trkpt lat="48.77214" lon="7.3574">
        <ele>379.607666</ele>
        <time>2010-09-18T09:02:55Z</time>
      </trkpt>
      <trkpt lat="48.7721" lon="7.35736">
        <ele>379.404541</ele>
        <time>2010-09-18T09:02:56Z</time>
      </trkpt>
      <trkpt lat="48.77204" lon="7.35732">
        <ele>379.451416</ele>
        <time>2010-09-18T09:02:58Z</time>
      </trkpt>
      <trkpt lat="48.77197" lon="7.35727">
        <ele>378.717041</ele>
        <time>2010-09-18T09:03:00Z</time>
      </trkpt>
      <trkpt lat="48.77187" lon="7.35723">
        <ele>376.396729</ele>
        <time>2010-09-18T09:03:02Z</time>
      </trkpt>
      <trkpt lat="48.77181" lon="7.3572">
        <ele>375.177979</ele>
        <time>2010-09-18T09:03:04Z</time>
      </trkpt>
      <trkpt lat="48.77176" lon="7.35717">
        <ele>376.115479</ele>
        <time>2010-09-18T09:03:05Z</time>
      </trkpt>
      <trkpt lat="48.77168" lon="7.35709">
        <ele>377.857666</ele>
        <time>2010-09-18T09:03:07Z</time>
      </trkpt>
      <trkpt lat="48.77164" lon="7.35705">
        <ele>377.256104</ele>
        <time>2010-09-18T09:03:08Z</time>
      </trkpt>
      <trkpt lat="48.77159" lon="7.35701">
        <ele>376.037354</ele>
        <time>2010-09-18T09:03:09Z</time>
      </trkpt>
      <trkpt lat="48.77157" lon="7.35691">
        <ele>376.404541</ele>
        <time>2010-09-18T09:03:10Z</time>
      </trkpt>
      <trkpt lat="48.77155" lon="7.35684">
        <ele>375.224854</ele>
        <time>2010-09-18T09:03:11Z</time>
      </trkpt>
      <trkpt lat="48.77151" lon="7.35681">
        <ele>372.888916</ele>
        <time>2010-09-18T09:03:12Z</time>
      </trkpt>
      <trkpt lat="48.77148" lon="7.35672">
        <ele>369.123291</ele>
        <time>2010-09-18T09:03:13Z</time>
      </trkpt>
      <trkpt lat="48.77141" lon="7.3566">
        <ele>366.810791</ele>
        <time>2010-09-18T09:03:15Z</time>
      </trkpt>
      <trkpt lat="48.77139" lon="7.35653">
        <ele>366.068604</ele>
        <time>2010-09-18T09:03:16Z</time>
      </trkpt>
      <trkpt lat="48.77136" lon="7.35643">
        <ele>363.842041</ele>
        <time>2010-09-18T09:03:18Z</time>
      </trkpt>
      <trkpt lat="48.77135" lon="7.35635">
        <ele>363.802979</ele>
        <time>2010-09-18T09:03:19Z</time>
      </trkpt>
      <trkpt lat="48.77133" lon="7.35629">
        <ele>363.849854</ele>
        <time>2010-09-18T09:03:20Z</time>
      </trkpt>
      <trkpt lat="48.77132" lon="7.35621">
        <ele>362.365479</ele>
        <time>2010-09-18T09:03:21Z</time>
      </trkpt>
      <trkpt lat="48.7713" lon="7.35613">
        <ele>363.396729</ele>
        <time>2010-09-18T09:03:22Z</time>
      </trkpt>
      <trkpt lat="48.77128" lon="7.35606">
        <ele>362.584229</ele>
        <time>2010-09-18T09:03:23Z</time>
      </trkpt>
      <trkpt lat="48.77124" lon="7.35596">
        <ele>362.552979</ele>
        <time>2010-09-18T09:03:25Z</time>
      </trkpt>
      <trkpt lat="48.77125" lon="7.35587">
        <ele>364.240479</ele>
        <time>2010-09-18T09:03:27Z</time>
      </trkpt>
      <trkpt lat="48.77124" lon="7.35578">
        <ele>365.568604</ele>
        <time>2010-09-18T09:03:29Z</time>
      </trkpt>
      <trkpt lat="48.77123" lon="7.35567">
        <ele>367.404541</ele>
        <time>2010-09-18T09:03:31Z</time>
      </trkpt>
      <trkpt lat="48.77123" lon="7.35558">
        <ele>368.537354</ele>
        <time>2010-09-18T09:03:33Z</time>
      </trkpt>
      <trkpt lat="48.77121" lon="7.35546">
        <ele>369.771729</ele>
        <time>2010-09-18T09:03:35Z</time>
      </trkpt>
      <trkpt lat="48.7712" lon="7.3553">
        <ele>374.177979</ele>
        <time>2010-09-18T09:03:37Z</time>
      </trkpt>
      <trkpt lat="48.77119" lon="7.35523">
        <ele>375.052979</ele>
        <time>2010-09-18T09:03:38Z</time>
      </trkpt>
      <trkpt lat="48.77119" lon="7.35516">
        <ele>376.779541</ele>
        <time>2010-09-18T09:03:39Z</time>
      </trkpt>
      <trkpt lat="48.77122" lon="7.35504">
        <ele>380.029541</ele>
        <time>2010-09-18T09:03:41Z</time>
      </trkpt>
      <trkpt lat="48.7712" lon="7.35489">
        <ele>383.584229</ele>
        <time>2010-09-18T09:03:43Z</time>
      </trkpt>
      <trkpt lat="48.77119" lon="7.35483">
        <ele>385.052979</ele>
        <time>2010-09-18T09:03:44Z</time>
      </trkpt>
      <trkpt lat="48.77119" lon="7.35472">
        <ele>385.646729</ele>
        <time>2010-09-18T09:03:45Z</time>
      </trkpt>
      <trkpt lat="48.77119" lon="7.35462">
        <ele>388.552979</ele>
        <time>2010-09-18T09:03:46Z</time>
      </trkpt>
      <trkpt lat="48.77116" lon="7.35451">
        <ele>389.818604</ele>
        <time>2010-09-18T09:03:48Z</time>
      </trkpt>
      <trkpt lat="48.77116" lon="7.35443">
        <ele>390.998291</ele>
        <time>2010-09-18T09:03:50Z</time>
      </trkpt>
      <trkpt lat="48.77116" lon="7.35435">
        <ele>389.177979</ele>
        <time>2010-09-18T09:03:53Z</time>
      </trkpt>
      <trkpt lat="48.77115" lon="7.35426">
        <ele>390.248291</ele>
        <time>2010-09-18T09:03:55Z</time>
      </trkpt>
      <trkpt lat="48.77114" lon="7.35415">
        <ele>392.482666</ele>
        <time>2010-09-18T09:03:57Z</time>
      </trkpt>
      <trkpt lat="48.77111" lon="7.35406">
        <ele>393.365479</ele>
        <time>2010-09-18T09:03:59Z</time>
      </trkpt>
      <trkpt lat="48.77114" lon="7.35397">
        <ele>394.248291</ele>
        <time>2010-09-18T09:04:01Z</time>
      </trkpt>
      <trkpt lat="48.77116" lon="7.35388">
        <ele>394.506104</ele>
        <time>2010-09-18T09:04:03Z</time>
      </trkpt>
      <trkpt lat="48.77116" lon="7.35377">
        <ele>396.115479</ele>
        <time>2010-09-18T09:04:05Z</time>
      </trkpt>
      <trkpt lat="48.77118" lon="7.35369">
        <ele>398.427979</ele>
        <time>2010-09-18T09:04:07Z</time>
      </trkpt>
      <trkpt lat="48.77116" lon="7.35363">
        <ele>397.232666</ele>
        <time>2010-09-18T09:04:09Z</time>
      </trkpt>
      <trkpt lat="48.77116" lon="7.35356">
        <ele>394.131104</ele>
        <time>2010-09-18T09:04:11Z</time>
      </trkpt>
      <trkpt lat="48.77118" lon="7.35351">
        <ele>391.263916</ele>
        <time>2010-09-18T09:04:13Z</time>
      </trkpt>
      <trkpt lat="48.77122" lon="7.35346">
        <ele>390.896729</ele>
        <time>2010-09-18T09:04:55Z</time>
      </trkpt>
      <trkpt lat="48.77121" lon="7.35339">
        <ele>391.248291</ele>
        <time>2010-09-18T09:05:09Z</time>
      </trkpt>
      <trkpt lat="48.77121" lon="7.35332">
        <ele>390.990479</ele>
        <time>2010-09-18T09:05:16Z</time>
      </trkpt>
      <trkpt lat="48.7712" lon="7.35325">
        <ele>390.677979</ele>
        <time>2010-09-18T09:05:54Z</time>
      </trkpt>
      <trkpt lat="48.7712" lon="7.35316">
        <ele>390.459229</ele>
        <time>2010-09-18T09:06:00Z</time>
      </trkpt>
      <trkpt lat="48.77119" lon="7.35308">
        <ele>391.092041</ele>
        <time>2010-09-18T09:06:03Z</time>
      </trkpt>
      <trkpt lat="48.77118" lon="7.35301">
        <ele>391.318604</ele>
        <time>2010-09-18T09:06:05Z</time>
      </trkpt>
      <trkpt lat="48.7712" lon="7.35295">
        <ele>389.685791</ele>
        <time>2010-09-18T09:06:09Z</time>
      </trkpt>
      <trkpt lat="48.77116" lon="7.35289">
        <ele>389.162354</ele>
        <time>2010-09-18T09:06:23Z</time>
      </trkpt>
      <trkpt lat="48.77113" lon="7.35283">
        <ele>389.373291</ele>
        <time>2010-09-18T09:06:25Z</time>
      </trkpt>
      <trkpt lat="48.77111" lon="7.35276">
        <ele>389.396729</ele>
        <time>2010-09-18T09:06:27Z</time>
      </trkpt>
      <trkpt lat="48.77109" lon="7.3527">
        <ele>388.998291</ele>
        <time>2010-09-18T09:06:30Z</time>
      </trkpt>
      <trkpt lat="48.77107" lon="7.35265">
        <ele>385.388916</ele>
        <time>2010-09-18T09:06:38Z</time>
      </trkpt>
      <trkpt lat="48.77103" lon="7.35267">
        <ele>381.451416</ele>
        <time>2010-09-18T09:06:41Z</time>
      </trkpt>
      <trkpt lat="48.77094" lon="7.35265">
        <ele>382.670166</ele>
        <time>2010-09-18T09:06:43Z</time>
      </trkpt>
      <trkpt lat="48.77089" lon="7.35266">
        <ele>382.810791</ele>
        <time>2010-09-18T09:06:45Z</time>
      </trkpt>
      <trkpt lat="48.77084" lon="7.35265">
        <ele>383.427979</ele>
        <time>2010-09-18T09:06:47Z</time>
      </trkpt>
      <trkpt lat="48.77075" lon="7.35268">
        <ele>383.888916</ele>
        <time>2010-09-18T09:06:49Z</time>
      </trkpt>
      <trkpt lat="48.7707" lon="7.35269">
        <ele>383.842041</ele>
        <time>2010-09-18T09:06:50Z</time>
      </trkpt>
      <trkpt lat="48.77063" lon="7.35271">
        <ele>384.029541</ele>
        <time>2010-09-18T09:06:51Z</time>
      </trkpt>
      <trkpt lat="48.77055" lon="7.35272">
        <ele>384.334229</ele>
        <time>2010-09-18T09:06:52Z</time>
      </trkpt>
      <trkpt lat="48.7705" lon="7.35273">
        <ele>384.881104</ele>
        <time>2010-09-18T09:06:54Z</time>
      </trkpt>
      <trkpt lat="48.77041" lon="7.35275">
        <ele>385.427979</ele>
        <time>2010-09-18T09:06:56Z</time>
      </trkpt>
      <trkpt lat="48.77035" lon="7.35277">
        <ele>386.006104</ele>
        <time>2010-09-18T09:06:57Z</time>
      </trkpt>
      <trkpt lat="48.77027" lon="7.3528">
        <ele>386.560791</ele>
        <time>2010-09-18T09:06:59Z</time>
      </trkpt>
      <trkpt lat="48.77022" lon="7.35282">
        <ele>386.459229</ele>
        <time>2010-09-18T09:07:00Z</time>
      </trkpt>
      <trkpt lat="48.77017" lon="7.35283">
        <ele>386.787354</ele>
        <time>2010-09-18T09:07:01Z</time>
      </trkpt>
      <trkpt lat="48.77012" lon="7.35285">
        <ele>386.646729</ele>
        <time>2010-09-18T09:07:02Z</time>
      </trkpt>
      <trkpt lat="48.77006" lon="7.35286">
        <ele>387.045166</ele>
        <time>2010-09-18T09:07:03Z</time>
      </trkpt>
      <trkpt lat="48.76996" lon="7.35284">
        <ele>387.170166</ele>
        <time>2010-09-18T09:07:05Z</time>
      </trkpt>
      <trkpt lat="48.76991" lon="7.35277">
        <ele>386.060791</ele>
        <time>2010-09-18T09:07:06Z</time>
      </trkpt>
      <trkpt lat="48.76988" lon="7.3527">
        <ele>387.256104</ele>
        <time>2010-09-18T09:07:08Z</time>
      </trkpt>
      <trkpt lat="48.76979" lon="7.35264">
        <ele>388.295166</ele>
        <time>2010-09-18T09:07:10Z</time>
      </trkpt>
      <trkpt lat="48.76974" lon="7.35262">
        <ele>389.787354</ele>
        <time>2010-09-18T09:07:11Z</time>
      </trkpt>
      <trkpt lat="48.76967" lon="7.3526">
        <ele>391.482666</ele>
        <time>2010-09-18T09:07:12Z</time>
      </trkpt>
      <trkpt lat="48.76962" lon="7.35257">
        <ele>392.521729</ele>
        <time>2010-09-18T09:07:14Z</time>
      </trkpt>
      <trkpt lat="48.76955" lon="7.35259">
        <ele>394.232666</ele>
        <time>2010-09-18T09:07:15Z</time>
      </trkpt>
      <trkpt lat="48.76948" lon="7.35255">
        <ele>395.474854</ele>
        <time>2010-09-18T09:07:17Z</time>
      </trkpt>
      <trkpt lat="48.76942" lon="7.35252">
        <ele>396.412354</ele>
        <time>2010-09-18T09:07:19Z</time>
      </trkpt>
      <trkpt lat="48.76935" lon="7.35251">
        <ele>398.068604</ele>
        <time>2010-09-18T09:07:21Z</time>
      </trkpt>
      <trkpt lat="48.7693" lon="7.35245">
        <ele>398.162354</ele>
        <time>2010-09-18T09:07:23Z</time>
      </trkpt>
      <trkpt lat="48.76926" lon="7.35238">
        <ele>398.896729</ele>
        <time>2010-09-18T09:07:25Z</time>
      </trkpt>
      <trkpt lat="48.76923" lon="7.35229">
        <ele>400.021729</ele>
        <time>2010-09-18T09:07:27Z</time>
      </trkpt>
      <trkpt lat="48.76921" lon="7.35221">
        <ele>400.818604</ele>
        <time>2010-09-18T09:07:29Z</time>
      </trkpt>
      <trkpt lat="48.76919" lon="7.35214">
        <ele>402.177979</ele>
        <time>2010-09-18T09:07:31Z</time>
      </trkpt>
      <trkpt lat="48.76912" lon="7.35211">
        <ele>404.287354</ele>
        <time>2010-09-18T09:07:34Z</time>
      </trkpt>
      <trkpt lat="48.76907" lon="7.35208">
        <ele>405.576416</ele>
        <time>2010-09-18T09:07:36Z</time>
      </trkpt>
      <trkpt lat="48.76902" lon="7.35208">
        <ele>407.802979</ele>
        <time>2010-09-18T09:07:40Z</time>
      </trkpt>
      <trkpt lat="48.76898" lon="7.3521">
        <ele>409.506104</ele>
        <time>2010-09-18T09:08:08Z</time>
      </trkpt>
      <trkpt lat="48.76893" lon="7.35218">
        <ele>409.224854</ele>
        <time>2010-09-18T09:08:15Z</time>
      </trkpt>
      <trkpt lat="48.7689" lon="7.35224">
        <ele>408.771729</ele>
        <time>2010-09-18T09:08:17Z</time>
      </trkpt>
      <trkpt lat="48.76889" lon="7.35234">
        <ele>407.842041</ele>
        <time>2010-09-18T09:08:19Z</time>
      </trkpt>
      <trkpt lat="48.76886" lon="7.35244">
        <ele>407.060791</ele>
        <time>2010-09-18T09:08:21Z</time>
      </trkpt>
      <trkpt lat="48.76885" lon="7.35251">
        <ele>406.677979</ele>
        <time>2010-09-18T09:08:22Z</time>
      </trkpt>
      <trkpt lat="48.76883" lon="7.35259">
        <ele>406.201416</ele>
        <time>2010-09-18T09:08:23Z</time>
      </trkpt>
      <trkpt lat="48.76883" lon="7.35273">
        <ele>404.427979</ele>
        <time>2010-09-18T09:08:25Z</time>
      </trkpt>
      <trkpt lat="48.7688" lon="7.35281">
        <ele>403.959229</ele>
        <time>2010-09-18T09:08:26Z</time>
      </trkpt>
      <trkpt lat="48.76878" lon="7.3529">
        <ele>403.326416</ele>
        <time>2010-09-18T09:08:27Z</time>
      </trkpt>
      <trkpt lat="48.76876" lon="7.35299">
        <ele>402.592041</ele>
        <time>2010-09-18T09:08:28Z</time>
      </trkpt>
      <trkpt lat="48.76875" lon="7.35307">
        <ele>401.521729</ele>
        <time>2010-09-18T09:08:29Z</time>
      </trkpt>
      <trkpt lat="48.76872" lon="7.35316">
        <ele>400.107666</ele>
        <time>2010-09-18T09:08:30Z</time>
      </trkpt>
      <trkpt lat="48.7687" lon="7.35324">
        <ele>398.896729</ele>
        <time>2010-09-18T09:08:31Z</time>
      </trkpt>
      <trkpt lat="48.76869" lon="7.35332">
        <ele>398.131104</ele>
        <time>2010-09-18T09:08:32Z</time>
      </trkpt>
      <trkpt lat="48.76866" lon="7.3534">
        <ele>396.951416</ele>
        <time>2010-09-18T09:08:33Z</time>
      </trkpt>
      <trkpt lat="48.76863" lon="7.35346">
        <ele>395.287354</ele>
        <time>2010-09-18T09:08:34Z</time>
      </trkpt>
      <trkpt lat="48.76859" lon="7.35352">
        <ele>393.795166</ele>
        <time>2010-09-18T09:08:35Z</time>
      </trkpt>
      <trkpt lat="48.7685" lon="7.35364">
        <ele>392.904541</ele>
        <time>2010-09-18T09:08:37Z</time>
      </trkpt>
      <trkpt lat="48.76843" lon="7.35369">
        <ele>392.263916</ele>
        <time>2010-09-18T09:08:39Z</time>
      </trkpt>
      <trkpt lat="48.76834" lon="7.35365">
        <ele>389.506104</ele>
        <time>2010-09-18T09:08:41Z</time>
      </trkpt>
      <trkpt lat="48.76827" lon="7.35362">
        <ele>385.615479</ele>
        <time>2010-09-18T09:08:42Z</time>
      </trkpt>
      <trkpt lat="48.76823" lon="7.35359">
        <ele>384.443604</ele>
        <time>2010-09-18T09:08:43Z</time>
      </trkpt>
      <trkpt lat="48.76816" lon="7.35355">
        <ele>383.810791</ele>
        <time>2010-09-18T09:08:44Z</time>
      </trkpt>
      <trkpt lat="48.76811" lon="7.35344">
        <ele>381.021729</ele>
        <time>2010-09-18T09:08:45Z</time>
      </trkpt>
      <trkpt lat="48.76806" lon="7.3534">
        <ele>381.131104</ele>
        <time>2010-09-18T09:08:46Z</time>
      </trkpt>
      <trkpt lat="48.76791" lon="7.3534">
        <ele>377.209229</ele>
        <time>2010-09-18T09:08:47Z</time>
      </trkpt>
      <trkpt lat="48.76784" lon="7.35335">
        <ele>375.685791</ele>
        <time>2010-09-18T09:08:48Z</time>
      </trkpt>
      <trkpt lat="48.76776" lon="7.35327">
        <ele>373.920166</ele>
        <time>2010-09-18T09:08:49Z</time>
      </trkpt>
      <trkpt lat="48.76769" lon="7.35322">
        <ele>372.568604</ele>
        <time>2010-09-18T09:08:50Z</time>
      </trkpt>
      <trkpt lat="48.76764" lon="7.35314">
        <ele>371.279541</ele>
        <time>2010-09-18T09:08:51Z</time>
      </trkpt>
      <trkpt lat="48.76757" lon="7.35308">
        <ele>370.193604</ele>
        <time>2010-09-18T09:08:52Z</time>
      </trkpt>
      <trkpt lat="48.76752" lon="7.353">
        <ele>368.326416</ele>
        <time>2010-09-18T09:08:53Z</time>
      </trkpt>
      <trkpt lat="48.76747" lon="7.35293">
        <ele>367.373291</ele>
        <time>2010-09-18T09:08:54Z</time>
      </trkpt>
      <trkpt lat="48.76741" lon="7.35287">
        <ele>365.685791</ele>
        <time>2010-09-18T09:08:55Z</time>
      </trkpt>
      <trkpt lat="48.76738" lon="7.35278">
        <ele>364.006104</ele>
        <time>2010-09-18T09:08:56Z</time>
      </trkpt>
      <trkpt lat="48.76735" lon="7.3527">
        <ele>362.818604</ele>
        <time>2010-09-18T09:08:57Z</time>
      </trkpt>
      <trkpt lat="48.76732" lon="7.35263">
        <ele>362.592041</ele>
        <time>2010-09-18T09:08:58Z</time>
      </trkpt>
      <trkpt lat="48.76727" lon="7.35256">
        <ele>361.717041</ele>
        <time>2010-09-18T09:08:59Z</time>
      </trkpt>
      <trkpt lat="48.76723" lon="7.35251">
        <ele>360.717041</ele>
        <time>2010-09-18T09:09:00Z</time>
      </trkpt>
      <trkpt lat="48.76716" lon="7.35242">
        <ele>358.974854</ele>
        <time>2010-09-18T09:09:02Z</time>
      </trkpt>
      <trkpt lat="48.76713" lon="7.35236">
        <ele>357.545166</ele>
        <time>2010-09-18T09:09:03Z</time>
      </trkpt>
      <trkpt lat="48.76711" lon="7.35225">
        <ele>354.724854</ele>
        <time>2010-09-18T09:09:04Z</time>
      </trkpt>
      <trkpt lat="48.76708" lon="7.35216">
        <ele>352.310791</ele>
        <time>2010-09-18T09:09:05Z</time>
      </trkpt>
      <trkpt lat="48.76706" lon="7.3521">
        <ele>350.935791</ele>
        <time>2010-09-18T09:09:06Z</time>
      </trkpt>
      <trkpt lat="48.76701" lon="7.35204">
        <ele>349.138916</ele>
        <time>2010-09-18T09:09:07Z</time>
      </trkpt>
      <trkpt lat="48.76699" lon="7.35195">
        <ele>347.099854</ele>
        <time>2010-09-18T09:09:08Z</time>
      </trkpt>
      <trkpt lat="48.76699" lon="7.35186">
        <ele>345.623291</ele>
        <time>2010-09-18T09:09:09Z</time>
      </trkpt>
      <trkpt lat="48.76698" lon="7.35178">
        <ele>344.107666</ele>
        <time>2010-09-18T09:09:10Z</time>
      </trkpt>
      <trkpt lat="48.76693" lon="7.3517">
        <ele>343.193604</ele>
        <time>2010-09-18T09:09:12Z</time>
      </trkpt>
      <trkpt lat="48.76691" lon="7.35164">
        <ele>342.388916</ele>
        <time>2010-09-18T09:09:14Z</time>
      </trkpt>
      <trkpt lat="48.76687" lon="7.3516">
        <ele>342.576416</ele>
        <time>2010-09-18T09:09:17Z</time>
      </trkpt>
      <trkpt lat="48.76682" lon="7.35154">
        <ele>340.756104</ele>
        <time>2010-09-18T09:09:20Z</time>
      </trkpt>
      <trkpt lat="48.76678" lon="7.35152">
        <ele>339.631104</ele>
        <time>2010-09-18T09:09:24Z</time>
      </trkpt>
      <trkpt lat="48.7667" lon="7.35148">
        <ele>338.623291</ele>
        <time>2010-09-18T09:09:26Z</time>
      </trkpt>
      <trkpt lat="48.76666" lon="7.35145">
        <ele>337.763916</ele>
        <time>2010-09-18T09:09:27Z</time>
      </trkpt>
      <trkpt lat="48.76661" lon="7.35139">
        <ele>337.240479</ele>
        <time>2010-09-18T09:09:29Z</time>
      </trkpt>
      <trkpt lat="48.76658" lon="7.35133">
        <ele>335.779541</ele>
        <time>2010-09-18T09:09:31Z</time>
      </trkpt>
      <trkpt lat="48.76652" lon="7.35131">
        <ele>334.615479</ele>
        <time>2010-09-18T09:09:32Z</time>
      </trkpt>
      <trkpt lat="48.76648" lon="7.35128">
        <ele>333.474854</ele>
        <time>2010-09-18T09:09:33Z</time>
      </trkpt>
      <trkpt lat="48.76643" lon="7.35123">
        <ele>333.193604</ele>
        <time>2010-09-18T09:09:35Z</time>
      </trkpt>
      <trkpt lat="48.7664" lon="7.35118">
        <ele>333.888916</ele>
        <time>2010-09-18T09:09:37Z</time>
      </trkpt>
      <trkpt lat="48.76635" lon="7.35113">
        <ele>334.373291</ele>
        <time>2010-09-18T09:09:39Z</time>
      </trkpt>
      <trkpt lat="48.76629" lon="7.35109">
        <ele>333.060791</ele>
        <time>2010-09-18T09:09:41Z</time>
      </trkpt>
      <trkpt lat="48.76625" lon="7.35105">
        <ele>332.099854</ele>
        <time>2010-09-18T09:09:43Z</time>
      </trkpt>
      <trkpt lat="48.7662" lon="7.35101">
        <ele>331.998291</ele>
        <time>2010-09-18T09:09:45Z</time>
      </trkpt>
      <trkpt lat="48.76615" lon="7.35099">
        <ele>331.232666</ele>
        <time>2010-09-18T09:09:46Z</time>
      </trkpt>
      <trkpt lat="48.76609" lon="7.35096">
        <ele>330.826416</ele>
        <time>2010-09-18T09:09:47Z</time>
      </trkpt>
      <trkpt lat="48.76603" lon="7.35094">
        <ele>330.232666</ele>
        <time>2010-09-18T09:09:49Z</time>
      </trkpt>
      <trkpt lat="48.76597" lon="7.35096">
        <ele>328.873291</ele>
        <time>2010-09-18T09:09:51Z</time>
      </trkpt>
      <trkpt lat="48.76593" lon="7.35101">
        <ele>327.326416</ele>
        <time>2010-09-18T09:09:53Z</time>
      </trkpt>
      <trkpt lat="48.76588" lon="7.35102">
        <ele>326.662354</ele>
        <time>2010-09-18T09:10:32Z</time>
      </trkpt>
      <trkpt lat="48.76583" lon="7.35103">
        <ele>327.295166</ele>
        <time>2010-09-18T09:10:34Z</time>
      </trkpt>
      <trkpt lat="48.76577" lon="7.35107">
        <ele>327.552979</ele>
        <time>2010-09-18T09:10:37Z</time>
      </trkpt>
      <trkpt lat="48.76571" lon="7.35108">
        <ele>327.217041</ele>
        <time>2010-09-18T09:10:39Z</time>
      </trkpt>
      <trkpt lat="48.76565" lon="7.35113">
        <ele>328.302979</ele>
        <time>2010-09-18T09:10:41Z</time>
      </trkpt>
      <trkpt lat="48.76563" lon="7.35119">
        <ele>328.873291</ele>
        <time>2010-09-18T09:10:43Z</time>
      </trkpt>
      <trkpt lat="48.76563" lon="7.35131">
        <ele>329.982666</ele>
        <time>2010-09-18T09:10:45Z</time>
      </trkpt>
      <trkpt lat="48.76564" lon="7.35137">
        <ele>330.724854</ele>
        <time>2010-09-18T09:10:46Z</time>
      </trkpt>
      <trkpt lat="48.76565" lon="7.35144">
        <ele>331.349854</ele>
        <time>2010-09-18T09:10:47Z</time>
      </trkpt>
      <trkpt lat="48.76567" lon="7.35152">
        <ele>332.404541</ele>
        <time>2010-09-18T09:10:48Z</time>
      </trkpt>
      <trkpt lat="48.76569" lon="7.35159">
        <ele>333.677979</ele>
        <time>2010-09-18T09:10:49Z</time>
      </trkpt>
      <trkpt lat="48.76572" lon="7.35173">
        <ele>334.763916</ele>
        <time>2010-09-18T09:10:51Z</time>
      </trkpt>
      <trkpt lat="48.76574" lon="7.35179">
        <ele>335.599854</ele>
        <time>2010-09-18T09:10:52Z</time>
      </trkpt>
      <trkpt lat="48.76578" lon="7.3519">
        <ele>337.037354</ele>
        <time>2010-09-18T09:10:54Z</time>
      </trkpt>
      <trkpt lat="48.76579" lon="7.35205">
        <ele>338.029541</ele>
        <time>2010-09-18T09:10:56Z</time>
      </trkpt>
      <trkpt lat="48.7658" lon="7.35212">
        <ele>338.654541</ele>
        <time>2010-09-18T09:10:57Z</time>
      </trkpt>
      <trkpt lat="48.76581" lon="7.35221">
        <ele>339.443604</ele>
        <time>2010-09-18T09:10:58Z</time>
      </trkpt>
      <trkpt lat="48.76584" lon="7.35228">
        <ele>339.584229</ele>
        <time>2010-09-18T09:10:59Z</time>
      </trkpt>
      <trkpt lat="48.76585" lon="7.35235">
        <ele>339.420166</ele>
        <time>2010-09-18T09:11:00Z</time>
      </trkpt>
      <trkpt lat="48.76587" lon="7.35242">
        <ele>339.638916</ele>
        <time>2010-09-18T09:11:01Z</time>
      </trkpt>
      <trkpt lat="48.76589" lon="7.3525">
        <ele>340.076416</ele>
        <time>2010-09-18T09:11:02Z</time>
      </trkpt>
      <trkpt lat="48.76592" lon="7.3526">
        <ele>339.701416</ele>
        <time>2010-09-18T09:11:04Z</time>
      </trkpt>
      <trkpt lat="48.76599" lon="7.35272">
        <ele>339.771729</ele>
        <time>2010-09-18T09:11:06Z</time>
      </trkpt>
      <trkpt lat="48.76602" lon="7.35279">
        <ele>340.381104</ele>
        <time>2010-09-18T09:11:07Z</time>
      </trkpt>
      <trkpt lat="48.76604" lon="7.35285">
        <ele>340.771729</ele>
        <time>2010-09-18T09:11:08Z</time>
      </trkpt>
      <trkpt lat="48.76606" lon="7.35292">
        <ele>341.107666</ele>
        <time>2010-09-18T09:11:09Z</time>
      </trkpt>
      <trkpt lat="48.76608" lon="7.35299">
        <ele>341.677979</ele>
        <time>2010-09-18T09:11:10Z</time>
      </trkpt>
      <trkpt lat="48.76611" lon="7.35309">
        <ele>342.873291</ele>
        <time>2010-09-18T09:11:11Z</time>
      </trkpt>
      <trkpt lat="48.76614" lon="7.35316">
        <ele>342.888916</ele>
        <time>2010-09-18T09:11:12Z</time>
      </trkpt>
      <trkpt lat="48.76618" lon="7.35326">
        <ele>344.756104</ele>
        <time>2010-09-18T09:11:14Z</time>
      </trkpt>
      <trkpt lat="48.76622" lon="7.35335">
        <ele>346.349854</ele>
        <time>2010-09-18T09:11:16Z</time>
      </trkpt>
      <trkpt lat="48.76624" lon="7.35344">
        <ele>347.896729</ele>
        <time>2010-09-18T09:11:18Z</time>
      </trkpt>
      <trkpt lat="48.76624" lon="7.35351">
        <ele>348.209229</ele>
        <time>2010-09-18T09:11:19Z</time>
      </trkpt>
      <trkpt lat="48.76627" lon="7.35362">
        <ele>347.998291</ele>
        <time>2010-09-18T09:11:21Z</time>
      </trkpt>
      <trkpt lat="48.76627" lon="7.35371">
        <ele>347.756104</ele>
        <time>2010-09-18T09:11:23Z</time>
      </trkpt>
      <trkpt lat="48.76627" lon="7.3538">
        <ele>348.685791</ele>
        <time>2010-09-18T09:11:25Z</time>
      </trkpt>
      <trkpt lat="48.76628" lon="7.35388">
        <ele>349.967041</ele>
        <time>2010-09-18T09:11:27Z</time>
      </trkpt>
      <trkpt lat="48.76629" lon="7.35395">
        <ele>351.084229</ele>
        <time>2010-09-18T09:11:29Z</time>
      </trkpt>
      <trkpt lat="48.7663" lon="7.35403">
        <ele>352.170166</ele>
        <time>2010-09-18T09:11:32Z</time>
      </trkpt>
      <trkpt lat="48.76632" lon="7.35409">
        <ele>354.521729</ele>
        <time>2010-09-18T09:11:44Z</time>
      </trkpt>
      <trkpt lat="48.76635" lon="7.35414">
        <ele>354.013916</ele>
        <time>2010-09-18T09:11:48Z</time>
      </trkpt>
      <trkpt lat="48.76637" lon="7.35422">
        <ele>351.998291</ele>
        <time>2010-09-18T09:11:50Z</time>
      </trkpt>
      <trkpt lat="48.76641" lon="7.35429">
        <ele>350.349854</ele>
        <time>2010-09-18T09:11:52Z</time>
      </trkpt>
      <trkpt lat="48.76645" lon="7.35432">
        <ele>348.779541</ele>
        <time>2010-09-18T09:11:56Z</time>
      </trkpt>
      <trkpt lat="48.76645" lon="7.3544">
        <ele>348.107666</ele>
        <time>2010-09-18T09:11:58Z</time>
      </trkpt>
      <trkpt lat="48.76648" lon="7.35449">
        <ele>347.849854</ele>
        <time>2010-09-18T09:12:01Z</time>
      </trkpt>
      <trkpt lat="48.76651" lon="7.35455">
        <ele>347.076416</ele>
        <time>2010-09-18T09:12:04Z</time>
      </trkpt>
      <trkpt lat="48.76652" lon="7.35462">
        <ele>345.404541</ele>
        <time>2010-09-18T09:12:06Z</time>
      </trkpt>
      <trkpt lat="48.76655" lon="7.35471">
        <ele>344.256104</ele>
        <time>2010-09-18T09:12:08Z</time>
      </trkpt>
      <trkpt lat="48.76658" lon="7.35482">
        <ele>341.052979</ele>
        <time>2010-09-18T09:12:10Z</time>
      </trkpt>
      <trkpt lat="48.7666" lon="7.35489">
        <ele>339.342041</ele>
        <time>2010-09-18T09:12:11Z</time>
      </trkpt>
      <trkpt lat="48.76662" lon="7.35496">
        <ele>338.912354</ele>
        <time>2010-09-18T09:12:12Z</time>
      </trkpt>
      <trkpt lat="48.76664" lon="7.35504">
        <ele>338.865479</ele>
        <time>2010-09-18T09:12:13Z</time>
      </trkpt>
      <trkpt lat="48.76666" lon="7.35512">
        <ele>337.310791</ele>
        <time>2010-09-18T09:12:14Z</time>
      </trkpt>
      <trkpt lat="48.76668" lon="7.3552">
        <ele>336.037354</ele>
        <time>2010-09-18T09:12:15Z</time>
      </trkpt>
      <trkpt lat="48.7667" lon="7.35527">
        <ele>333.662354</ele>
        <time>2010-09-18T09:12:17Z</time>
      </trkpt>
      <trkpt lat="48.76668" lon="7.35535">
        <ele>331.810791</ele>
        <time>2010-09-18T09:12:20Z</time>
      </trkpt>
      <trkpt lat="48.76667" lon="7.35541">
        <ele>328.185791</ele>
        <time>2010-09-18T09:12:26Z</time>
      </trkpt>
      <trkpt lat="48.76664" lon="7.35548">
        <ele>324.818604</ele>
        <time>2010-09-18T09:12:29Z</time>
      </trkpt>
      <trkpt lat="48.76658" lon="7.35555">
        <ele>324.021729</ele>
        <time>2010-09-18T09:12:31Z</time>
      </trkpt>
      <trkpt lat="48.76652" lon="7.35561">
        <ele>323.412354</ele>
        <time>2010-09-18T09:12:33Z</time>
      </trkpt>
      <trkpt lat="48.76659" lon="7.35565">
        <ele>316.592041</ele>
        <time>2010-09-18T09:12:34Z</time>
      </trkpt>
      <trkpt lat="48.76659" lon="7.35573">
        <ele>313.896729</ele>
        <time>2010-09-18T09:12:36Z</time>
      </trkpt>
      <trkpt lat="48.7666" lon="7.3558">
        <ele>311.498291</ele>
        <time>2010-09-18T09:12:38Z</time>
      </trkpt>
      <trkpt lat="48.76659" lon="7.35582">
        <ele>306.224854</ele>
        <time>2010-09-18T09:12:46Z</time>
      </trkpt>
      <trkpt lat="48.76656" lon="7.35585">
        <ele>303.099854</ele>
        <time>2010-09-18T09:12:58Z</time>
      </trkpt>
      <trkpt lat="48.76652" lon="7.35584">
        <ele>304.927979</ele>
        <time>2010-09-18T09:13:11Z</time>
      </trkpt>
      <trkpt lat="48.76656" lon="7.35582">
        <ele>301.513916</ele>
        <time>2010-09-18T09:13:55Z</time>
      </trkpt>
      <trkpt lat="48.76656" lon="7.35587">
        <ele>296.810791</ele>
        <time>2010-09-18T09:15:02Z</time>
      </trkpt>
      <trkpt lat="48.7666" lon="7.35588">
        <ele>293.935791</ele>
        <time>2010-09-18T09:15:03Z</time>
      </trkpt>
      <trkpt lat="48.76663" lon="7.35593">
        <ele>290.381104</ele>
        <time>2010-09-18T09:15:08Z</time>
      </trkpt>
      <trkpt lat="48.76658" lon="7.35594">
        <ele>289.146729</ele>
        <time>2010-09-18T09:15:24Z</time>
      </trkpt>
      <trkpt lat="48.76653" lon="7.35596">
        <ele>290.506104</ele>
        <time>2010-09-18T09:15:27Z</time>
      </trkpt>
      <trkpt lat="48.7665" lon="7.35606">
        <ele>291.263916</ele>
        <time>2010-09-18T09:15:30Z</time>
      </trkpt>
      <trkpt lat="48.76645" lon="7.35605">
        <ele>293.834229</ele>
        <time>2010-09-18T09:15:33Z</time>
      </trkpt>
      <trkpt lat="48.76641" lon="7.35596">
        <ele>293.568604</ele>
        <time>2010-09-18T09:15:38Z</time>
      </trkpt>
      <trkpt lat="48.76635" lon="7.35587">
        <ele>292.451416</ele>
        <time>2010-09-18T09:15:40Z</time>
      </trkpt>
      <trkpt lat="48.7663" lon="7.35575">
        <ele>291.865479</ele>
        <time>2010-09-18T09:15:42Z</time>
      </trkpt>
      <trkpt lat="48.76626" lon="7.35568">
        <ele>291.443604</ele>
        <time>2010-09-18T09:15:43Z</time>
      </trkpt>
      <trkpt lat="48.76623" lon="7.35561">
        <ele>291.271729</ele>
        <time>2010-09-18T09:15:44Z</time>
      </trkpt>
      <trkpt lat="48.76621" lon="7.35553">
        <ele>291.045166</ele>
        <time>2010-09-18T09:15:45Z</time>
      </trkpt>
      <trkpt lat="48.76617" lon="7.35546">
        <ele>290.888916</ele>
        <time>2010-09-18T09:15:46Z</time>
      </trkpt>
      <trkpt lat="48.76614" lon="7.35538">
        <ele>290.842041</ele>
        <time>2010-09-18T09:15:47Z</time>
      </trkpt>
      <trkpt lat="48.76611" lon="7.35531">
        <ele>290.506104</ele>
        <time>2010-09-18T09:15:48Z</time>
      </trkpt>
      <trkpt lat="48.76608" lon="7.35523">
        <ele>290.381104</ele>
        <time>2010-09-18T09:15:49Z</time>
      </trkpt>
      <trkpt lat="48.76605" lon="7.35516">
        <ele>290.279541</ele>
        <time>2010-09-18T09:15:50Z</time>
      </trkpt>
      <trkpt lat="48.76602" lon="7.35509">
        <ele>290.342041</ele>
        <time>2010-09-18T09:15:51Z</time>
      </trkpt>
      <trkpt lat="48.76598" lon="7.35502">
        <ele>290.334229</ele>
        <time>2010-09-18T09:15:52Z</time>
      </trkpt>
      <trkpt lat="48.76594" lon="7.35491">
        <ele>290.927979</ele>
        <time>2010-09-18T09:15:54Z</time>
      </trkpt>
      <trkpt lat="48.76587" lon="7.35477">
        <ele>289.365479</ele>
        <time>2010-09-18T09:15:56Z</time>
      </trkpt>
      <trkpt lat="48.76582" lon="7.35471">
        <ele>288.279541</ele>
        <time>2010-09-18T09:15:57Z</time>
      </trkpt>
      <trkpt lat="48.76576" lon="7.35466">
        <ele>284.896729</ele>
        <time>2010-09-18T09:15:58Z</time>
      </trkpt>
      <trkpt lat="48.76571" lon="7.35461">
        <ele>284.060791</ele>
        <time>2010-09-18T09:15:59Z</time>
      </trkpt>
      <trkpt lat="48.76566" lon="7.35456">
        <ele>283.365479</ele>
        <time>2010-09-18T09:16:00Z</time>
      </trkpt>
      <trkpt lat="48.76561" lon="7.35451">
        <ele>282.717041</ele>
        <time>2010-09-18T09:16:01Z</time>
      </trkpt>
      <trkpt lat="48.76556" lon="7.35445">
        <ele>281.209229</ele>
        <time>2010-09-18T09:16:02Z</time>
      </trkpt>
      <trkpt lat="48.76551" lon="7.35441">
        <ele>280.740479</ele>
        <time>2010-09-18T09:16:03Z</time>
      </trkpt>
      <trkpt lat="48.76545" lon="7.35436">
        <ele>280.084229</ele>
        <time>2010-09-18T09:16:04Z</time>
      </trkpt>
      <trkpt lat="48.7654" lon="7.35431">
        <ele>279.685791</ele>
        <time>2010-09-18T09:16:05Z</time>
      </trkpt>
      <trkpt lat="48.76534" lon="7.35427">
        <ele>278.631104</ele>
        <time>2010-09-18T09:16:06Z</time>
      </trkpt>
      <trkpt lat="48.76529" lon="7.35422">
        <ele>278.287354</ele>
        <time>2010-09-18T09:16:07Z</time>
      </trkpt>
      <trkpt lat="48.76522" lon="7.35418">
        <ele>277.826416</ele>
        <time>2010-09-18T09:16:08Z</time>
      </trkpt>
      <trkpt lat="48.76517" lon="7.35413">
        <ele>277.498291</ele>
        <time>2010-09-18T09:16:09Z</time>
      </trkpt>
      <trkpt lat="48.76511" lon="7.35409">
        <ele>277.443604</ele>
        <time>2010-09-18T09:16:10Z</time>
      </trkpt>
      <trkpt lat="48.76505" lon="7.35405">
        <ele>277.342041</ele>
        <time>2010-09-18T09:16:11Z</time>
      </trkpt>
      <trkpt lat="48.765" lon="7.35401">
        <ele>277.482666</ele>
        <time>2010-09-18T09:16:12Z</time>
      </trkpt>
      <trkpt lat="48.76495" lon="7.35397">
        <ele>277.342041</ele>
        <time>2010-09-18T09:16:13Z</time>
      </trkpt>
      <trkpt lat="48.76489" lon="7.35393">
        <ele>277.302979</ele>
        <time>2010-09-18T09:16:14Z</time>
      </trkpt>
      <trkpt lat="48.76484" lon="7.35389">
        <ele>277.521729</ele>
        <time>2010-09-18T09:16:15Z</time>
      </trkpt>
      <trkpt lat="48.76479" lon="7.35385">
        <ele>277.482666</ele>
        <time>2010-09-18T09:16:16Z</time>
      </trkpt>
      <trkpt lat="48.76474" lon="7.35381">
        <ele>277.013916</ele>
        <time>2010-09-18T09:16:17Z</time>
      </trkpt>
      <trkpt lat="48.76469" lon="7.35376">
        <ele>276.662354</ele>
        <time>2010-09-18T09:16:18Z</time>
      </trkpt>
      <trkpt lat="48.76464" lon="7.35371">
        <ele>275.693604</ele>
        <time>2010-09-18T09:16:19Z</time>
      </trkpt>
      <trkpt lat="48.76459" lon="7.35366">
        <ele>275.287354</ele>
        <time>2010-09-18T09:16:20Z</time>
      </trkpt>
      <trkpt lat="48.76454" lon="7.35361">
        <ele>274.974854</ele>
        <time>2010-09-18T09:16:21Z</time>
      </trkpt>
      <trkpt lat="48.7645" lon="7.35356">
        <ele>274.935791</ele>
        <time>2010-09-18T09:16:22Z</time>
      </trkpt>
      <trkpt lat="48.76445" lon="7.3535">
        <ele>274.631104</ele>
        <time>2010-09-18T09:16:23Z</time>
      </trkpt>
      <trkpt lat="48.76441" lon="7.35343">
        <ele>274.310791</ele>
        <time>2010-09-18T09:16:24Z</time>
      </trkpt>
      <trkpt lat="48.76437" lon="7.35338">
        <ele>274.224854</ele>
        <time>2010-09-18T09:16:25Z</time>
      </trkpt>
      <trkpt lat="48.76432" lon="7.35332">
        <ele>274.201416</ele>
        <time>2010-09-18T09:16:26Z</time>
      </trkpt>
      <trkpt lat="48.76428" lon="7.35327">
        <ele>274.092041</ele>
        <time>2010-09-18T09:16:27Z</time>
      </trkpt>
      <trkpt lat="48.76423" lon="7.35321">
        <ele>273.748291</ele>
        <time>2010-09-18T09:16:28Z</time>
      </trkpt>
      <trkpt lat="48.76419" lon="7.35315">
        <ele>273.654541</ele>
        <time>2010-09-18T09:16:29Z</time>
      </trkpt>
      <trkpt lat="48.76414" lon="7.35311">
        <ele>273.427979</ele>
        <time>2010-09-18T09:16:30Z</time>
      </trkpt>
      <trkpt lat="48.76409" lon="7.35306">
        <ele>273.388916</ele>
        <time>2010-09-18T09:16:31Z</time>
      </trkpt>
      <trkpt lat="48.76403" lon="7.35303">
        <ele>273.115479</ele>
        <time>2010-09-18T09:16:32Z</time>
      </trkpt>
      <trkpt lat="48.76399" lon="7.35299">
        <ele>272.771729</ele>
        <time>2010-09-18T09:16:33Z</time>
      </trkpt>
      <trkpt lat="48.76393" lon="7.35297">
        <ele>272.459229</ele>
        <time>2010-09-18T09:16:34Z</time>
      </trkpt>
      <trkpt lat="48.76388" lon="7.35295">
        <ele>272.177979</ele>
        <time>2010-09-18T09:16:35Z</time>
      </trkpt>
      <trkpt lat="48.76382" lon="7.35294">
        <ele>271.724854</ele>
        <time>2010-09-18T09:16:36Z</time>
      </trkpt>
      <trkpt lat="48.76376" lon="7.35294">
        <ele>271.318604</ele>
        <time>2010-09-18T09:16:37Z</time>
      </trkpt>
      <trkpt lat="48.7637" lon="7.35294">
        <ele>270.740479</ele>
        <time>2010-09-18T09:16:38Z</time>
      </trkpt>
      <trkpt lat="48.76363" lon="7.35294">
        <ele>269.795166</ele>
        <time>2010-09-18T09:16:39Z</time>
      </trkpt>
      <trkpt lat="48.76355" lon="7.35295">
        <ele>269.240479</ele>
        <time>2010-09-18T09:16:40Z</time>
      </trkpt>
      <trkpt lat="48.76349" lon="7.35296">
        <ele>268.638916</ele>
        <time>2010-09-18T09:16:41Z</time>
      </trkpt>
      <trkpt lat="48.76342" lon="7.35298">
        <ele>268.342041</ele>
        <time>2010-09-18T09:16:42Z</time>
      </trkpt>
      <trkpt lat="48.76334" lon="7.35299">
        <ele>267.849854</ele>
        <time>2010-09-18T09:16:43Z</time>
      </trkpt>
      <trkpt lat="48.76328" lon="7.35299">
        <ele>267.217041</ele>
        <time>2010-09-18T09:16:44Z</time>
      </trkpt>
      <trkpt lat="48.7632" lon="7.353">
        <ele>266.701416</ele>
        <time>2010-09-18T09:16:45Z</time>
      </trkpt>
      <trkpt lat="48.76313" lon="7.35301">
        <ele>266.545166</ele>
        <time>2010-09-18T09:16:46Z</time>
      </trkpt>
      <trkpt lat="48.76306" lon="7.35301">
        <ele>266.185791</ele>
        <time>2010-09-18T09:16:47Z</time>
      </trkpt>
      <trkpt lat="48.76299" lon="7.35301">
        <ele>266.006104</ele>
        <time>2010-09-18T09:16:48Z</time>
      </trkpt>
      <trkpt lat="48.76291" lon="7.35301">
        <ele>265.818604</ele>
        <time>2010-09-18T09:16:49Z</time>
      </trkpt>
      <trkpt lat="48.76283" lon="7.35301">
        <ele>265.646729</ele>
        <time>2010-09-18T09:16:50Z</time>
      </trkpt>
      <trkpt lat="48.76276" lon="7.35301">
        <ele>265.545166</ele>
        <time>2010-09-18T09:16:51Z</time>
      </trkpt>
      <trkpt lat="48.76268" lon="7.35301">
        <ele>265.310791</ele>
        <time>2010-09-18T09:16:52Z</time>
      </trkpt>
      <trkpt lat="48.7626" lon="7.35299">
        <ele>264.904541</ele>
        <time>2010-09-18T09:16:53Z</time>
      </trkpt>
      <trkpt lat="48.76252" lon="7.35297">
        <ele>264.490479</ele>
        <time>2010-09-18T09:16:54Z</time>
      </trkpt>
      <trkpt lat="48.76244" lon="7.35295">
        <ele>264.092041</ele>
        <time>2010-09-18T09:16:55Z</time>
      </trkpt>
      <trkpt lat="48.76235" lon="7.35293">
        <ele>263.732666</ele>
        <time>2010-09-18T09:16:56Z</time>
      </trkpt>
      <trkpt lat="48.76227" lon="7.35289">
        <ele>263.154541</ele>
        <time>2010-09-18T09:16:57Z</time>
      </trkpt>
      <trkpt lat="48.76218" lon="7.35286">
        <ele>262.677979</ele>
        <time>2010-09-18T09:16:58Z</time>
      </trkpt>
      <trkpt lat="48.7621" lon="7.35283">
        <ele>261.904541</ele>
        <time>2010-09-18T09:16:59Z</time>
      </trkpt>
      <trkpt lat="48.76201" lon="7.3528">
        <ele>261.420166</ele>
        <time>2010-09-18T09:17:00Z</time>
      </trkpt>
      <trkpt lat="48.76193" lon="7.35278">
        <ele>260.849854</ele>
        <time>2010-09-18T09:17:01Z</time>
      </trkpt>
      <trkpt lat="48.76183" lon="7.35276">
        <ele>260.420166</ele>
        <time>2010-09-18T09:17:02Z</time>
      </trkpt>
      <trkpt lat="48.76174" lon="7.35273">
        <ele>260.006104</ele>
        <time>2010-09-18T09:17:03Z</time>
      </trkpt>
      <trkpt lat="48.76165" lon="7.3527">
        <ele>259.092041</ele>
        <time>2010-09-18T09:17:04Z</time>
      </trkpt>
      <trkpt lat="48.76156" lon="7.35265">
        <ele>258.388916</ele>
        <time>2010-09-18T09:17:05Z</time>
      </trkpt>
      <trkpt lat="48.76146" lon="7.3526">
        <ele>257.724854</ele>
        <time>2010-09-18T09:17:06Z</time>
      </trkpt>
      <trkpt lat="48.76138" lon="7.35253">
        <ele>257.107666</ele>
        <time>2010-09-18T09:17:07Z</time>
      </trkpt>
      <trkpt lat="48.76129" lon="7.35244">
        <ele>256.248291</ele>
        <time>2010-09-18T09:17:08Z</time>
      </trkpt>
      <trkpt lat="48.76122" lon="7.35234">
        <ele>255.366333</ele>
        <time>2010-09-18T09:17:09Z</time>
      </trkpt>
      <trkpt lat="48.76113" lon="7.35222">
        <ele>254.229614</ele>
        <time>2010-09-18T09:17:10Z</time>
      </trkpt>
      <trkpt lat="48.76106" lon="7.3521">
        <ele>253.229614</ele>
        <time>2010-09-18T09:17:11Z</time>
      </trkpt>
      <trkpt lat="48.76098" lon="7.35197">
        <ele>252.128052</ele>
        <time>2010-09-18T09:17:12Z</time>
      </trkpt>
      <trkpt lat="48.7609" lon="7.35185">
        <ele>251.378052</ele>
        <time>2010-09-18T09:17:13Z</time>
      </trkpt>
      <trkpt lat="48.7608" lon="7.35173">
        <ele>250.155396</ele>
        <time>2010-09-18T09:17:14Z</time>
      </trkpt>
      <trkpt lat="48.76071" lon="7.3516">
        <ele>249.069458</ele>
        <time>2010-09-18T09:17:15Z</time>
      </trkpt>
      <trkpt lat="48.76063" lon="7.35149">
        <ele>248.296021</ele>
        <time>2010-09-18T09:17:16Z</time>
      </trkpt>
      <trkpt lat="48.76054" lon="7.35138">
        <ele>247.428833</ele>
        <time>2010-09-18T09:17:17Z</time>
      </trkpt>
      <trkpt lat="48.76046" lon="7.35126">
        <ele>246.592896</ele>
        <time>2010-09-18T09:17:18Z</time>
      </trkpt>
      <trkpt lat="48.76035" lon="7.35115">
        <ele>245.553833</ele>
        <time>2010-09-18T09:17:19Z</time>
      </trkpt>
      <trkpt lat="48.76027" lon="7.35102">
        <ele>244.780396</ele>
        <time>2010-09-18T09:17:20Z</time>
      </trkpt>
      <trkpt lat="48.76017" lon="7.35089">
        <ele>243.588989</ele>
        <time>2010-09-18T09:17:21Z</time>
      </trkpt>
      <trkpt lat="48.76008" lon="7.35076">
        <ele>242.647583</ele>
        <time>2010-09-18T09:17:22Z</time>
      </trkpt>
      <trkpt lat="48.76001" lon="7.35062">
        <ele>241.764771</ele>
        <time>2010-09-18T09:17:23Z</time>
      </trkpt>
      <trkpt lat="48.75995" lon="7.35048">
        <ele>240.936646</ele>
        <time>2010-09-18T09:17:24Z</time>
      </trkpt>
      <trkpt lat="48.75989" lon="7.35034">
        <ele>240.331177</ele>
        <time>2010-09-18T09:17:25Z</time>
      </trkpt>
      <trkpt lat="48.75986" lon="7.35021">
        <ele>239.635864</ele>
        <time>2010-09-18T09:17:26Z</time>
      </trkpt>
      <trkpt lat="48.75984" lon="7.35009">
        <ele>238.924927</ele>
        <time>2010-09-18T09:17:27Z</time>
      </trkpt>
      <trkpt lat="48.75982" lon="7.34996">
        <ele>237.315552</ele>
        <time>2010-09-18T09:17:28Z</time>
      </trkpt>
      <trkpt lat="48.75983" lon="7.34983">
        <ele>235.655396</ele>
        <time>2010-09-18T09:17:29Z</time>
      </trkpt>
      <trkpt lat="48.75988" lon="7.3497">
        <ele>234.565552</ele>
        <time>2010-09-18T09:17:30Z</time>
      </trkpt>
      <trkpt lat="48.75995" lon="7.34958">
        <ele>233.928833</ele>
        <time>2010-09-18T09:17:31Z</time>
      </trkpt>
      <trkpt lat="48.76001" lon="7.34947">
        <ele>232.940552</ele>
        <time>2010-09-18T09:17:32Z</time>
      </trkpt>
      <trkpt lat="48.76008" lon="7.34936">
        <ele>231.999146</ele>
        <time>2010-09-18T09:17:33Z</time>
      </trkpt>
      <trkpt lat="48.76014" lon="7.34925">
        <ele>231.514771</ele>
        <time>2010-09-18T09:17:34Z</time>
      </trkpt>
      <trkpt lat="48.76021" lon="7.34914">
        <ele>230.792114</ele>
        <time>2010-09-18T09:17:35Z</time>
      </trkpt>
      <trkpt lat="48.76028" lon="7.34903">
        <ele>230.588989</ele>
        <time>2010-09-18T09:17:36Z</time>
      </trkpt>
      <trkpt lat="48.76033" lon="7.34893">
        <ele>229.952271</ele>
        <time>2010-09-18T09:17:37Z</time>
      </trkpt>
      <trkpt lat="48.76037" lon="7.34883">
        <ele>228.905396</ele>
        <time>2010-09-18T09:17:38Z</time>
      </trkpt>
      <trkpt lat="48.76039" lon="7.34872">
        <ele>228.378052</ele>
        <time>2010-09-18T09:17:39Z</time>
      </trkpt>
      <trkpt lat="48.76038" lon="7.3486">
        <ele>227.838989</ele>
        <time>2010-09-18T09:17:40Z</time>
      </trkpt>
      <trkpt lat="48.76035" lon="7.34849">
        <ele>227.741333</ele>
        <time>2010-09-18T09:17:41Z</time>
      </trkpt>
      <trkpt lat="48.76029" lon="7.3484">
        <ele>227.393677</ele>
        <time>2010-09-18T09:17:42Z</time>
      </trkpt>
      <trkpt lat="48.76021" lon="7.34835">
        <ele>227.862427</ele>
        <time>2010-09-18T09:17:43Z</time>
      </trkpt>
      <trkpt lat="48.76013" lon="7.34832">
        <ele>228.229614</ele>
        <time>2010-09-18T09:17:44Z</time>
      </trkpt>
      <trkpt lat="48.76005" lon="7.34833">
        <ele>228.401489</ele>
        <time>2010-09-18T09:17:45Z</time>
      </trkpt>
      <trkpt lat="48.75999" lon="7.34837">
        <ele>228.764771</ele>
        <time>2010-09-18T09:17:46Z</time>
      </trkpt>
      <trkpt lat="48.75993" lon="7.34843">
        <ele>229.167114</ele>
        <time>2010-09-18T09:17:47Z</time>
      </trkpt>
      <trkpt lat="48.75985" lon="7.34847">
        <ele>229.921021</ele>
        <time>2010-09-18T09:17:48Z</time>
      </trkpt>
      <trkpt lat="48.75977" lon="7.34852">
        <ele>230.671021</ele>
        <time>2010-09-18T09:17:49Z</time>
      </trkpt>
      <trkpt lat="48.75968" lon="7.34857">
        <ele>231.475708</ele>
        <time>2010-09-18T09:17:50Z</time>
      </trkpt>
      <trkpt lat="48.7596" lon="7.34864">
        <ele>232.440552</ele>
        <time>2010-09-18T09:17:51Z</time>
      </trkpt>
      <trkpt lat="48.75952" lon="7.34872">
        <ele>233.596802</ele>
        <time>2010-09-18T09:17:52Z</time>
      </trkpt>
      <trkpt lat="48.75944" lon="7.3488">
        <ele>234.725708</ele>
        <time>2010-09-18T09:17:53Z</time>
      </trkpt>
      <trkpt lat="48.75937" lon="7.34888">
        <ele>234.514771</ele>
        <time>2010-09-18T09:17:54Z</time>
      </trkpt>
      <trkpt lat="48.75929" lon="7.34896">
        <ele>236.022583</ele>
        <time>2010-09-18T09:17:55Z</time>
      </trkpt>
      <trkpt lat="48.75924" lon="7.34904">
        <ele>234.917114</ele>
        <time>2010-09-18T09:17:56Z</time>
      </trkpt>
      <trkpt lat="48.75917" lon="7.34912">
        <ele>234.690552</ele>
        <time>2010-09-18T09:17:57Z</time>
      </trkpt>
      <trkpt lat="48.7591" lon="7.3492">
        <ele>235.065552</ele>
        <time>2010-09-18T09:17:58Z</time>
      </trkpt>
      <trkpt lat="48.75905" lon="7.34929">
        <ele>233.780396</ele>
        <time>2010-09-18T09:17:59Z</time>
      </trkpt>
      <trkpt lat="48.7591" lon="7.34949">
        <ele>231.362427</ele>
        <time>2010-09-18T09:18:00Z</time>
      </trkpt>
      <trkpt lat="48.75906" lon="7.3496">
        <ele>231.338989</ele>
        <time>2010-09-18T09:18:01Z</time>
      </trkpt>
      <trkpt lat="48.75902" lon="7.34971">
        <ele>231.495239</ele>
        <time>2010-09-18T09:18:02Z</time>
      </trkpt>
      <trkpt lat="48.75898" lon="7.34981">
        <ele>231.323364</ele>
        <time>2010-09-18T09:18:03Z</time>
      </trkpt>
      <trkpt lat="48.75895" lon="7.34991">
        <ele>231.421021</ele>
        <time>2010-09-18T09:18:04Z</time>
      </trkpt>
      <trkpt lat="48.75892" lon="7.35003">
        <ele>231.921021</ele>
        <time>2010-09-18T09:18:05Z</time>
      </trkpt>
      <trkpt lat="48.75887" lon="7.35012">
        <ele>231.905396</ele>
        <time>2010-09-18T09:18:06Z</time>
      </trkpt>
      <trkpt lat="48.75884" lon="7.35022">
        <ele>232.131958</ele>
        <time>2010-09-18T09:18:07Z</time>
      </trkpt>
      <trkpt lat="48.75879" lon="7.35032">
        <ele>232.581177</ele>
        <time>2010-09-18T09:18:08Z</time>
      </trkpt>
      <trkpt lat="48.75874" lon="7.35041">
        <ele>232.932739</ele>
        <time>2010-09-18T09:18:09Z</time>
      </trkpt>
      <trkpt lat="48.75871" lon="7.3505">
        <ele>233.147583</ele>
        <time>2010-09-18T09:18:10Z</time>
      </trkpt>
      <trkpt lat="48.75866" lon="7.35056">
        <ele>233.463989</ele>
        <time>2010-09-18T09:18:11Z</time>
      </trkpt>
      <trkpt lat="48.7586" lon="7.35062">
        <ele>233.846802</ele>
        <time>2010-09-18T09:18:12Z</time>
      </trkpt>
      <trkpt lat="48.75855" lon="7.35066">
        <ele>234.213989</ele>
        <time>2010-09-18T09:18:13Z</time>
      </trkpt>
      <trkpt lat="48.7585" lon="7.35069">
        <ele>234.819458</ele>
        <time>2010-09-18T09:18:14Z</time>
      </trkpt>
      <trkpt lat="48.75844" lon="7.3507">
        <ele>235.413208</ele>
        <time>2010-09-18T09:18:15Z</time>
      </trkpt>
      <trkpt lat="48.75838" lon="7.35071">
        <ele>235.358521</ele>
        <time>2010-09-18T09:18:16Z</time>
      </trkpt>
      <trkpt lat="48.75832" lon="7.35071">
        <ele>235.026489</ele>
        <time>2010-09-18T09:18:17Z</time>
      </trkpt>
      <trkpt lat="48.75826" lon="7.35072">
        <ele>233.889771</ele>
        <time>2010-09-18T09:18:18Z</time>
      </trkpt>
      <trkpt lat="48.7582" lon="7.35072">
        <ele>233.924927</ele>
        <time>2010-09-18T09:18:19Z</time>
      </trkpt>
      <trkpt lat="48.75815" lon="7.35074">
        <ele>233.854614</ele>
        <time>2010-09-18T09:18:20Z</time>
      </trkpt>
      <trkpt lat="48.7581" lon="7.35075">
        <ele>233.940552</ele>
        <time>2010-09-18T09:18:21Z</time>
      </trkpt>
      <trkpt lat="48.75805" lon="7.35076">
        <ele>234.194458</ele>
        <time>2010-09-18T09:18:22Z</time>
      </trkpt>
      <trkpt lat="48.758" lon="7.35078">
        <ele>234.409302</ele>
        <time>2010-09-18T09:18:23Z</time>
      </trkpt>
      <trkpt lat="48.75796" lon="7.3508">
        <ele>234.428833</ele>
        <time>2010-09-18T09:18:24Z</time>
      </trkpt>
      <trkpt lat="48.75792" lon="7.35083">
        <ele>234.635864</ele>
        <time>2010-09-18T09:18:25Z</time>
      </trkpt>
      <trkpt lat="48.75784" lon="7.35087">
        <ele>234.940552</ele>
        <time>2010-09-18T09:18:27Z</time>
      </trkpt>
      <trkpt lat="48.75776" lon="7.35092">
        <ele>234.788208</ele>
        <time>2010-09-18T09:18:29Z</time>
      </trkpt>
      <trkpt lat="48.75771" lon="7.35095">
        <ele>234.393677</ele>
        <time>2010-09-18T09:18:30Z</time>
      </trkpt>
      <trkpt lat="48.75763" lon="7.351">
        <ele>233.885864</ele>
        <time>2010-09-18T09:18:32Z</time>
      </trkpt>
      <trkpt lat="48.75755" lon="7.35106">
        <ele>233.784302</ele>
        <time>2010-09-18T09:18:34Z</time>
      </trkpt>
      <trkpt lat="48.75748" lon="7.35112">
        <ele>234.577271</ele>
        <time>2010-09-18T09:18:36Z</time>
      </trkpt>
      <trkpt lat="48.75742" lon="7.35118">
        <ele>234.608521</ele>
        <time>2010-09-18T09:18:38Z</time>
      </trkpt>
      <trkpt lat="48.75735" lon="7.35124">
        <ele>234.979614</ele>
        <time>2010-09-18T09:18:40Z</time>
      </trkpt>
      <trkpt lat="48.75728" lon="7.35129">
        <ele>235.284302</ele>
        <time>2010-09-18T09:18:42Z</time>
      </trkpt>
      <trkpt lat="48.75722" lon="7.35134">
        <ele>235.202271</ele>
        <time>2010-09-18T09:18:44Z</time>
      </trkpt>
      <trkpt lat="48.75715" lon="7.3514">
        <ele>235.147583</ele>
        <time>2010-09-18T09:18:46Z</time>
      </trkpt>
      <trkpt lat="48.75706" lon="7.35144">
        <ele>235.077271</ele>
        <time>2010-09-18T09:18:48Z</time>
      </trkpt>
      <trkpt lat="48.75698" lon="7.35145">
        <ele>235.604614</ele>
        <time>2010-09-18T09:18:50Z</time>
      </trkpt>
      <trkpt lat="48.75689" lon="7.35146">
        <ele>235.717896</ele>
        <time>2010-09-18T09:18:52Z</time>
      </trkpt>
      <trkpt lat="48.75681" lon="7.35145">
        <ele>235.979614</ele>
        <time>2010-09-18T09:18:54Z</time>
      </trkpt>
      <trkpt lat="48.75673" lon="7.35144">
        <ele>235.995239</ele>
        <time>2010-09-18T09:18:56Z</time>
      </trkpt>
      <trkpt lat="48.75666" lon="7.35143">
        <ele>235.717896</ele>
        <time>2010-09-18T09:18:58Z</time>
      </trkpt>
      <trkpt lat="48.75658" lon="7.35142">
        <ele>235.546021</ele>
        <time>2010-09-18T09:19:00Z</time>
      </trkpt>
      <trkpt lat="48.7565" lon="7.35141">
        <ele>235.401489</ele>
        <time>2010-09-18T09:19:02Z</time>
      </trkpt>
      <trkpt lat="48.75643" lon="7.35141">
        <ele>235.354614</ele>
        <time>2010-09-18T09:19:04Z</time>
      </trkpt>
      <trkpt lat="48.75639" lon="7.35141">
        <ele>236.479614</ele>
        <time>2010-09-18T09:19:07Z</time>
      </trkpt>
      <trkpt lat="48.75635" lon="7.35151">
        <ele>236.077271</ele>
        <time>2010-09-18T09:19:09Z</time>
      </trkpt>
      <trkpt lat="48.75634" lon="7.35159">
        <ele>235.581177</ele>
        <time>2010-09-18T09:19:10Z</time>
      </trkpt>
      <trkpt lat="48.75633" lon="7.35168">
        <ele>235.198364</ele>
        <time>2010-09-18T09:19:11Z</time>
      </trkpt>
      <trkpt lat="48.7563" lon="7.35176">
        <ele>234.866333</ele>
        <time>2010-09-18T09:19:12Z</time>
      </trkpt>
      <trkpt lat="48.75627" lon="7.35184">
        <ele>234.444458</ele>
        <time>2010-09-18T09:19:13Z</time>
      </trkpt>
      <trkpt lat="48.75623" lon="7.35192">
        <ele>234.081177</ele>
        <time>2010-09-18T09:19:14Z</time>
      </trkpt>
      <trkpt lat="48.75618" lon="7.352">
        <ele>233.842896</ele>
        <time>2010-09-18T09:19:15Z</time>
      </trkpt>
      <trkpt lat="48.75613" lon="7.35206">
        <ele>233.401489</ele>
        <time>2010-09-18T09:19:16Z</time>
      </trkpt>
      <trkpt lat="48.75607" lon="7.35212">
        <ele>233.233521</ele>
        <time>2010-09-18T09:19:17Z</time>
      </trkpt>
      <trkpt lat="48.756" lon="7.35218">
        <ele>233.135864</ele>
        <time>2010-09-18T09:19:18Z</time>
      </trkpt>
      <trkpt lat="48.75592" lon="7.35223">
        <ele>232.713989</ele>
        <time>2010-09-18T09:19:19Z</time>
      </trkpt>
      <trkpt lat="48.75585" lon="7.35227">
        <ele>232.479614</ele>
        <time>2010-09-18T09:19:20Z</time>
      </trkpt>
      <trkpt lat="48.75577" lon="7.35232">
        <ele>232.206177</ele>
        <time>2010-09-18T09:19:21Z</time>
      </trkpt>
      <trkpt lat="48.7557" lon="7.35236">
        <ele>232.229614</ele>
        <time>2010-09-18T09:19:22Z</time>
      </trkpt>
      <trkpt lat="48.75562" lon="7.35239">
        <ele>232.046021</ele>
        <time>2010-09-18T09:19:23Z</time>
      </trkpt>
      <trkpt lat="48.75554" lon="7.35242">
        <ele>231.870239</ele>
        <time>2010-09-18T09:19:24Z</time>
      </trkpt>
      <trkpt lat="48.75547" lon="7.35244">
        <ele>231.928833</ele>
        <time>2010-09-18T09:19:25Z</time>
      </trkpt>
      <trkpt lat="48.7554" lon="7.35246">
        <ele>231.772583</ele>
        <time>2010-09-18T09:19:26Z</time>
      </trkpt>
      <trkpt lat="48.75533" lon="7.35247">
        <ele>231.694458</ele>
        <time>2010-09-18T09:19:27Z</time>
      </trkpt>
      <trkpt lat="48.75526" lon="7.35247">
        <ele>231.393677</ele>
        <time>2010-09-18T09:19:28Z</time>
      </trkpt>
      <trkpt lat="48.7552" lon="7.35248">
        <ele>231.401489</ele>
        <time>2010-09-18T09:19:29Z</time>
      </trkpt>
      <trkpt lat="48.75514" lon="7.3525">
        <ele>231.471802</ele>
        <time>2010-09-18T09:19:30Z</time>
      </trkpt>
      <trkpt lat="48.75508" lon="7.35251">
        <ele>231.745239</ele>
        <time>2010-09-18T09:19:31Z</time>
      </trkpt>
      <trkpt lat="48.75502" lon="7.35253">
        <ele>231.835083</ele>
        <time>2010-09-18T09:19:32Z</time>
      </trkpt>
      <trkpt lat="48.75496" lon="7.35255">
        <ele>231.854614</ele>
        <time>2010-09-18T09:19:33Z</time>
      </trkpt>
      <trkpt lat="48.75489" lon="7.35258">
        <ele>231.917114</ele>
        <time>2010-09-18T09:19:34Z</time>
      </trkpt>
      <trkpt lat="48.75483" lon="7.35261">
        <ele>232.210083</ele>
        <time>2010-09-18T09:19:35Z</time>
      </trkpt>
      <trkpt lat="48.75477" lon="7.35263">
        <ele>232.393677</ele>
        <time>2010-09-18T09:19:36Z</time>
      </trkpt>
      <trkpt lat="48.7547" lon="7.35265">
        <ele>232.815552</ele>
        <time>2010-09-18T09:19:37Z</time>
      </trkpt>
      <trkpt lat="48.75464" lon="7.35267">
        <ele>233.077271</ele>
        <time>2010-09-18T09:19:38Z</time>
      </trkpt>
      <trkpt lat="48.75457" lon="7.3527">
        <ele>233.260864</ele>
        <time>2010-09-18T09:19:39Z</time>
      </trkpt>
      <trkpt lat="48.75451" lon="7.35273">
        <ele>233.706177</ele>
        <time>2010-09-18T09:19:40Z</time>
      </trkpt>
      <trkpt lat="48.75445" lon="7.35275">
        <ele>233.811646</ele>
        <time>2010-09-18T09:19:41Z</time>
      </trkpt>
      <trkpt lat="48.7544" lon="7.35278">
        <ele>233.971802</ele>
        <time>2010-09-18T09:19:42Z</time>
      </trkpt>
      <trkpt lat="48.75434" lon="7.35279">
        <ele>234.163208</ele>
        <time>2010-09-18T09:19:43Z</time>
      </trkpt>
      <trkpt lat="48.75428" lon="7.35281">
        <ele>234.385864</ele>
        <time>2010-09-18T09:19:44Z</time>
      </trkpt>
      <trkpt lat="48.75423" lon="7.35283">
        <ele>234.663208</ele>
        <time>2010-09-18T09:19:45Z</time>
      </trkpt>
      <trkpt lat="48.75417" lon="7.35285">
        <ele>235.053833</ele>
        <time>2010-09-18T09:19:46Z</time>
      </trkpt>
      <trkpt lat="48.75412" lon="7.35288">
        <ele>235.483521</ele>
        <time>2010-09-18T09:19:47Z</time>
      </trkpt>
      <trkpt lat="48.75406" lon="7.3529">
        <ele>235.905396</ele>
        <time>2010-09-18T09:19:48Z</time>
      </trkpt>
      <trkpt lat="48.75401" lon="7.35292">
        <ele>236.253052</ele>
        <time>2010-09-18T09:19:49Z</time>
      </trkpt>
      <trkpt lat="48.75396" lon="7.35294">
        <ele>236.713989</ele>
        <time>2010-09-18T09:19:50Z</time>
      </trkpt>
      <trkpt lat="48.75391" lon="7.35295">
        <ele>237.085083</ele>
        <time>2010-09-18T09:19:51Z</time>
      </trkpt>
      <trkpt lat="48.75386" lon="7.35297">
        <ele>237.311646</ele>
        <time>2010-09-18T09:19:52Z</time>
      </trkpt>
      <trkpt lat="48.75381" lon="7.35298">
        <ele>237.753052</ele>
        <time>2010-09-18T09:19:53Z</time>
      </trkpt>
      <trkpt lat="48.75377" lon="7.35298">
        <ele>238.053833</ele>
        <time>2010-09-18T09:19:54Z</time>
      </trkpt>
      <trkpt lat="48.75369" lon="7.353">
        <ele>238.120239</ele>
        <time>2010-09-18T09:19:56Z</time>
      </trkpt>
      <trkpt lat="48.75361" lon="7.35301">
        <ele>238.506958</ele>
        <time>2010-09-18T09:19:58Z</time>
      </trkpt>
      <trkpt lat="48.75353" lon="7.35302">
        <ele>239.034302</ele>
        <time>2010-09-18T09:20:00Z</time>
      </trkpt>
      <trkpt lat="48.75346" lon="7.35302">
        <ele>239.604614</ele>
        <time>2010-09-18T09:20:02Z</time>
      </trkpt>
      <trkpt lat="48.75339" lon="7.35303">
        <ele>239.792114</ele>
        <time>2010-09-18T09:20:04Z</time>
      </trkpt>
      <trkpt lat="48.75332" lon="7.35304">
        <ele>240.210083</ele>
        <time>2010-09-18T09:20:06Z</time>
      </trkpt>
      <trkpt lat="48.75325" lon="7.35305">
        <ele>240.417114</ele>
        <time>2010-09-18T09:20:08Z</time>
      </trkpt>
      <trkpt lat="48.75319" lon="7.35307">
        <ele>240.862427</ele>
        <time>2010-09-18T09:20:10Z</time>
      </trkpt>
      <trkpt lat="48.75312" lon="7.35307">
        <ele>241.061646</ele>
        <time>2010-09-18T09:20:12Z</time>
      </trkpt>
      <trkpt lat="48.75306" lon="7.35309">
        <ele>241.549927</ele>
        <time>2010-09-18T09:20:14Z</time>
      </trkpt>
      <trkpt lat="48.75299" lon="7.35309">
        <ele>241.600708</ele>
        <time>2010-09-18T09:20:16Z</time>
      </trkpt>
      <trkpt lat="48.75291" lon="7.35307">
        <ele>241.393677</ele>
        <time>2010-09-18T09:20:18Z</time>
      </trkpt>
      <trkpt lat="48.75283" lon="7.35306">
        <ele>240.979614</ele>
        <time>2010-09-18T09:20:20Z</time>
      </trkpt>
      <trkpt lat="48.75274" lon="7.35304">
        <ele>240.421021</ele>
        <time>2010-09-18T09:20:22Z</time>
      </trkpt>
      <trkpt lat="48.75269" lon="7.35303">
        <ele>240.186646</ele>
        <time>2010-09-18T09:20:23Z</time>
      </trkpt>
      <trkpt lat="48.75264" lon="7.35302">
        <ele>240.034302</ele>
        <time>2010-09-18T09:20:24Z</time>
      </trkpt>
      <trkpt lat="48.75259" lon="7.35302">
        <ele>240.003052</ele>
        <time>2010-09-18T09:20:25Z</time>
      </trkpt>
      <trkpt lat="48.75255" lon="7.35301">
        <ele>239.901489</ele>
        <time>2010-09-18T09:20:26Z</time>
      </trkpt>
      <trkpt lat="48.7525" lon="7.353">
        <ele>239.671021</ele>
        <time>2010-09-18T09:20:27Z</time>
      </trkpt>
      <trkpt lat="48.75245" lon="7.353">
        <ele>239.663208</ele>
        <time>2010-09-18T09:20:28Z</time>
      </trkpt>
      <trkpt lat="48.75239" lon="7.353">
        <ele>239.499146</ele>
        <time>2010-09-18T09:20:29Z</time>
      </trkpt>
      <trkpt lat="48.75233" lon="7.35299">
        <ele>239.163208</ele>
        <time>2010-09-18T09:20:30Z</time>
      </trkpt>
      <trkpt lat="48.75227" lon="7.35299">
        <ele>238.479614</ele>
        <time>2010-09-18T09:20:31Z</time>
      </trkpt>
      <trkpt lat="48.7522" lon="7.35298">
        <ele>238.034302</ele>
        <time>2010-09-18T09:20:32Z</time>
      </trkpt>
      <trkpt lat="48.75213" lon="7.35297">
        <ele>237.639771</ele>
        <time>2010-09-18T09:20:33Z</time>
      </trkpt>
      <trkpt lat="48.75206" lon="7.35297">
        <ele>237.069458</ele>
        <time>2010-09-18T09:20:34Z</time>
      </trkpt>
      <trkpt lat="48.75198" lon="7.35297">
        <ele>236.299927</ele>
        <time>2010-09-18T09:20:35Z</time>
      </trkpt>
      <trkpt lat="48.7519" lon="7.35297">
        <ele>235.635864</ele>
        <time>2010-09-18T09:20:36Z</time>
      </trkpt>
      <trkpt lat="48.75182" lon="7.35297">
        <ele>235.081177</ele>
        <time>2010-09-18T09:20:37Z</time>
      </trkpt>
      <trkpt lat="48.75174" lon="7.35297">
        <ele>234.534302</ele>
        <time>2010-09-18T09:20:38Z</time>
      </trkpt>
      <trkpt lat="48.75165" lon="7.35296">
        <ele>234.003052</ele>
        <time>2010-09-18T09:20:39Z</time>
      </trkpt>
      <trkpt lat="48.75156" lon="7.35296">
        <ele>233.471802</ele>
        <time>2010-09-18T09:20:40Z</time>
      </trkpt>
      <trkpt lat="48.75147" lon="7.35295">
        <ele>232.971802</ele>
        <time>2010-09-18T09:20:41Z</time>
      </trkpt>
      <trkpt lat="48.75138" lon="7.35294">
        <ele>232.280396</ele>
        <time>2010-09-18T09:20:42Z</time>
      </trkpt>
      <trkpt lat="48.75128" lon="7.35293">
        <ele>231.643677</ele>
        <time>2010-09-18T09:20:43Z</time>
      </trkpt>
      <trkpt lat="48.75119" lon="7.35292">
        <ele>231.319458</ele>
        <time>2010-09-18T09:20:44Z</time>
      </trkpt>
      <trkpt lat="48.75109" lon="7.35291">
        <ele>230.991333</ele>
        <time>2010-09-18T09:20:45Z</time>
      </trkpt>
      <trkpt lat="48.751" lon="7.3529">
        <ele>230.557739</ele>
        <time>2010-09-18T09:20:46Z</time>
      </trkpt>
      <trkpt lat="48.75091" lon="7.35289">
        <ele>230.049927</ele>
        <time>2010-09-18T09:20:47Z</time>
      </trkpt>
      <trkpt lat="48.75082" lon="7.35289">
        <ele>229.721802</ele>
        <time>2010-09-18T09:20:48Z</time>
      </trkpt>
      <trkpt lat="48.75073" lon="7.35289">
        <ele>229.643677</ele>
        <time>2010-09-18T09:20:49Z</time>
      </trkpt>
      <trkpt lat="48.75063" lon="7.3529">
        <ele>229.463989</ele>
        <time>2010-09-18T09:20:50Z</time>
      </trkpt>
      <trkpt lat="48.75054" lon="7.35292">
        <ele>229.116333</ele>
        <time>2010-09-18T09:20:51Z</time>
      </trkpt>
      <trkpt lat="48.75046" lon="7.35295">
        <ele>228.549927</ele>
        <time>2010-09-18T09:20:52Z</time>
      </trkpt>
      <trkpt lat="48.75037" lon="7.35297">
        <ele>227.987427</ele>
        <time>2010-09-18T09:20:53Z</time>
      </trkpt>
      <trkpt lat="48.75029" lon="7.353">
        <ele>227.577271</ele>
        <time>2010-09-18T09:20:54Z</time>
      </trkpt>
      <trkpt lat="48.75021" lon="7.35303">
        <ele>227.506958</ele>
        <time>2010-09-18T09:20:55Z</time>
      </trkpt>
      <trkpt lat="48.75013" lon="7.35307">
        <ele>227.280396</ele>
        <time>2010-09-18T09:20:56Z</time>
      </trkpt>
      <trkpt lat="48.75004" lon="7.35311">
        <ele>226.921021</ele>
        <time>2010-09-18T09:20:57Z</time>
      </trkpt>
      <trkpt lat="48.74996" lon="7.35315">
        <ele>226.596802</ele>
        <time>2010-09-18T09:20:58Z</time>
      </trkpt>
      <trkpt lat="48.74988" lon="7.35318">
        <ele>226.272583</ele>
        <time>2010-09-18T09:20:59Z</time>
      </trkpt>
      <trkpt lat="48.7498" lon="7.35322">
        <ele>226.096802</ele>
        <time>2010-09-18T09:21:00Z</time>
      </trkpt>
      <trkpt lat="48.74972" lon="7.35325">
        <ele>226.038208</ele>
        <time>2010-09-18T09:21:01Z</time>
      </trkpt>
      <trkpt lat="48.74965" lon="7.35329">
        <ele>225.901489</ele>
        <time>2010-09-18T09:21:02Z</time>
      </trkpt>
      <trkpt lat="48.74957" lon="7.35332">
        <ele>226.026489</ele>
        <time>2010-09-18T09:21:03Z</time>
      </trkpt>
      <trkpt lat="48.7495" lon="7.35336">
        <ele>225.862427</ele>
        <time>2010-09-18T09:21:04Z</time>
      </trkpt>
      <trkpt lat="48.74943" lon="7.3534">
        <ele>225.838989</ele>
        <time>2010-09-18T09:21:05Z</time>
      </trkpt>
      <trkpt lat="48.74937" lon="7.35345">
        <ele>225.784302</ele>
        <time>2010-09-18T09:21:06Z</time>
      </trkpt>
      <trkpt lat="48.7493" lon="7.3535">
        <ele>225.678833</ele>
        <time>2010-09-18T09:21:07Z</time>
      </trkpt>
      <trkpt lat="48.74924" lon="7.35355">
        <ele>225.456177</ele>
        <time>2010-09-18T09:21:08Z</time>
      </trkpt>
      <trkpt lat="48.74918" lon="7.3536">
        <ele>225.057739</ele>
        <time>2010-09-18T09:21:09Z</time>
      </trkpt>
      <trkpt lat="48.74912" lon="7.35365">
        <ele>224.616333</ele>
        <time>2010-09-18T09:21:10Z</time>
      </trkpt>
      <trkpt lat="48.74905" lon="7.3537">
        <ele>224.307739</ele>
        <time>2010-09-18T09:21:11Z</time>
      </trkpt>
      <trkpt lat="48.74899" lon="7.35373">
        <ele>224.268677</ele>
        <time>2010-09-18T09:21:12Z</time>
      </trkpt>
      <trkpt lat="48.74893" lon="7.35378">
        <ele>224.069458</ele>
        <time>2010-09-18T09:21:13Z</time>
      </trkpt>
      <trkpt lat="48.74886" lon="7.35383">
        <ele>223.917114</ele>
        <time>2010-09-18T09:21:14Z</time>
      </trkpt>
      <trkpt lat="48.74881" lon="7.35388">
        <ele>223.737427</ele>
        <time>2010-09-18T09:21:15Z</time>
      </trkpt>
      <trkpt lat="48.74875" lon="7.35394">
        <ele>223.756958</ele>
        <time>2010-09-18T09:21:16Z</time>
      </trkpt>
      <trkpt lat="48.74869" lon="7.35401">
        <ele>223.889771</ele>
        <time>2010-09-18T09:21:17Z</time>
      </trkpt>
      <trkpt lat="48.74863" lon="7.35407">
        <ele>223.674927</ele>
        <time>2010-09-18T09:21:18Z</time>
      </trkpt>
      <trkpt lat="48.74858" lon="7.35414">
        <ele>223.573364</ele>
        <time>2010-09-18T09:21:19Z</time>
      </trkpt>
      <trkpt lat="48.74852" lon="7.3542">
        <ele>223.241333</ele>
        <time>2010-09-18T09:21:20Z</time>
      </trkpt>
      <trkpt lat="48.74846" lon="7.35427">
        <ele>222.963989</ele>
        <time>2010-09-18T09:21:21Z</time>
      </trkpt>
      <trkpt lat="48.74839" lon="7.35434">
        <ele>222.596802</ele>
        <time>2010-09-18T09:21:22Z</time>
      </trkpt>
      <trkpt lat="48.74834" lon="7.35441">
        <ele>222.440552</ele>
        <time>2010-09-18T09:21:23Z</time>
      </trkpt>
      <trkpt lat="48.74828" lon="7.3545">
        <ele>222.167114</ele>
        <time>2010-09-18T09:21:24Z</time>
      </trkpt>
      <trkpt lat="48.74823" lon="7.35458">
        <ele>221.881958</ele>
        <time>2010-09-18T09:21:25Z</time>
      </trkpt>
      <trkpt lat="48.74818" lon="7.35465">
        <ele>221.553833</ele>
        <time>2010-09-18T09:21:26Z</time>
      </trkpt>
      <trkpt lat="48.74812" lon="7.35472">
        <ele>221.151489</ele>
        <time>2010-09-18T09:21:27Z</time>
      </trkpt>
      <trkpt lat="48.74806" lon="7.35479">
        <ele>220.561646</ele>
        <time>2010-09-18T09:21:28Z</time>
      </trkpt>
      <trkpt lat="48.748" lon="7.35487">
        <ele>220.049927</ele>
        <time>2010-09-18T09:21:29Z</time>
      </trkpt>
      <trkpt lat="48.74794" lon="7.35494">
        <ele>219.639771</ele>
        <time>2010-09-18T09:21:30Z</time>
      </trkpt>
      <trkpt lat="48.74789" lon="7.35501">
        <ele>219.096802</ele>
        <time>2010-09-18T09:21:31Z</time>
      </trkpt>
      <trkpt lat="48.74783" lon="7.35507">
        <ele>218.753052</ele>
        <time>2010-09-18T09:21:32Z</time>
      </trkpt>
      <trkpt lat="48.74778" lon="7.35512">
        <ele>218.256958</ele>
        <time>2010-09-18T09:21:33Z</time>
      </trkpt>
      <trkpt lat="48.74773" lon="7.35517">
        <ele>217.823364</ele>
        <time>2010-09-18T09:21:34Z</time>
      </trkpt>
      <trkpt lat="48.74768" lon="7.35523">
        <ele>217.327271</ele>
        <time>2010-09-18T09:21:35Z</time>
      </trkpt>
      <trkpt lat="48.74762" lon="7.35529">
        <ele>216.799927</ele>
        <time>2010-09-18T09:21:36Z</time>
      </trkpt>
      <trkpt lat="48.74756" lon="7.35536">
        <ele>216.319458</ele>
        <time>2010-09-18T09:21:37Z</time>
      </trkpt>
      <trkpt lat="48.74751" lon="7.35543">
        <ele>215.874146</ele>
        <time>2010-09-18T09:21:38Z</time>
      </trkpt>
      <trkpt lat="48.74744" lon="7.35551">
        <ele>215.381958</ele>
        <time>2010-09-18T09:21:39Z</time>
      </trkpt>
      <trkpt lat="48.74738" lon="7.35558">
        <ele>214.870239</ele>
        <time>2010-09-18T09:21:40Z</time>
      </trkpt>
      <trkpt lat="48.74731" lon="7.35566">
        <ele>214.381958</ele>
        <time>2010-09-18T09:21:41Z</time>
      </trkpt>
      <trkpt lat="48.74725" lon="7.35573">
        <ele>213.858521</ele>
        <time>2010-09-18T09:21:42Z</time>
      </trkpt>
      <trkpt lat="48.74718" lon="7.35581">
        <ele>213.245239</ele>
        <time>2010-09-18T09:21:43Z</time>
      </trkpt>
      <trkpt lat="48.74712" lon="7.3559">
        <ele>212.631958</ele>
        <time>2010-09-18T09:21:44Z</time>
      </trkpt>
      <trkpt lat="48.74706" lon="7.356">
        <ele>211.870239</ele>
        <time>2010-09-18T09:21:45Z</time>
      </trkpt>
      <trkpt lat="48.74699" lon="7.35609">
        <ele>211.178833</ele>
        <time>2010-09-18T09:21:46Z</time>
      </trkpt>
      <trkpt lat="48.74692" lon="7.35617">
        <ele>210.393677</ele>
        <time>2010-09-18T09:21:47Z</time>
      </trkpt>
      <trkpt lat="48.74685" lon="7.35625">
        <ele>209.588989</ele>
        <time>2010-09-18T09:21:48Z</time>
      </trkpt>
      <trkpt lat="48.74676" lon="7.35631">
        <ele>208.878052</ele>
        <time>2010-09-18T09:21:49Z</time>
      </trkpt>
      <trkpt lat="48.74668" lon="7.35639">
        <ele>208.319458</ele>
        <time>2010-09-18T09:21:50Z</time>
      </trkpt>
      <trkpt lat="48.7466" lon="7.35642">
        <ele>207.987427</ele>
        <time>2010-09-18T09:21:51Z</time>
      </trkpt>
      <trkpt lat="48.74651" lon="7.35644">
        <ele>207.616333</ele>
        <time>2010-09-18T09:21:52Z</time>
      </trkpt>
      <trkpt lat="48.74643" lon="7.35644">
        <ele>207.213989</ele>
        <time>2010-09-18T09:21:53Z</time>
      </trkpt>
      <trkpt lat="48.74634" lon="7.35642">
        <ele>206.561646</ele>
        <time>2010-09-18T09:21:54Z</time>
      </trkpt>
      <trkpt lat="48.74626" lon="7.35639">
        <ele>205.995239</ele>
        <time>2010-09-18T09:21:55Z</time>
      </trkpt>
      <trkpt lat="48.74617" lon="7.35637">
        <ele>205.542114</ele>
        <time>2010-09-18T09:21:56Z</time>
      </trkpt>
      <trkpt lat="48.74608" lon="7.35633">
        <ele>205.034302</ele>
        <time>2010-09-18T09:21:57Z</time>
      </trkpt>
      <trkpt lat="48.746" lon="7.35629">
        <ele>204.913208</ele>
        <time>2010-09-18T09:21:58Z</time>
      </trkpt>
      <trkpt lat="48.74595" lon="7.35625">
        <ele>204.061646</ele>
        <time>2010-09-18T09:21:59Z</time>
      </trkpt>
      <trkpt lat="48.7459" lon="7.35621">
        <ele>203.698364</ele>
        <time>2010-09-18T09:22:00Z</time>
      </trkpt>
      <trkpt lat="48.74586" lon="7.35617">
        <ele>203.323364</ele>
        <time>2010-09-18T09:22:01Z</time>
      </trkpt>
      <trkpt lat="48.7458" lon="7.35614">
        <ele>203.737427</ele>
        <time>2010-09-18T09:22:02Z</time>
      </trkpt>
      <trkpt lat="48.74575" lon="7.35612">
        <ele>203.393677</ele>
        <time>2010-09-18T09:22:03Z</time>
      </trkpt>
      <trkpt lat="48.7457" lon="7.3561">
        <ele>203.557739</ele>
        <time>2010-09-18T09:22:04Z</time>
      </trkpt>
      <trkpt lat="48.74565" lon="7.35608">
        <ele>204.085083</ele>
        <time>2010-09-18T09:22:06Z</time>
      </trkpt>
      <trkpt lat="48.74559" lon="7.35606">
        <ele>204.999146</ele>
        <time>2010-09-18T09:22:09Z</time>
      </trkpt>
      <trkpt lat="48.74551" lon="7.35602">
        <ele>204.854614</ele>
        <time>2010-09-18T09:22:11Z</time>
      </trkpt>
      <trkpt lat="48.74547" lon="7.35599">
        <ele>204.682739</ele>
        <time>2010-09-18T09:22:12Z</time>
      </trkpt>
      <trkpt lat="48.7454" lon="7.35593">
        <ele>203.608521</ele>
        <time>2010-09-18T09:22:14Z</time>
      </trkpt>
      <trkpt lat="48.74536" lon="7.35588">
        <ele>202.749146</ele>
        <time>2010-09-18T09:22:16Z</time>
      </trkpt>
      <trkpt lat="48.74533" lon="7.3558">
        <ele>201.503052</ele>
        <time>2010-09-18T09:22:21Z</time>
      </trkpt>
      <trkpt lat="48.74528" lon="7.35576">
        <ele>201.604614</ele>
        <time>2010-09-18T09:22:23Z</time>
      </trkpt>
      <trkpt lat="48.74519" lon="7.35577">
        <ele>201.690552</ele>
        <time>2010-09-18T09:22:25Z</time>
      </trkpt>
      <trkpt lat="48.74514" lon="7.35579">
        <ele>201.667114</ele>
        <time>2010-09-18T09:22:26Z</time>
      </trkpt>
      <trkpt lat="48.74508" lon="7.35581">
        <ele>201.397583</ele>
        <time>2010-09-18T09:22:27Z</time>
      </trkpt>
      <trkpt lat="48.74501" lon="7.35584">
        <ele>201.006958</ele>
        <time>2010-09-18T09:22:28Z</time>
      </trkpt>
      <trkpt lat="48.74495" lon="7.35587">
        <ele>200.967896</ele>
        <time>2010-09-18T09:22:29Z</time>
      </trkpt>
      <trkpt lat="48.74488" lon="7.3559">
        <ele>200.186646</ele>
        <time>2010-09-18T09:22:30Z</time>
      </trkpt>
      <trkpt lat="48.74482" lon="7.35593">
        <ele>200.061646</ele>
        <time>2010-09-18T09:22:31Z</time>
      </trkpt>
      <trkpt lat="48.74476" lon="7.35596">
        <ele>199.979614</ele>
        <time>2010-09-18T09:22:32Z</time>
      </trkpt>
      <trkpt lat="48.74469" lon="7.35599">
        <ele>199.960083</ele>
        <time>2010-09-18T09:22:33Z</time>
      </trkpt>
      <trkpt lat="48.74463" lon="7.35602">
        <ele>199.881958</ele>
        <time>2010-09-18T09:22:34Z</time>
      </trkpt>
      <trkpt lat="48.74456" lon="7.35605">
        <ele>199.799927</ele>
        <time>2010-09-18T09:22:35Z</time>
      </trkpt>
      <trkpt lat="48.7445" lon="7.35608">
        <ele>200.006958</ele>
        <time>2010-09-18T09:22:36Z</time>
      </trkpt>
      <trkpt lat="48.74443" lon="7.35611">
        <ele>199.862427</ele>
        <time>2010-09-18T09:22:37Z</time>
      </trkpt>
      <trkpt lat="48.74436" lon="7.35615">
        <ele>199.487427</ele>
        <time>2010-09-18T09:22:38Z</time>
      </trkpt>
      <trkpt lat="48.74429" lon="7.3562">
        <ele>199.159302</ele>
        <time>2010-09-18T09:22:39Z</time>
      </trkpt>
      <trkpt lat="48.74423" lon="7.35626">
        <ele>198.780396</ele>
        <time>2010-09-18T09:22:40Z</time>
      </trkpt>
      <trkpt lat="48.74417" lon="7.35632">
        <ele>198.264771</ele>
        <time>2010-09-18T09:22:41Z</time>
      </trkpt>
      <trkpt lat="48.74411" lon="7.35638">
        <ele>197.682739</ele>
        <time>2010-09-18T09:22:42Z</time>
      </trkpt>
      <trkpt lat="48.74405" lon="7.35644">
        <ele>197.006958</ele>
        <time>2010-09-18T09:22:43Z</time>
      </trkpt>
      <trkpt lat="48.74399" lon="7.3565">
        <ele>196.713989</ele>
        <time>2010-09-18T09:22:44Z</time>
      </trkpt>
      <trkpt lat="48.74393" lon="7.35655">
        <ele>196.413208</ele>
        <time>2010-09-18T09:22:45Z</time>
      </trkpt>
      <trkpt lat="48.74387" lon="7.35661">
        <ele>196.245239</ele>
        <time>2010-09-18T09:22:46Z</time>
      </trkpt>
      <trkpt lat="48.74381" lon="7.35667">
        <ele>195.854614</ele>
        <time>2010-09-18T09:22:47Z</time>
      </trkpt>
      <trkpt lat="48.74375" lon="7.35673">
        <ele>195.483521</ele>
        <time>2010-09-18T09:22:48Z</time>
      </trkpt>
      <trkpt lat="48.74368" lon="7.35679">
        <ele>194.983521</ele>
        <time>2010-09-18T09:22:49Z</time>
      </trkpt>
      <trkpt lat="48.74361" lon="7.35685">
        <ele>194.460083</ele>
        <time>2010-09-18T09:22:50Z</time>
      </trkpt>
      <trkpt lat="48.74354" lon="7.3569">
        <ele>193.995239</ele>
        <time>2010-09-18T09:22:51Z</time>
      </trkpt>
      <trkpt lat="48.74345" lon="7.35694">
        <ele>193.440552</ele>
        <time>2010-09-18T09:22:52Z</time>
      </trkpt>
      <trkpt lat="48.74337" lon="7.35697">
        <ele>192.991333</ele>
        <time>2010-09-18T09:22:53Z</time>
      </trkpt>
      <trkpt lat="48.74328" lon="7.35698">
        <ele>192.467896</ele>
        <time>2010-09-18T09:22:54Z</time>
      </trkpt>
      <trkpt lat="48.74319" lon="7.35699">
        <ele>192.116333</ele>
        <time>2010-09-18T09:22:55Z</time>
      </trkpt>
      <trkpt lat="48.7431" lon="7.357">
        <ele>191.643677</ele>
        <time>2010-09-18T09:22:56Z</time>
      </trkpt>
      <trkpt lat="48.743" lon="7.35701">
        <ele>191.264771</ele>
        <time>2010-09-18T09:22:57Z</time>
      </trkpt>
      <trkpt lat="48.74291" lon="7.35702">
        <ele>190.760864</ele>
        <time>2010-09-18T09:22:58Z</time>
      </trkpt>
      <trkpt lat="48.74281" lon="7.35704">
        <ele>190.405396</ele>
        <time>2010-09-18T09:22:59Z</time>
      </trkpt>
      <trkpt lat="48.74272" lon="7.35706">
        <ele>190.096802</ele>
        <time>2010-09-18T09:23:00Z</time>
      </trkpt>
      <trkpt lat="48.74263" lon="7.3571">
        <ele>189.936646</ele>
        <time>2010-09-18T09:23:01Z</time>
      </trkpt>
      <trkpt lat="48.74254" lon="7.35714">
        <ele>189.858521</ele>
        <time>2010-09-18T09:23:02Z</time>
      </trkpt>
      <trkpt lat="48.74246" lon="7.35719">
        <ele>189.956177</ele>
        <time>2010-09-18T09:23:03Z</time>
      </trkpt>
      <trkpt lat="48.74238" lon="7.35725">
        <ele>190.264771</ele>
        <time>2010-09-18T09:23:04Z</time>
      </trkpt>
      <trkpt lat="48.74231" lon="7.35731">
        <ele>190.635864</ele>
        <time>2010-09-18T09:23:05Z</time>
      </trkpt>
      <trkpt lat="48.74223" lon="7.35738">
        <ele>190.878052</ele>
        <time>2010-09-18T09:23:06Z</time>
      </trkpt>
      <trkpt lat="48.74217" lon="7.35745">
        <ele>191.174927</ele>
        <time>2010-09-18T09:23:07Z</time>
      </trkpt>
      <trkpt lat="48.7421" lon="7.35753">
        <ele>191.381958</ele>
        <time>2010-09-18T09:23:08Z</time>
      </trkpt>
      <trkpt lat="48.74205" lon="7.35762">
        <ele>191.663208</ele>
        <time>2010-09-18T09:23:09Z</time>
      </trkpt>
      <trkpt lat="48.742" lon="7.35772">
        <ele>191.874146</ele>
        <time>2010-09-18T09:23:10Z</time>
      </trkpt>
      <trkpt lat="48.74196" lon="7.35781">
        <ele>192.131958</ele>
        <time>2010-09-18T09:23:11Z</time>
      </trkpt>
      <trkpt lat="48.74192" lon="7.3579">
        <ele>192.264771</ele>
        <time>2010-09-18T09:23:12Z</time>
      </trkpt>
      <trkpt lat="48.74189" lon="7.35799">
        <ele>192.667114</ele>
        <time>2010-09-18T09:23:13Z</time>
      </trkpt>
      <trkpt lat="48.74187" lon="7.35809">
        <ele>192.827271</ele>
        <time>2010-09-18T09:23:14Z</time>
      </trkpt>
      <trkpt lat="48.74184" lon="7.35817">
        <ele>193.174927</ele>
        <time>2010-09-18T09:23:15Z</time>
      </trkpt>
      <trkpt lat="48.74181" lon="7.35825">
        <ele>193.260864</ele>
        <time>2010-09-18T09:23:16Z</time>
      </trkpt>
      <trkpt lat="48.74179" lon="7.35833">
        <ele>193.514771</ele>
        <time>2010-09-18T09:23:17Z</time>
      </trkpt>
      <trkpt lat="48.74176" lon="7.35839">
        <ele>193.768677</ele>
        <time>2010-09-18T09:23:18Z</time>
      </trkpt>
      <trkpt lat="48.74174" lon="7.35846">
        <ele>194.108521</ele>
        <time>2010-09-18T09:23:19Z</time>
      </trkpt>
      <trkpt lat="48.7417" lon="7.35856">
        <ele>194.487427</ele>
        <time>2010-09-18T09:23:21Z</time>
      </trkpt>
      <trkpt lat="48.74167" lon="7.35866">
        <ele>195.049927</ele>
        <time>2010-09-18T09:23:23Z</time>
      </trkpt>
      <trkpt lat="48.74163" lon="7.35877">
        <ele>195.046021</ele>
        <time>2010-09-18T09:23:25Z</time>
      </trkpt>
      <trkpt lat="48.7416" lon="7.35889">
        <ele>194.936646</ele>
        <time>2010-09-18T09:23:27Z</time>
      </trkpt>
      <trkpt lat="48.74158" lon="7.35898">
        <ele>194.588989</ele>
        <time>2010-09-18T09:23:29Z</time>
      </trkpt>
    </trkseg>
  </trk>
</gpx>